GEFSMA_prec_meanprecacc_180.txt.gz
Total_Precipitation_Accumulation
0.51 0.48 0.42 0.39 0.33 0.32 0.30 0.31 0.26 0.23 0.22 0.23 0.21 0.18 0.17 0.16 0.16 0.16 0.16 0.16 0.12 0.14 0.20 0.27 0.30 0.29 0.33 0.38 0.39 0.38 0.36 0.34 0.32 0.29 0.28 0.27 0.26 0.26 0.26 0.27 0.27 0.28 0.30
0.60 0.55 0.47 0.42 0.37 0.35 0.34 0.35 0.35 0.30 0.25 0.23 0.21 0.20 0.19 0.17 0.15 0.14 0.14 0.16 0.15 0.16 0.18 0.23 0.32 0.39 0.45 0.50 0.50 0.48 0.45 0.39 0.35 0.34 0.33 0.32 0.31 0.30 0.31 0.32 0.33 0.34 0.35
0.71 0.66 0.60 0.49 0.42 0.44 0.43 0.42 0.42 0.41 0.36 0.28 0.24 0.21 0.19 0.19 0.16 0.14 0.13 0.13 0.13 0.12 0.13 0.20 0.28 0.35 0.42 0.49 0.55 0.57 0.54 0.47 0.41 0.37 0.36 0.36 0.36 0.36 0.37 0.39 0.41 0.42 0.42
0.76 0.76 0.72 0.68 0.60 0.54 0.52 0.50 0.46 0.42 0.38 0.32 0.27 0.24 0.22 0.21 0.19 0.18 0.17 0.13 0.12 0.09 0.09 0.13 0.19 0.25 0.33 0.42 0.51 0.60 0.64 0.59 0.50 0.43 0.43 0.45 0.45 0.44 0.46 0.48 0.49 0.50 0.50
0.91 0.88 0.80 0.80 0.81 0.74 0.62 0.58 0.54 0.48 0.46 0.41 0.37 0.36 0.33 0.27 0.23 0.21 0.18 0.15 0.14 0.13 0.11 0.11 0.14 0.17 0.22 0.31 0.39 0.53 0.66 0.68 0.63 0.57 0.53 0.53 0.53 0.54 0.58 0.62 0.63 0.64 0.66
1.04 0.99 0.95 0.91 0.91 0.86 0.76 0.67 0.59 0.55 0.50 0.50 0.50 0.44 0.39 0.33 0.31 0.28 0.23 0.20 0.18 0.19 0.21 0.21 0.21 0.20 0.19 0.22 0.28 0.41 0.59 0.70 0.71 0.66 0.62 0.60 0.62 0.65 0.70 0.77 0.79 0.80 0.85
1.19 1.09 1.03 1.02 1.01 0.96 0.87 0.83 0.74 0.64 0.60 0.61 0.60 0.49 0.40 0.35 0.31 0.29 0.30 0.29 0.25 0.23 0.24 0.27 0.28 0.26 0.21 0.21 0.23 0.28 0.41 0.60 0.73 0.74 0.72 0.70 0.71 0.77 0.86 0.95 0.98 1.01 1.05
1.30 1.18 1.11 1.10 1.08 1.05 0.96 0.92 0.94 0.87 0.76 0.75 0.76 0.76 0.61 0.47 0.35 0.31 0.32 0.31 0.29 0.28 0.27 0.25 0.25 0.26 0.26 0.25 0.23 0.25 0.27 0.40 0.61 0.82 0.90 0.91 0.92 0.94 1.01 1.14 1.22 1.30 1.36
1.50 1.34 1.23 1.23 1.23 1.22 1.15 1.07 1.06 1.02 0.97 0.91 0.91 1.02 0.88 0.65 0.47 0.37 0.35 0.34 0.33 0.33 0.31 0.31 0.29 0.29 0.28 0.26 0.27 0.30 0.32 0.36 0.54 0.80 1.04 1.13 1.14 1.19 1.33 1.47 1.55 1.66 1.69
1.58 1.52 1.47 1.39 1.35 1.35 1.32 1.38 1.39 1.30 1.21 1.07 1.00 0.95 0.93 0.80 0.77 0.59 0.43 0.40 0.38 0.36 0.34 0.32 0.31 0.30 0.30 0.31 0.33 0.39 0.45 0.50 0.62 0.86 1.14 1.34 1.46 1.60 1.79 1.90 1.99 2.08 2.02
1.44 1.50 1.50 1.48 1.36 1.28 1.25 1.31 1.38 1.42 1.32 1.22 1.14 1.09 1.06 0.95 0.86 0.84 0.63 0.47 0.44 0.42 0.41 0.41 0.42 0.42 0.43 0.45 0.48 0.54 0.62 0.68 0.82 1.03 1.34 1.64 1.85 2.02 2.23 2.37 2.43 2.44 2.39
1.27 1.28 1.33 1.32 1.34 1.31 1.25 1.28 1.37 1.45 1.45 1.38 1.29 1.19 1.14 1.07 0.94 0.96 0.90 0.68 0.60 0.54 0.54 0.56 0.58 0.59 0.58 0.59 0.61 0.72 0.77 0.84 0.96 1.14 1.46 1.80 2.01 2.14 2.30 2.56 2.72 2.73 2.73
1.21 1.21 1.26 1.26 1.27 1.29 1.31 1.32 1.33 1.30 1.34 1.34 1.29 1.23 1.16 1.07 1.02 1.09 1.14 1.00 0.83 0.69 0.67 0.69 0.69 0.70 0.70 0.70 0.72 0.83 0.83 0.88 0.93 1.06 1.34 1.67 1.78 1.79 1.89 2.12 2.37 2.52 2.60
1.09 1.12 1.17 1.18 1.20 1.23 1.25 1.27 1.25 1.22 1.21 1.21 1.19 1.16 1.11 1.02 1.00 1.06 1.17 1.27 1.21 0.98 0.82 0.77 0.76 0.78 0.80 0.80 0.82 0.89 0.80 0.92 0.95 1.02 1.16 1.30 1.32 1.27 1.28 1.43 1.67 1.89 2.05
1.01 0.99 0.98 0.99 1.03 1.06 1.08 1.13 1.14 1.09 1.07 1.06 1.03 1.02 0.99 0.94 0.91 0.94 1.04 1.21 1.43 1.36 1.07 0.86 0.82 0.81 0.84 0.85 0.90 0.83 0.73 0.88 0.95 0.94 0.98 1.02 0.99 0.97 1.00 1.11 1.32 1.53 1.66
0.88 0.87 0.86 0.82 0.83 0.87 0.93 0.99 1.00 0.99 1.00 0.97 0.95 0.96 0.93 0.90 0.91 0.94 1.01 1.09 1.23 1.36 1.23 0.90 0.77 0.73 0.76 0.79 0.87 0.78 0.72 0.88 0.88 0.87 0.88 0.88 0.90 0.93 0.98 1.05 1.15 1.30 1.50
0.74 0.76 0.78 0.78 0.76 0.75 0.79 0.86 0.91 0.92 0.94 0.92 0.89 0.88 0.87 0.86 0.88 0.90 0.95 1.00 1.06 1.14 1.16 0.91 0.76 0.73 0.75 0.75 0.78 0.76 0.72 0.70 0.68 0.77 0.77 0.77 0.78 0.84 0.94 1.01 1.06 1.15 1.32
0.61 0.60 0.61 0.63 0.64 0.64 0.65 0.71 0.77 0.79 0.82 0.84 0.86 0.89 0.90 0.91 0.96 0.99 1.01 1.02 1.01 1.01 1.05 0.97 0.79 0.70 0.66 0.63 0.63 0.66 0.67 0.66 0.61 0.71 0.73 0.72 0.75 0.79 0.87 0.92 0.95 1.03 1.12
0.62 0.63 0.58 0.55 0.54 0.53 0.57 0.61 0.65 0.71 0.74 0.76 0.80 0.86 0.91 0.96 1.02 1.03 1.02 1.01 0.97 0.94 0.95 0.96 0.84 0.70 0.64 0.61 0.62 0.63 0.64 0.63 0.59 0.65 0.69 0.68 0.72 0.75 0.79 0.86 0.91 0.93 0.95
0.56 0.57 0.58 0.57 0.54 0.52 0.54 0.59 0.66 0.71 0.78 0.82 0.83 0.86 0.89 0.90 0.91 0.91 0.90 0.88 0.89 0.90 0.90 0.93 0.89 0.77 0.68 0.63 0.67 0.74 0.72 0.63 0.59 0.54 0.58 0.58 0.60 0.62 0.65 0.70 0.77 0.81 0.83
0.50 0.53 0.55 0.57 0.58 0.57 0.60 0.65 0.70 0.75 0.81 0.86 0.89 0.89 0.85 0.83 0.78 0.77 0.77 0.77 0.77 0.83 0.91 0.96 0.91 0.81 0.71 0.67 0.67 0.66 0.71 0.68 0.63 0.56 0.53 0.50 0.50 0.49 0.50 0.56 0.65 0.77 0.87
0.48 0.54 0.60 0.66 0.69 0.74 0.88 0.90 0.83 0.81 0.83 0.82 0.80 0.77 0.75 0.75 0.73 0.76 0.77 0.76 0.81 0.91 1.01 1.00 0.89 0.74 0.59 0.54 0.59 0.70 0.80 0.85 0.76 0.55 0.54 0.55 0.54 0.55 0.51 0.54 0.68 0.78 0.90
0.59 0.66 0.70 0.80 0.84 0.88 0.93 0.85 0.82 0.76 0.78 0.77 0.72 0.67 0.63 0.59 0.60 0.57 0.64 0.72 0.74 0.79 0.84 0.83 0.78 0.64 0.58 0.57 0.73 0.89 0.88 0.84 0.69 0.51 0.54 0.61 0.57 0.61 0.59 0.64 0.76 0.80 0.91
0.70 0.77 0.77 0.80 0.83 0.84 0.83 0.76 0.74 0.64 0.60 0.59 0.57 0.54 0.50 0.49 0.50 0.53 0.59 0.67 0.60 0.56 0.57 0.55 0.56 0.60 0.61 0.61 0.71 0.86 0.87 0.83 0.70 0.60 0.59 0.69 0.61 0.62 0.61 0.66 0.77 0.77 0.83
0.72 0.75 0.74 0.71 0.66 0.64 0.65 0.58 0.56 0.51 0.49 0.46 0.45 0.47 0.49 0.45 0.52 0.66 0.68 0.66 0.54 0.45 0.47 0.54 0.59 0.59 0.60 0.59 0.62 0.83 0.99 1.05 0.89 0.66 0.58 0.61 0.55 0.57 0.62 0.67 0.75 0.82 0.83
0.58 0.57 0.53 0.50 0.48 0.45 0.47 0.45 0.44 0.38 0.40 0.40 0.43 0.46 0.51 0.49 0.57 0.69 0.63 0.60 0.53 0.45 0.45 0.44 0.43 0.43 0.42 0.46 0.56 0.70 1.05 1.36 1.08 0.78 0.53 0.65 0.67 0.73 0.92 0.70 0.70 0.76 0.80

GEFSMA_prec_meanprecacc_186.txt.gz
Total_Precipitation_Accumulation
0.57 0.53 0.48 0.44 0.37 0.35 0.34 0.36 0.32 0.29 0.27 0.27 0.24 0.20 0.18 0.17 0.17 0.18 0.19 0.19 0.14 0.16 0.23 0.30 0.35 0.37 0.39 0.43 0.43 0.41 0.38 0.36 0.34 0.31 0.30 0.29 0.28 0.28 0.28 0.29 0.29 0.30 0.31
0.66 0.62 0.53 0.48 0.42 0.38 0.37 0.39 0.41 0.36 0.31 0.28 0.27 0.24 0.21 0.19 0.17 0.16 0.16 0.18 0.18 0.19 0.23 0.28 0.36 0.47 0.54 0.58 0.57 0.54 0.49 0.42 0.37 0.36 0.35 0.34 0.32 0.32 0.33 0.34 0.35 0.35 0.36
0.77 0.73 0.66 0.55 0.47 0.48 0.45 0.45 0.46 0.47 0.41 0.32 0.28 0.27 0.25 0.24 0.21 0.18 0.17 0.16 0.15 0.14 0.18 0.26 0.34 0.41 0.49 0.57 0.62 0.62 0.58 0.51 0.43 0.38 0.37 0.37 0.37 0.38 0.39 0.41 0.43 0.43 0.44
0.81 0.83 0.77 0.74 0.66 0.58 0.55 0.53 0.50 0.46 0.42 0.35 0.30 0.28 0.27 0.27 0.24 0.23 0.23 0.18 0.15 0.12 0.12 0.18 0.25 0.30 0.37 0.46 0.57 0.66 0.69 0.63 0.53 0.45 0.45 0.46 0.46 0.45 0.48 0.50 0.51 0.51 0.52
0.95 0.95 0.86 0.86 0.87 0.78 0.67 0.62 0.59 0.52 0.49 0.44 0.40 0.39 0.36 0.32 0.27 0.24 0.21 0.18 0.17 0.16 0.15 0.15 0.18 0.21 0.25 0.34 0.43 0.58 0.71 0.73 0.67 0.60 0.56 0.55 0.55 0.56 0.59 0.64 0.64 0.65 0.67
1.09 1.05 1.01 0.96 0.98 0.93 0.80 0.72 0.65 0.59 0.54 0.54 0.54 0.46 0.40 0.35 0.33 0.30 0.25 0.21 0.20 0.21 0.23 0.24 0.24 0.24 0.23 0.25 0.31 0.44 0.63 0.75 0.76 0.71 0.66 0.63 0.64 0.66 0.72 0.78 0.80 0.82 0.87
1.24 1.15 1.08 1.07 1.07 1.02 0.91 0.86 0.80 0.71 0.65 0.66 0.64 0.51 0.41 0.35 0.31 0.29 0.31 0.30 0.26 0.24 0.26 0.29 0.31 0.30 0.25 0.23 0.25 0.30 0.44 0.64 0.77 0.80 0.77 0.75 0.76 0.80 0.88 0.97 1.00 1.03 1.07
1.37 1.25 1.15 1.14 1.13 1.09 0.99 0.94 0.97 0.93 0.83 0.80 0.80 0.78 0.62 0.47 0.36 0.32 0.33 0.33 0.30 0.30 0.29 0.27 0.28 0.30 0.31 0.28 0.24 0.27 0.29 0.42 0.65 0.86 0.96 0.96 0.96 0.98 1.05 1.17 1.24 1.33 1.38
1.57 1.42 1.28 1.27 1.28 1.27 1.18 1.09 1.07 1.04 1.01 0.96 0.96 1.05 0.91 0.66 0.47 0.38 0.36 0.35 0.35 0.35 0.33 0.33 0.32 0.32 0.32 0.29 0.29 0.31 0.34 0.38 0.56 0.84 1.09 1.19 1.19 1.23 1.38 1.52 1.60 1.70 1.72
1.65 1.63 1.55 1.44 1.39 1.39 1.35 1.40 1.41 1.31 1.23 1.10 1.02 0.98 0.95 0.82 0.78 0.59 0.43 0.41 0.39 0.37 0.36 0.34 0.33 0.32 0.33 0.33 0.34 0.40 0.47 0.51 0.63 0.89 1.19 1.40 1.52 1.65 1.84 1.95 2.04 2.12 2.05
1.50 1.59 1.60 1.55 1.41 1.32 1.28 1.34 1.41 1.44 1.34 1.24 1.16 1.10 1.07 0.95 0.87 0.85 0.64 0.47 0.45 0.43 0.42 0.43 0.44 0.45 0.46 0.48 0.50 0.55 0.65 0.71 0.84 1.06 1.38 1.70 1.91 2.08 2.29 2.43 2.49 2.49 2.43
1.33 1.38 1.44 1.40 1.41 1.35 1.28 1.30 1.39 1.47 1.47 1.41 1.31 1.20 1.15 1.08 0.95 0.96 0.90 0.69 0.61 0.55 0.54 0.57 0.59 0.61 0.61 0.62 0.63 0.73 0.80 0.87 0.99 1.17 1.50 1.86 2.09 2.23 2.38 2.62 2.79 2.79 2.78
1.27 1.31 1.42 1.36 1.36 1.34 1.34 1.34 1.35 1.31 1.36 1.36 1.31 1.24 1.16 1.08 1.02 1.10 1.15 1.00 0.84 0.69 0.68 0.69 0.69 0.70 0.70 0.72 0.74 0.85 0.85 0.89 0.95 1.08 1.37 1.71 1.85 1.89 1.98 2.20 2.44 2.58 2.66
1.15 1.20 1.31 1.33 1.30 1.32 1.31 1.30 1.27 1.23 1.22 1.22 1.20 1.17 1.12 1.03 1.01 1.06 1.17 1.27 1.22 0.98 0.83 0.77 0.76 0.79 0.80 0.80 0.83 0.91 0.81 0.93 0.97 1.03 1.19 1.34 1.37 1.32 1.35 1.51 1.75 1.95 2.10
1.08 1.07 1.10 1.15 1.16 1.16 1.15 1.18 1.17 1.11 1.08 1.06 1.04 1.02 1.00 0.94 0.91 0.95 1.04 1.21 1.43 1.37 1.07 0.86 0.82 0.81 0.84 0.85 0.90 0.84 0.74 0.90 0.96 0.96 1.00 1.05 1.02 1.01 1.04 1.15 1.37 1.59 1.72
0.91 0.92 0.94 0.94 0.95 0.97 1.02 1.05 1.04 1.01 1.01 0.98 0.96 0.96 0.94 0.91 0.92 0.95 1.01 1.10 1.24 1.37 1.24 0.91 0.78 0.73 0.77 0.79 0.87 0.78 0.73 0.89 0.90 0.90 0.91 0.91 0.92 0.96 1.00 1.07 1.18 1.33 1.54
0.77 0.79 0.84 0.87 0.86 0.85 0.85 0.92 0.96 0.95 0.96 0.93 0.89 0.88 0.88 0.86 0.89 0.90 0.95 1.01 1.06 1.15 1.16 0.91 0.76 0.73 0.76 0.76 0.79 0.77 0.73 0.71 0.70 0.79 0.81 0.81 0.82 0.88 0.97 1.03 1.09 1.18 1.34
0.63 0.63 0.65 0.69 0.73 0.72 0.72 0.75 0.80 0.82 0.84 0.85 0.87 0.90 0.90 0.92 0.96 0.99 1.02 1.02 1.01 1.02 1.05 0.97 0.80 0.70 0.66 0.64 0.64 0.67 0.69 0.68 0.64 0.75 0.76 0.75 0.78 0.84 0.92 0.95 0.98 1.05 1.15
0.63 0.65 0.61 0.59 0.60 0.62 0.65 0.66 0.69 0.74 0.77 0.78 0.81 0.87 0.91 0.96 1.02 1.03 1.03 1.01 0.97 0.94 0.95 0.97 0.85 0.71 0.65 0.61 0.63 0.64 0.65 0.65 0.62 0.68 0.72 0.71 0.74 0.78 0.83 0.90 0.95 0.96 0.98
0.58 0.58 0.60 0.59 0.58 0.58 0.61 0.65 0.70 0.74 0.81 0.84 0.85 0.86 0.89 0.91 0.91 0.91 0.90 0.88 0.89 0.90 0.91 0.94 0.90 0.78 0.68 0.63 0.67 0.74 0.73 0.65 0.61 0.56 0.61 0.62 0.64 0.65 0.68 0.74 0.81 0.83 0.85
0.53 0.55 0.57 0.58 0.59 0.60 0.64 0.70 0.74 0.78 0.83 0.89 0.92 0.90 0.86 0.84 0.79 0.78 0.78 0.77 0.77 0.84 0.92 0.97 0.92 0.82 0.71 0.67 0.67 0.66 0.72 0.69 0.64 0.58 0.55 0.53 0.54 0.52 0.53 0.60 0.69 0.81 0.90
0.53 0.57 0.62 0.67 0.70 0.75 0.90 0.92 0.86 0.84 0.85 0.84 0.82 0.78 0.76 0.75 0.73 0.76 0.77 0.77 0.81 0.91 1.02 1.01 0.90 0.75 0.59 0.55 0.60 0.70 0.81 0.86 0.77 0.57 0.56 0.57 0.58 0.59 0.56 0.58 0.72 0.83 0.94
0.64 0.70 0.73 0.82 0.85 0.88 0.93 0.86 0.83 0.78 0.79 0.78 0.73 0.68 0.64 0.59 0.60 0.57 0.64 0.72 0.74 0.80 0.85 0.84 0.79 0.65 0.59 0.58 0.73 0.90 0.89 0.85 0.70 0.52 0.56 0.63 0.60 0.64 0.63 0.68 0.80 0.83 0.94
0.73 0.80 0.80 0.82 0.84 0.85 0.84 0.76 0.74 0.65 0.61 0.60 0.58 0.54 0.50 0.49 0.50 0.53 0.59 0.67 0.60 0.57 0.57 0.56 0.57 0.61 0.62 0.62 0.72 0.87 0.88 0.85 0.71 0.61 0.60 0.70 0.63 0.64 0.63 0.68 0.80 0.79 0.85
0.74 0.76 0.75 0.72 0.66 0.65 0.65 0.58 0.56 0.51 0.49 0.46 0.46 0.47 0.49 0.45 0.52 0.66 0.69 0.66 0.54 0.45 0.48 0.54 0.60 0.60 0.61 0.61 0.64 0.85 1.02 1.08 0.92 0.68 0.59 0.62 0.57 0.59 0.65 0.69 0.77 0.84 0.84
0.60 0.58 0.54 0.51 0.48 0.45 0.47 0.45 0.44 0.39 0.40 0.40 0.43 0.46 0.51 0.49 0.57 0.69 0.64 0.61 0.54 0.45 0.46 0.44 0.44 0.44 0.44 0.48 0.59 0.72 1.08 1.39 1.11 0.80 0.54 0.66 0.69 0.75 0.94 0.72 0.71 0.77 0.81

GEFSMA_prec_meanprecacc_192.txt.gz
Total_Precipitation_Accumulation
0.60 0.55 0.50 0.46 0.40 0.37 0.35 0.37 0.33 0.29 0.28 0.28 0.26 0.21 0.19 0.17 0.17 0.18 0.20 0.20 0.16 0.17 0.25 0.32 0.37 0.40 0.43 0.46 0.46 0.44 0.41 0.39 0.37 0.34 0.32 0.31 0.30 0.30 0.30 0.31 0.32 0.32 0.33
0.69 0.64 0.54 0.50 0.44 0.41 0.39 0.41 0.43 0.37 0.31 0.29 0.28 0.26 0.23 0.20 0.17 0.16 0.17 0.19 0.19 0.20 0.24 0.31 0.39 0.50 0.58 0.62 0.61 0.58 0.53 0.46 0.41 0.39 0.38 0.37 0.35 0.34 0.34 0.35 0.36 0.36 0.37
0.79 0.76 0.68 0.57 0.49 0.50 0.48 0.48 0.49 0.49 0.43 0.34 0.31 0.29 0.27 0.26 0.22 0.19 0.17 0.16 0.16 0.15 0.19 0.29 0.38 0.45 0.53 0.62 0.68 0.69 0.63 0.55 0.47 0.42 0.40 0.41 0.40 0.40 0.40 0.42 0.44 0.44 0.45
0.84 0.86 0.80 0.75 0.67 0.62 0.58 0.56 0.53 0.48 0.44 0.37 0.32 0.30 0.30 0.30 0.27 0.26 0.25 0.19 0.16 0.12 0.14 0.21 0.28 0.34 0.42 0.52 0.63 0.73 0.74 0.67 0.57 0.49 0.49 0.51 0.50 0.49 0.50 0.51 0.52 0.52 0.52
0.99 0.98 0.88 0.88 0.90 0.81 0.70 0.65 0.62 0.54 0.50 0.46 0.42 0.40 0.38 0.34 0.31 0.28 0.25 0.21 0.19 0.18 0.16 0.17 0.21 0.25 0.30 0.40 0.49 0.64 0.77 0.78 0.72 0.65 0.61 0.59 0.60 0.60 0.63 0.66 0.66 0.66 0.68
1.15 1.09 1.04 0.99 1.01 0.96 0.83 0.75 0.68 0.62 0.55 0.56 0.56 0.49 0.43 0.37 0.35 0.33 0.29 0.25 0.23 0.24 0.25 0.25 0.26 0.26 0.28 0.31 0.38 0.49 0.68 0.83 0.84 0.77 0.71 0.68 0.69 0.72 0.76 0.82 0.83 0.85 0.88
1.34 1.21 1.11 1.09 1.10 1.05 0.95 0.90 0.84 0.73 0.67 0.69 0.67 0.54 0.43 0.38 0.33 0.30 0.33 0.33 0.29 0.27 0.27 0.30 0.32 0.31 0.27 0.27 0.30 0.35 0.48 0.70 0.87 0.88 0.83 0.80 0.81 0.86 0.94 1.03 1.05 1.06 1.09
1.47 1.34 1.21 1.17 1.15 1.12 1.03 0.98 1.01 0.97 0.87 0.85 0.84 0.81 0.65 0.50 0.38 0.33 0.34 0.33 0.32 0.31 0.30 0.28 0.29 0.31 0.33 0.30 0.29 0.30 0.33 0.48 0.73 0.93 1.02 1.01 1.01 1.04 1.12 1.24 1.31 1.38 1.43
1.68 1.54 1.38 1.33 1.30 1.30 1.22 1.14 1.11 1.07 1.06 1.02 1.04 1.11 0.95 0.69 0.49 0.39 0.37 0.36 0.36 0.35 0.34 0.34 0.33 0.33 0.35 0.34 0.35 0.35 0.36 0.41 0.64 0.90 1.13 1.23 1.24 1.28 1.44 1.58 1.66 1.76 1.78
1.77 1.77 1.68 1.55 1.45 1.42 1.38 1.44 1.45 1.34 1.26 1.14 1.07 1.03 1.01 0.85 0.79 0.61 0.44 0.41 0.40 0.38 0.37 0.35 0.35 0.35 0.34 0.37 0.40 0.45 0.49 0.53 0.67 0.95 1.23 1.44 1.57 1.71 1.90 2.02 2.12 2.20 2.12
1.62 1.72 1.74 1.66 1.51 1.38 1.31 1.37 1.44 1.47 1.36 1.27 1.19 1.12 1.09 0.97 0.88 0.86 0.65 0.48 0.45 0.43 0.43 0.43 0.45 0.47 0.48 0.49 0.52 0.59 0.67 0.72 0.86 1.09 1.43 1.75 1.98 2.16 2.36 2.50 2.56 2.58 2.52
1.46 1.49 1.56 1.52 1.51 1.43 1.33 1.34 1.42 1.50 1.49 1.43 1.33 1.22 1.16 1.10 0.96 0.97 0.91 0.69 0.61 0.55 0.55 0.57 0.60 0.62 0.62 0.62 0.64 0.74 0.81 0.88 1.00 1.19 1.54 1.91 2.17 2.32 2.47 2.73 2.88 2.87 2.86
1.39 1.43 1.52 1.47 1.47 1.44 1.41 1.39 1.39 1.35 1.39 1.39 1.33 1.27 1.18 1.09 1.03 1.10 1.15 1.00 0.84 0.69 0.68 0.69 0.69 0.71 0.71 0.72 0.74 0.85 0.85 0.90 0.95 1.09 1.40 1.76 1.91 1.96 2.06 2.28 2.52 2.66 2.75
1.27 1.30 1.42 1.44 1.41 1.42 1.40 1.37 1.33 1.28 1.26 1.27 1.25 1.21 1.14 1.05 1.02 1.07 1.18 1.28 1.22 0.99 0.83 0.77 0.77 0.79 0.81 0.81 0.83 0.92 0.81 0.93 0.97 1.04 1.20 1.37 1.40 1.36 1.40 1.58 1.81 2.01 2.17
1.16 1.15 1.18 1.23 1.25 1.25 1.25 1.27 1.23 1.16 1.13 1.11 1.09 1.07 1.03 0.96 0.93 0.96 1.06 1.23 1.45 1.38 1.08 0.86 0.82 0.81 0.84 0.85 0.90 0.84 0.74 0.90 0.96 0.97 1.01 1.06 1.04 1.03 1.07 1.19 1.42 1.64 1.77
0.97 0.98 1.02 1.02 1.04 1.07 1.12 1.17 1.15 1.08 1.07 1.02 1.00 1.00 0.97 0.93 0.93 0.96 1.02 1.11 1.25 1.38 1.24 0.91 0.78 0.73 0.77 0.79 0.87 0.78 0.73 0.90 0.90 0.90 0.91 0.91 0.93 0.97 1.01 1.09 1.21 1.38 1.60
0.79 0.83 0.89 0.94 0.95 0.95 0.95 1.01 1.08 1.08 1.04 1.00 0.96 0.94 0.91 0.89 0.90 0.91 0.96 1.02 1.07 1.16 1.17 0.92 0.76 0.73 0.76 0.76 0.79 0.77 0.73 0.71 0.70 0.80 0.81 0.81 0.83 0.89 0.98 1.04 1.10 1.20 1.38
0.65 0.65 0.68 0.74 0.79 0.81 0.82 0.83 0.87 0.92 0.94 0.93 0.93 0.95 0.95 0.95 0.98 1.00 1.02 1.02 1.01 1.02 1.06 0.97 0.80 0.70 0.66 0.64 0.64 0.67 0.69 0.68 0.64 0.75 0.77 0.75 0.79 0.85 0.94 0.97 0.99 1.07 1.16
0.65 0.68 0.63 0.62 0.65 0.68 0.74 0.75 0.74 0.78 0.82 0.84 0.86 0.90 0.94 0.99 1.04 1.04 1.03 1.01 0.98 0.95 0.95 0.97 0.85 0.71 0.65 0.61 0.63 0.64 0.65 0.65 0.62 0.68 0.72 0.72 0.75 0.79 0.85 0.94 0.98 0.97 1.00
0.60 0.61 0.62 0.61 0.61 0.62 0.68 0.75 0.78 0.78 0.83 0.87 0.88 0.89 0.91 0.93 0.93 0.93 0.91 0.88 0.90 0.90 0.91 0.94 0.90 0.78 0.68 0.63 0.67 0.74 0.73 0.65 0.61 0.56 0.61 0.62 0.65 0.67 0.70 0.77 0.85 0.87 0.89
0.55 0.57 0.60 0.61 0.62 0.64 0.69 0.77 0.83 0.84 0.86 0.91 0.94 0.92 0.88 0.85 0.80 0.78 0.78 0.77 0.77 0.84 0.92 0.97 0.92 0.82 0.71 0.68 0.67 0.66 0.72 0.70 0.64 0.58 0.55 0.54 0.54 0.53 0.55 0.62 0.72 0.85 0.95
0.55 0.59 0.65 0.71 0.74 0.79 0.94 0.97 0.93 0.91 0.90 0.87 0.84 0.80 0.78 0.78 0.75 0.78 0.77 0.77 0.82 0.92 1.02 1.02 0.90 0.75 0.59 0.55 0.60 0.71 0.82 0.87 0.78 0.57 0.56 0.58 0.58 0.60 0.57 0.60 0.75 0.87 1.00
0.66 0.72 0.76 0.86 0.89 0.92 0.97 0.90 0.88 0.84 0.85 0.83 0.76 0.70 0.66 0.62 0.63 0.59 0.66 0.72 0.74 0.80 0.85 0.85 0.79 0.65 0.59 0.58 0.74 0.91 0.90 0.86 0.70 0.52 0.57 0.64 0.60 0.64 0.64 0.70 0.83 0.87 0.99
0.78 0.84 0.84 0.86 0.89 0.89 0.88 0.80 0.78 0.68 0.65 0.64 0.62 0.58 0.53 0.52 0.52 0.56 0.62 0.68 0.61 0.57 0.58 0.56 0.58 0.61 0.63 0.62 0.73 0.88 0.89 0.86 0.72 0.61 0.61 0.71 0.63 0.65 0.64 0.69 0.82 0.82 0.88
0.79 0.82 0.81 0.77 0.71 0.70 0.69 0.62 0.60 0.54 0.52 0.50 0.49 0.51 0.53 0.49 0.55 0.69 0.71 0.69 0.56 0.47 0.48 0.55 0.60 0.60 0.62 0.62 0.65 0.86 1.03 1.09 0.93 0.68 0.60 0.63 0.57 0.59 0.65 0.71 0.79 0.87 0.87
0.64 0.63 0.59 0.56 0.53 0.50 0.51 0.49 0.48 0.41 0.42 0.43 0.45 0.48 0.54 0.52 0.60 0.72 0.66 0.63 0.56 0.47 0.47 0.45 0.44 0.45 0.44 0.48 0.59 0.73 1.10 1.41 1.13 0.82 0.55 0.67 0.69 0.76 0.95 0.73 0.73 0.80 0.84

GEFSMA_prec_meanprecacc_198.txt.gz
Total_Precipitation_Accumulation
0.64 0.58 0.51 0.47 0.41 0.39 0.38 0.40 0.37 0.33 0.29 0.29 0.26 0.21 0.20 0.18 0.18 0.19 0.20 0.22 0.17 0.19 0.27 0.36 0.40 0.42 0.46 0.51 0.52 0.49 0.45 0.44 0.41 0.37 0.35 0.34 0.33 0.32 0.33 0.35 0.36 0.36 0.38
0.73 0.68 0.56 0.51 0.46 0.42 0.42 0.45 0.47 0.41 0.34 0.31 0.29 0.26 0.23 0.20 0.18 0.17 0.17 0.20 0.19 0.21 0.25 0.33 0.42 0.53 0.61 0.67 0.66 0.62 0.56 0.50 0.45 0.42 0.40 0.40 0.38 0.37 0.37 0.37 0.38 0.38 0.39
0.83 0.80 0.72 0.58 0.50 0.51 0.49 0.50 0.53 0.54 0.47 0.37 0.32 0.30 0.28 0.26 0.22 0.19 0.18 0.17 0.16 0.16 0.20 0.30 0.39 0.47 0.56 0.66 0.74 0.73 0.67 0.59 0.51 0.46 0.44 0.44 0.44 0.43 0.44 0.45 0.46 0.46 0.46
0.88 0.89 0.83 0.78 0.69 0.63 0.60 0.59 0.56 0.52 0.47 0.40 0.34 0.32 0.31 0.31 0.28 0.27 0.25 0.21 0.16 0.13 0.14 0.22 0.30 0.36 0.44 0.55 0.67 0.77 0.78 0.71 0.61 0.53 0.52 0.55 0.54 0.53 0.54 0.56 0.55 0.54 0.55
1.03 1.01 0.91 0.90 0.93 0.84 0.73 0.68 0.65 0.59 0.53 0.48 0.44 0.42 0.40 0.35 0.32 0.29 0.26 0.22 0.21 0.19 0.17 0.18 0.22 0.27 0.32 0.42 0.52 0.68 0.82 0.82 0.76 0.69 0.64 0.63 0.65 0.66 0.68 0.70 0.69 0.69 0.71
1.21 1.13 1.06 1.02 1.05 0.99 0.87 0.79 0.72 0.67 0.59 0.58 0.58 0.51 0.45 0.38 0.36 0.34 0.30 0.27 0.25 0.26 0.28 0.28 0.28 0.28 0.30 0.33 0.42 0.54 0.73 0.87 0.89 0.81 0.75 0.72 0.74 0.78 0.82 0.87 0.87 0.88 0.90
1.42 1.26 1.15 1.12 1.13 1.10 0.99 0.93 0.88 0.78 0.72 0.72 0.69 0.57 0.46 0.40 0.35 0.31 0.33 0.34 0.31 0.28 0.30 0.34 0.36 0.35 0.29 0.28 0.32 0.39 0.53 0.74 0.91 0.94 0.89 0.85 0.85 0.91 1.01 1.10 1.10 1.09 1.12
1.56 1.40 1.25 1.20 1.18 1.16 1.07 1.01 1.05 1.02 0.92 0.88 0.86 0.84 0.69 0.54 0.40 0.34 0.34 0.34 0.33 0.33 0.32 0.31 0.33 0.34 0.36 0.32 0.30 0.32 0.37 0.52 0.77 0.99 1.10 1.10 1.08 1.09 1.18 1.31 1.36 1.41 1.46
1.76 1.59 1.42 1.38 1.34 1.33 1.26 1.17 1.14 1.12 1.11 1.06 1.07 1.16 0.99 0.73 0.52 0.41 0.38 0.37 0.37 0.37 0.35 0.36 0.35 0.36 0.37 0.36 0.37 0.36 0.38 0.46 0.69 0.96 1.21 1.33 1.34 1.38 1.52 1.65 1.71 1.80 1.82
1.88 1.85 1.74 1.60 1.52 1.48 1.43 1.48 1.49 1.38 1.31 1.18 1.10 1.06 1.05 0.88 0.82 0.63 0.45 0.42 0.41 0.39 0.38 0.37 0.37 0.37 0.37 0.40 0.43 0.47 0.51 0.56 0.71 1.00 1.29 1.51 1.65 1.79 1.98 2.09 2.17 2.25 2.17
1.75 1.85 1.84 1.73 1.58 1.47 1.39 1.43 1.50 1.53 1.42 1.30 1.21 1.15 1.11 1.00 0.90 0.87 0.66 0.49 0.46 0.43 0.43 0.45 0.47 0.50 0.51 0.52 0.56 0.63 0.70 0.75 0.89 1.11 1.45 1.79 2.02 2.22 2.42 2.56 2.62 2.63 2.57
1.59 1.63 1.69 1.62 1.58 1.51 1.43 1.43 1.50 1.57 1.55 1.47 1.35 1.24 1.19 1.12 0.98 0.99 0.92 0.71 0.63 0.56 0.55 0.58 0.61 0.64 0.64 0.64 0.66 0.77 0.84 0.90 1.03 1.21 1.56 1.94 2.20 2.35 2.51 2.78 2.93 2.93 2.92
1.52 1.56 1.66 1.60 1.56 1.51 1.49 1.48 1.48 1.44 1.46 1.45 1.36 1.28 1.19 1.12 1.06 1.13 1.17 1.01 0.85 0.71 0.69 0.71 0.70 0.72 0.72 0.73 0.75 0.86 0.86 0.91 0.97 1.11 1.42 1.78 1.93 1.99 2.09 2.32 2.58 2.72 2.81
1.39 1.43 1.55 1.59 1.56 1.54 1.49 1.46 1.41 1.35 1.33 1.33 1.28 1.22 1.15 1.07 1.05 1.11 1.21 1.30 1.23 1.00 0.84 0.78 0.78 0.80 0.81 0.82 0.84 0.93 0.82 0.94 0.98 1.05 1.22 1.39 1.42 1.37 1.42 1.61 1.86 2.08 2.25
1.27 1.25 1.29 1.36 1.41 1.41 1.40 1.40 1.35 1.25 1.20 1.18 1.15 1.10 1.05 0.98 0.95 0.99 1.10 1.27 1.48 1.40 1.09 0.87 0.84 0.83 0.86 0.86 0.92 0.86 0.76 0.91 0.97 0.97 1.01 1.06 1.05 1.03 1.07 1.20 1.44 1.68 1.84
1.03 1.05 1.09 1.12 1.15 1.19 1.22 1.28 1.27 1.20 1.17 1.10 1.07 1.06 1.01 0.96 0.96 0.99 1.06 1.15 1.29 1.41 1.27 0.93 0.79 0.75 0.78 0.80 0.88 0.79 0.74 0.90 0.90 0.91 0.92 0.92 0.93 0.97 1.02 1.09 1.22 1.39 1.62
0.83 0.86 0.92 0.99 1.02 1.03 1.04 1.10 1.17 1.17 1.14 1.08 1.03 1.01 0.98 0.94 0.94 0.95 0.99 1.05 1.11 1.20 1.20 0.94 0.77 0.74 0.76 0.76 0.79 0.77 0.73 0.71 0.70 0.80 0.81 0.81 0.83 0.89 0.98 1.04 1.10 1.20 1.39
0.68 0.68 0.69 0.77 0.83 0.86 0.88 0.90 0.94 0.99 1.02 1.01 1.00 1.01 1.02 1.02 1.04 1.04 1.05 1.04 1.04 1.04 1.08 0.99 0.80 0.71 0.66 0.64 0.64 0.67 0.69 0.68 0.64 0.75 0.77 0.75 0.79 0.85 0.94 0.97 0.99 1.07 1.17
0.67 0.69 0.64 0.63 0.67 0.71 0.77 0.79 0.78 0.82 0.87 0.90 0.91 0.95 0.99 1.04 1.10 1.10 1.08 1.04 1.00 0.96 0.97 0.98 0.85 0.71 0.65 0.61 0.63 0.64 0.65 0.65 0.62 0.68 0.72 0.72 0.75 0.79 0.85 0.94 0.98 0.98 1.00
0.61 0.62 0.64 0.62 0.62 0.64 0.71 0.78 0.81 0.82 0.86 0.90 0.92 0.94 0.95 0.96 0.96 0.96 0.95 0.92 0.93 0.93 0.93 0.96 0.91 0.79 0.69 0.63 0.67 0.74 0.73 0.65 0.61 0.56 0.61 0.62 0.65 0.67 0.70 0.77 0.85 0.87 0.89
0.57 0.59 0.61 0.63 0.63 0.65 0.71 0.79 0.86 0.87 0.90 0.94 0.97 0.96 0.92 0.89 0.83 0.81 0.81 0.81 0.80 0.86 0.95 0.99 0.94 0.83 0.72 0.68 0.68 0.66 0.72 0.70 0.64 0.58 0.55 0.54 0.54 0.53 0.55 0.62 0.72 0.85 0.95
0.57 0.61 0.66 0.72 0.75 0.80 0.95 0.99 0.96 0.94 0.93 0.90 0.87 0.83 0.82 0.82 0.79 0.81 0.80 0.80 0.84 0.94 1.04 1.04 0.92 0.76 0.60 0.55 0.60 0.71 0.82 0.87 0.78 0.57 0.56 0.58 0.58 0.60 0.57 0.60 0.75 0.87 1.00
0.68 0.74 0.78 0.87 0.90 0.93 0.99 0.92 0.90 0.86 0.89 0.86 0.79 0.73 0.69 0.65 0.67 0.62 0.69 0.75 0.77 0.83 0.88 0.87 0.81 0.66 0.59 0.58 0.74 0.91 0.90 0.86 0.71 0.53 0.57 0.64 0.60 0.64 0.64 0.70 0.83 0.87 1.00
0.80 0.86 0.86 0.88 0.90 0.90 0.89 0.82 0.80 0.70 0.68 0.68 0.65 0.61 0.56 0.55 0.56 0.59 0.65 0.72 0.64 0.59 0.60 0.57 0.59 0.62 0.64 0.63 0.73 0.88 0.89 0.86 0.72 0.61 0.61 0.71 0.63 0.65 0.64 0.69 0.82 0.82 0.88
0.82 0.84 0.83 0.79 0.73 0.71 0.71 0.64 0.61 0.56 0.55 0.53 0.53 0.55 0.57 0.52 0.59 0.73 0.75 0.72 0.60 0.49 0.51 0.57 0.62 0.62 0.64 0.63 0.66 0.87 1.03 1.10 0.93 0.68 0.60 0.63 0.57 0.59 0.65 0.71 0.79 0.87 0.87
0.69 0.66 0.62 0.58 0.55 0.51 0.53 0.51 0.49 0.43 0.45 0.46 0.48 0.52 0.59 0.57 0.66 0.77 0.69 0.66 0.59 0.50 0.50 0.48 0.47 0.47 0.46 0.49 0.60 0.74 1.10 1.41 1.14 0.82 0.55 0.67 0.69 0.76 0.96 0.73 0.73 0.80 0.84

GEFSMA_prec_meanprecacc_204.txt.gz
Total_Precipitation_Accumulation
0.67 0.62 0.57 0.52 0.44 0.42 0.41 0.43 0.39 0.37 0.36 0.33 0.28 0.22 0.21 0.19 0.18 0.19 0.21 0.22 0.18 0.20 0.29 0.38 0.43 0.45 0.48 0.53 0.55 0.53 0.51 0.49 0.45 0.40 0.38 0.37 0.35 0.35 0.36 0.38 0.40 0.40 0.44
0.77 0.71 0.61 0.54 0.48 0.45 0.45 0.47 0.48 0.45 0.40 0.37 0.32 0.28 0.24 0.21 0.18 0.17 0.18 0.20 0.20 0.21 0.26 0.36 0.46 0.57 0.64 0.70 0.71 0.66 0.60 0.55 0.48 0.45 0.43 0.43 0.41 0.41 0.41 0.40 0.41 0.41 0.42
0.86 0.84 0.76 0.62 0.53 0.54 0.52 0.53 0.55 0.57 0.52 0.44 0.36 0.33 0.30 0.27 0.22 0.19 0.19 0.17 0.16 0.16 0.20 0.32 0.43 0.52 0.60 0.70 0.80 0.80 0.70 0.62 0.55 0.49 0.46 0.47 0.46 0.46 0.47 0.49 0.50 0.49 0.49
0.92 0.93 0.88 0.83 0.72 0.66 0.63 0.62 0.59 0.55 0.52 0.46 0.40 0.34 0.34 0.33 0.29 0.28 0.27 0.22 0.17 0.13 0.15 0.23 0.31 0.38 0.46 0.59 0.74 0.87 0.83 0.76 0.66 0.56 0.54 0.56 0.56 0.55 0.57 0.59 0.59 0.59 0.58
1.11 1.08 0.98 0.95 0.97 0.87 0.76 0.71 0.68 0.62 0.58 0.54 0.49 0.46 0.42 0.37 0.33 0.31 0.28 0.23 0.21 0.20 0.18 0.19 0.22 0.27 0.34 0.45 0.57 0.76 0.89 0.89 0.81 0.71 0.66 0.64 0.66 0.68 0.71 0.74 0.74 0.74 0.75
1.32 1.22 1.15 1.10 1.11 1.04 0.91 0.82 0.75 0.71 0.65 0.64 0.63 0.55 0.48 0.40 0.38 0.36 0.32 0.28 0.26 0.27 0.29 0.29 0.29 0.29 0.32 0.37 0.48 0.60 0.77 0.93 0.94 0.84 0.76 0.72 0.75 0.79 0.84 0.90 0.92 0.93 0.95
1.54 1.38 1.24 1.20 1.21 1.15 1.04 0.97 0.92 0.82 0.78 0.80 0.77 0.62 0.51 0.44 0.37 0.33 0.35 0.36 0.33 0.30 0.31 0.35 0.38 0.36 0.31 0.31 0.38 0.45 0.57 0.76 0.94 0.98 0.91 0.85 0.85 0.92 1.01 1.12 1.15 1.15 1.16
1.67 1.53 1.37 1.29 1.26 1.22 1.12 1.06 1.10 1.07 0.98 0.96 0.94 0.90 0.74 0.57 0.43 0.37 0.37 0.36 0.35 0.35 0.33 0.32 0.33 0.36 0.37 0.34 0.33 0.36 0.40 0.55 0.80 1.03 1.14 1.12 1.09 1.10 1.19 1.33 1.41 1.48 1.51
1.87 1.71 1.55 1.48 1.42 1.39 1.31 1.22 1.19 1.17 1.16 1.13 1.14 1.21 1.03 0.77 0.55 0.43 0.40 0.39 0.39 0.38 0.37 0.37 0.36 0.37 0.39 0.37 0.38 0.38 0.40 0.47 0.70 1.01 1.29 1.37 1.36 1.40 1.54 1.68 1.77 1.87 1.88
1.97 1.94 1.82 1.68 1.58 1.52 1.46 1.53 1.55 1.45 1.37 1.24 1.17 1.12 1.08 0.91 0.85 0.65 0.47 0.44 0.43 0.41 0.40 0.38 0.38 0.39 0.39 0.41 0.44 0.48 0.53 0.57 0.72 1.02 1.35 1.58 1.67 1.81 2.01 2.13 2.23 2.31 2.23
1.83 1.91 1.90 1.79 1.62 1.49 1.41 1.45 1.54 1.59 1.49 1.38 1.29 1.21 1.16 1.03 0.93 0.91 0.69 0.52 0.49 0.45 0.45 0.46 0.48 0.51 0.53 0.53 0.57 0.65 0.73 0.77 0.91 1.14 1.48 1.83 2.06 2.24 2.45 2.60 2.66 2.67 2.61
1.68 1.71 1.74 1.67 1.63 1.54 1.44 1.44 1.52 1.59 1.60 1.54 1.43 1.31 1.24 1.16 1.00 1.01 0.95 0.74 0.66 0.58 0.57 0.59 0.63 0.66 0.67 0.67 0.68 0.80 0.87 0.93 1.05 1.24 1.58 1.96 2.22 2.38 2.54 2.81 2.97 2.96 2.96
1.63 1.65 1.73 1.66 1.62 1.55 1.51 1.50 1.50 1.45 1.49 1.50 1.43 1.35 1.25 1.15 1.09 1.15 1.19 1.04 0.88 0.75 0.74 0.74 0.74 0.74 0.74 0.76 0.79 0.90 0.88 0.93 0.98 1.13 1.45 1.80 1.95 2.01 2.12 2.35 2.61 2.76 2.85
1.47 1.51 1.62 1.66 1.63 1.60 1.55 1.51 1.47 1.40 1.38 1.40 1.36 1.29 1.21 1.11 1.08 1.13 1.23 1.32 1.26 1.03 0.88 0.83 0.82 0.83 0.85 0.84 0.87 0.96 0.85 0.97 1.00 1.07 1.25 1.41 1.44 1.40 1.44 1.63 1.88 2.11 2.29
1.31 1.30 1.35 1.43 1.47 1.48 1.48 1.49 1.45 1.35 1.29 1.27 1.23 1.19 1.13 1.04 0.99 1.03 1.13 1.29 1.51 1.44 1.12 0.91 0.88 0.86 0.89 0.89 0.95 0.88 0.78 0.94 0.99 0.99 1.04 1.08 1.06 1.04 1.08 1.21 1.45 1.70 1.86
1.07 1.09 1.14 1.17 1.22 1.26 1.30 1.37 1.37 1.32 1.29 1.22 1.18 1.15 1.11 1.05 1.03 1.04 1.09 1.18 1.31 1.44 1.30 0.95 0.82 0.77 0.80 0.82 0.91 0.81 0.75 0.92 0.92 0.92 0.93 0.93 0.94 0.98 1.02 1.10 1.23 1.40 1.63
0.85 0.88 0.95 1.02 1.06 1.08 1.09 1.16 1.24 1.25 1.23 1.17 1.13 1.11 1.08 1.03 1.04 1.02 1.05 1.10 1.15 1.23 1.24 0.97 0.80 0.77 0.79 0.78 0.81 0.79 0.75 0.72 0.71 0.81 0.82 0.82 0.83 0.89 0.98 1.05 1.11 1.21 1.40
0.70 0.69 0.70 0.78 0.85 0.88 0.90 0.94 0.98 1.03 1.07 1.06 1.05 1.08 1.09 1.09 1.12 1.13 1.13 1.12 1.09 1.09 1.11 1.02 0.83 0.73 0.68 0.65 0.65 0.68 0.69 0.69 0.64 0.75 0.77 0.76 0.80 0.85 0.94 0.97 1.00 1.07 1.18
0.69 0.71 0.65 0.64 0.68 0.72 0.78 0.81 0.81 0.85 0.90 0.93 0.95 1.00 1.03 1.09 1.15 1.16 1.14 1.10 1.05 1.01 1.00 1.01 0.87 0.73 0.67 0.62 0.64 0.65 0.66 0.65 0.62 0.68 0.72 0.72 0.75 0.80 0.85 0.94 0.98 0.98 1.00
0.63 0.63 0.65 0.64 0.63 0.65 0.72 0.79 0.82 0.83 0.88 0.92 0.94 0.96 0.97 0.98 0.98 0.98 0.97 0.95 0.96 0.97 0.96 0.98 0.93 0.80 0.71 0.66 0.69 0.76 0.74 0.65 0.61 0.56 0.62 0.62 0.65 0.67 0.70 0.77 0.85 0.87 0.89
0.58 0.60 0.62 0.63 0.64 0.66 0.72 0.80 0.86 0.88 0.90 0.95 0.98 0.97 0.93 0.90 0.84 0.83 0.83 0.82 0.82 0.89 0.97 1.01 0.95 0.84 0.74 0.70 0.69 0.68 0.73 0.70 0.65 0.58 0.55 0.54 0.54 0.53 0.55 0.62 0.72 0.85 0.95
0.58 0.62 0.67 0.73 0.76 0.81 0.96 1.00 0.96 0.95 0.94 0.91 0.88 0.85 0.83 0.83 0.80 0.82 0.82 0.81 0.86 0.95 1.06 1.05 0.93 0.77 0.61 0.56 0.61 0.72 0.83 0.88 0.78 0.57 0.56 0.58 0.58 0.60 0.57 0.60 0.75 0.87 1.00
0.70 0.76 0.79 0.88 0.91 0.94 0.99 0.92 0.91 0.87 0.89 0.87 0.80 0.74 0.71 0.66 0.68 0.63 0.70 0.76 0.78 0.84 0.88 0.88 0.82 0.67 0.60 0.59 0.75 0.92 0.91 0.87 0.71 0.53 0.57 0.64 0.61 0.64 0.64 0.70 0.83 0.87 1.00
0.82 0.88 0.87 0.89 0.91 0.91 0.90 0.83 0.81 0.71 0.69 0.69 0.67 0.62 0.58 0.57 0.57 0.61 0.67 0.74 0.65 0.60 0.61 0.58 0.59 0.63 0.64 0.64 0.74 0.90 0.91 0.88 0.73 0.62 0.61 0.71 0.63 0.65 0.64 0.69 0.82 0.82 0.88
0.84 0.86 0.84 0.80 0.74 0.72 0.72 0.65 0.63 0.57 0.56 0.54 0.54 0.56 0.58 0.54 0.61 0.75 0.77 0.75 0.62 0.51 0.53 0.59 0.63 0.63 0.65 0.64 0.67 0.88 1.05 1.11 0.95 0.69 0.60 0.63 0.57 0.60 0.66 0.71 0.79 0.87 0.88
0.70 0.68 0.64 0.60 0.56 0.53 0.55 0.52 0.51 0.45 0.46 0.47 0.49 0.53 0.60 0.59 0.67 0.78 0.71 0.69 0.62 0.53 0.52 0.50 0.48 0.49 0.47 0.51 0.62 0.75 1.11 1.43 1.16 0.83 0.55 0.68 0.70 0.77 0.96 0.73 0.73 0.80 0.84

GEFSMA_prec_meanprecacc_210.txt.gz
Total_Precipitation_Accumulation
0.71 0.65 0.59 0.54 0.46 0.44 0.43 0.45 0.41 0.39 0.38 0.35 0.31 0.26 0.23 0.21 0.19 0.20 0.21 0.22 0.19 0.20 0.30 0.39 0.43 0.45 0.48 0.53 0.56 0.55 0.53 0.51 0.47 0.42 0.39 0.38 0.37 0.37 0.39 0.41 0.43 0.43 0.45
0.80 0.75 0.65 0.57 0.50 0.46 0.46 0.49 0.50 0.47 0.43 0.39 0.34 0.30 0.26 0.24 0.20 0.19 0.20 0.21 0.20 0.21 0.27 0.37 0.48 0.58 0.65 0.71 0.72 0.68 0.62 0.58 0.52 0.47 0.46 0.45 0.44 0.42 0.44 0.43 0.43 0.43 0.44
0.90 0.88 0.81 0.66 0.55 0.56 0.54 0.54 0.57 0.60 0.55 0.47 0.40 0.35 0.33 0.30 0.26 0.22 0.22 0.20 0.17 0.16 0.21 0.33 0.45 0.53 0.62 0.72 0.83 0.85 0.74 0.66 0.59 0.54 0.51 0.51 0.50 0.48 0.48 0.50 0.52 0.51 0.51
0.95 0.98 0.93 0.87 0.76 0.70 0.67 0.64 0.60 0.57 0.54 0.48 0.43 0.39 0.37 0.36 0.33 0.32 0.31 0.25 0.19 0.14 0.16 0.23 0.32 0.39 0.48 0.61 0.77 0.93 0.88 0.80 0.70 0.62 0.59 0.60 0.59 0.57 0.58 0.60 0.60 0.61 0.61
1.14 1.13 1.03 1.00 1.01 0.92 0.81 0.76 0.71 0.63 0.60 0.56 0.52 0.51 0.46 0.41 0.38 0.37 0.34 0.27 0.25 0.22 0.19 0.19 0.23 0.27 0.34 0.46 0.59 0.79 0.92 0.93 0.86 0.77 0.70 0.68 0.69 0.69 0.72 0.74 0.74 0.75 0.77
1.37 1.28 1.21 1.14 1.16 1.09 0.97 0.88 0.79 0.73 0.67 0.67 0.66 0.59 0.53 0.44 0.41 0.39 0.36 0.33 0.30 0.30 0.30 0.30 0.29 0.29 0.32 0.37 0.50 0.64 0.81 0.97 0.99 0.88 0.79 0.76 0.77 0.80 0.86 0.91 0.93 0.93 0.96
1.60 1.45 1.31 1.27 1.26 1.20 1.09 1.04 0.97 0.86 0.81 0.84 0.81 0.66 0.55 0.48 0.40 0.36 0.39 0.41 0.38 0.33 0.34 0.37 0.39 0.37 0.32 0.32 0.40 0.51 0.62 0.81 0.98 1.01 0.94 0.87 0.87 0.93 1.03 1.13 1.16 1.15 1.17
1.78 1.62 1.44 1.37 1.33 1.29 1.18 1.12 1.17 1.13 1.03 1.01 1.00 0.96 0.79 0.63 0.48 0.40 0.40 0.41 0.41 0.42 0.38 0.35 0.35 0.37 0.38 0.35 0.34 0.38 0.43 0.58 0.82 1.06 1.16 1.14 1.11 1.12 1.20 1.34 1.42 1.48 1.51
2.00 1.82 1.64 1.57 1.51 1.48 1.39 1.29 1.26 1.25 1.24 1.20 1.20 1.28 1.10 0.82 0.58 0.46 0.43 0.43 0.44 0.48 0.48 0.42 0.38 0.39 0.39 0.38 0.39 0.39 0.40 0.49 0.72 1.03 1.31 1.40 1.39 1.43 1.57 1.71 1.79 1.89 1.89
2.07 2.03 1.92 1.76 1.66 1.61 1.55 1.62 1.63 1.52 1.44 1.32 1.23 1.17 1.13 0.97 0.90 0.68 0.49 0.47 0.47 0.47 0.51 0.49 0.44 0.42 0.40 0.42 0.45 0.50 0.54 0.59 0.74 1.05 1.38 1.62 1.72 1.85 2.04 2.16 2.26 2.33 2.24
1.93 2.00 1.98 1.87 1.68 1.56 1.48 1.52 1.60 1.64 1.53 1.42 1.34 1.26 1.21 1.08 0.98 0.95 0.72 0.54 0.51 0.48 0.49 0.52 0.55 0.57 0.57 0.55 0.58 0.66 0.75 0.79 0.93 1.17 1.52 1.87 2.12 2.29 2.49 2.62 2.68 2.70 2.63
1.78 1.78 1.81 1.74 1.69 1.59 1.49 1.48 1.57 1.64 1.63 1.57 1.46 1.34 1.27 1.20 1.04 1.05 0.98 0.77 0.68 0.60 0.60 0.63 0.67 0.71 0.72 0.70 0.70 0.81 0.88 0.94 1.07 1.27 1.61 1.99 2.26 2.42 2.57 2.83 2.98 2.98 2.97
1.68 1.71 1.79 1.72 1.67 1.60 1.56 1.54 1.54 1.51 1.53 1.53 1.46 1.37 1.26 1.17 1.11 1.18 1.22 1.06 0.90 0.77 0.76 0.77 0.78 0.78 0.77 0.79 0.82 0.92 0.90 0.94 1.00 1.17 1.48 1.83 1.97 2.03 2.14 2.36 2.62 2.78 2.87
1.50 1.54 1.67 1.71 1.68 1.65 1.60 1.57 1.52 1.45 1.42 1.43 1.38 1.31 1.23 1.12 1.09 1.15 1.25 1.35 1.29 1.05 0.90 0.85 0.85 0.87 0.88 0.87 0.90 1.00 0.87 0.99 1.02 1.11 1.28 1.44 1.46 1.43 1.47 1.65 1.90 2.13 2.31
1.33 1.33 1.39 1.47 1.52 1.53 1.53 1.54 1.52 1.42 1.34 1.32 1.27 1.22 1.15 1.06 1.01 1.04 1.15 1.32 1.54 1.47 1.15 0.93 0.90 0.89 0.92 0.92 0.97 0.90 0.79 0.96 1.02 1.02 1.06 1.11 1.09 1.07 1.11 1.24 1.47 1.71 1.87
1.10 1.11 1.16 1.20 1.26 1.30 1.34 1.42 1.43 1.39 1.36 1.28 1.23 1.19 1.14 1.08 1.05 1.06 1.11 1.20 1.34 1.47 1.32 0.97 0.84 0.80 0.83 0.85 0.93 0.83 0.77 0.94 0.94 0.94 0.95 0.94 0.95 0.99 1.03 1.12 1.25 1.41 1.64
0.88 0.91 0.97 1.04 1.09 1.11 1.13 1.20 1.28 1.31 1.30 1.24 1.19 1.16 1.13 1.07 1.07 1.05 1.07 1.12 1.17 1.25 1.26 0.98 0.81 0.78 0.80 0.81 0.84 0.82 0.77 0.74 0.72 0.82 0.83 0.83 0.84 0.90 0.99 1.05 1.11 1.22 1.40
0.71 0.70 0.72 0.79 0.86 0.89 0.92 0.96 1.01 1.08 1.12 1.11 1.11 1.13 1.13 1.14 1.17 1.17 1.17 1.15 1.13 1.12 1.14 1.04 0.85 0.75 0.70 0.67 0.67 0.70 0.71 0.70 0.65 0.76 0.78 0.77 0.80 0.86 0.94 0.98 1.00 1.07 1.18
0.71 0.73 0.67 0.65 0.69 0.73 0.79 0.82 0.82 0.87 0.93 0.97 0.99 1.03 1.08 1.13 1.20 1.20 1.19 1.15 1.10 1.05 1.05 1.05 0.91 0.76 0.69 0.65 0.66 0.67 0.68 0.67 0.63 0.69 0.73 0.73 0.76 0.80 0.85 0.94 0.98 0.98 1.00
0.66 0.67 0.69 0.66 0.65 0.67 0.73 0.80 0.83 0.84 0.90 0.94 0.96 0.98 0.99 1.01 1.01 1.02 1.02 1.00 1.01 1.01 1.00 1.02 0.96 0.83 0.73 0.68 0.72 0.78 0.76 0.67 0.63 0.57 0.63 0.63 0.65 0.67 0.70 0.77 0.85 0.88 0.89
0.61 0.63 0.65 0.67 0.67 0.68 0.73 0.81 0.87 0.89 0.92 0.97 1.00 0.99 0.94 0.92 0.87 0.86 0.86 0.85 0.86 0.93 1.01 1.05 0.99 0.87 0.76 0.72 0.72 0.70 0.75 0.72 0.66 0.59 0.56 0.55 0.55 0.54 0.55 0.62 0.73 0.85 0.95
0.61 0.65 0.70 0.75 0.78 0.82 0.97 1.01 0.97 0.96 0.95 0.93 0.89 0.86 0.84 0.84 0.82 0.84 0.84 0.83 0.88 0.99 1.09 1.09 0.96 0.79 0.63 0.58 0.64 0.74 0.85 0.90 0.80 0.58 0.57 0.58 0.58 0.60 0.57 0.61 0.76 0.88 1.01
0.72 0.78 0.81 0.90 0.93 0.95 1.00 0.93 0.92 0.88 0.91 0.88 0.81 0.75 0.71 0.67 0.69 0.65 0.72 0.78 0.80 0.86 0.92 0.91 0.84 0.69 0.62 0.61 0.77 0.94 0.93 0.89 0.72 0.54 0.58 0.65 0.61 0.65 0.64 0.70 0.84 0.87 1.00
0.83 0.89 0.88 0.90 0.92 0.93 0.92 0.84 0.82 0.72 0.70 0.70 0.68 0.63 0.59 0.58 0.59 0.62 0.69 0.76 0.67 0.62 0.63 0.60 0.61 0.65 0.66 0.65 0.76 0.91 0.92 0.89 0.74 0.63 0.62 0.73 0.64 0.65 0.64 0.70 0.83 0.82 0.88
0.85 0.87 0.86 0.82 0.76 0.73 0.73 0.66 0.64 0.58 0.57 0.55 0.55 0.57 0.59 0.55 0.63 0.77 0.79 0.77 0.64 0.52 0.54 0.61 0.65 0.64 0.66 0.66 0.69 0.90 1.07 1.13 0.96 0.70 0.61 0.64 0.58 0.60 0.66 0.71 0.80 0.88 0.88
0.71 0.70 0.66 0.61 0.57 0.54 0.56 0.53 0.52 0.46 0.47 0.48 0.51 0.55 0.62 0.60 0.69 0.81 0.74 0.71 0.64 0.54 0.53 0.51 0.50 0.49 0.48 0.52 0.63 0.77 1.13 1.45 1.18 0.85 0.56 0.69 0.71 0.78 0.97 0.74 0.73 0.80 0.85

GEFSMA_prec_meanprecacc_216.txt.gz
Total_Precipitation_Accumulation
0.74 0.66 0.60 0.55 0.48 0.46 0.45 0.45 0.42 0.39 0.38 0.36 0.32 0.27 0.24 0.22 0.20 0.21 0.22 0.23 0.21 0.23 0.31 0.41 0.45 0.47 0.50 0.56 0.58 0.57 0.55 0.53 0.49 0.44 0.40 0.40 0.38 0.38 0.40 0.43 0.44 0.45 0.47
0.84 0.78 0.66 0.58 0.51 0.48 0.48 0.51 0.52 0.48 0.43 0.40 0.35 0.33 0.29 0.25 0.22 0.21 0.22 0.23 0.22 0.23 0.29 0.40 0.50 0.59 0.67 0.73 0.74 0.69 0.64 0.59 0.56 0.54 0.51 0.50 0.46 0.44 0.45 0.44 0.44 0.44 0.45
0.93 0.92 0.83 0.68 0.57 0.58 0.56 0.57 0.59 0.61 0.57 0.48 0.41 0.38 0.36 0.32 0.28 0.25 0.24 0.23 0.20 0.19 0.24 0.36 0.48 0.55 0.63 0.74 0.85 0.87 0.75 0.66 0.60 0.58 0.59 0.59 0.55 0.51 0.49 0.50 0.52 0.52 0.52
0.99 1.01 0.95 0.90 0.79 0.74 0.71 0.68 0.63 0.59 0.56 0.50 0.45 0.41 0.40 0.39 0.35 0.33 0.34 0.28 0.22 0.17 0.19 0.27 0.35 0.41 0.50 0.62 0.79 0.95 0.89 0.81 0.71 0.65 0.65 0.65 0.63 0.59 0.59 0.60 0.60 0.61 0.61
1.18 1.17 1.07 1.03 1.05 0.97 0.87 0.80 0.74 0.66 0.61 0.57 0.54 0.53 0.50 0.45 0.40 0.38 0.35 0.29 0.27 0.25 0.23 0.23 0.26 0.30 0.35 0.48 0.62 0.82 0.95 0.95 0.87 0.79 0.72 0.70 0.71 0.72 0.74 0.75 0.75 0.76 0.77
1.42 1.34 1.27 1.20 1.21 1.15 1.03 0.94 0.84 0.77 0.70 0.69 0.67 0.61 0.56 0.48 0.45 0.42 0.37 0.34 0.32 0.33 0.35 0.35 0.34 0.32 0.33 0.39 0.51 0.66 0.85 1.02 1.01 0.90 0.81 0.77 0.79 0.82 0.88 0.93 0.93 0.94 0.96
1.66 1.51 1.40 1.36 1.34 1.27 1.15 1.09 1.03 0.91 0.86 0.88 0.84 0.69 0.57 0.51 0.45 0.40 0.41 0.42 0.39 0.36 0.37 0.43 0.46 0.42 0.34 0.33 0.41 0.53 0.65 0.84 1.00 1.03 0.95 0.89 0.89 0.95 1.05 1.15 1.17 1.16 1.18
1.89 1.70 1.53 1.48 1.44 1.39 1.26 1.20 1.23 1.19 1.07 1.06 1.05 1.00 0.82 0.65 0.50 0.44 0.44 0.43 0.42 0.44 0.41 0.39 0.39 0.41 0.41 0.36 0.35 0.39 0.45 0.60 0.85 1.08 1.18 1.16 1.13 1.14 1.24 1.37 1.44 1.49 1.52
2.11 1.94 1.75 1.68 1.61 1.59 1.50 1.41 1.36 1.33 1.30 1.25 1.25 1.35 1.16 0.87 0.63 0.51 0.50 0.47 0.46 0.49 0.51 0.48 0.45 0.43 0.42 0.39 0.40 0.41 0.42 0.51 0.75 1.06 1.33 1.42 1.41 1.45 1.62 1.76 1.83 1.91 1.91
2.13 2.12 2.01 1.87 1.77 1.71 1.65 1.72 1.74 1.62 1.52 1.39 1.30 1.23 1.20 1.04 0.97 0.75 0.56 0.54 0.50 0.49 0.53 0.55 0.52 0.49 0.44 0.44 0.46 0.51 0.55 0.60 0.76 1.07 1.41 1.65 1.74 1.88 2.11 2.25 2.32 2.37 2.27
1.99 2.07 2.07 1.95 1.77 1.64 1.56 1.61 1.69 1.73 1.61 1.48 1.38 1.30 1.25 1.11 1.02 1.00 0.79 0.62 0.57 0.51 0.51 0.55 0.60 0.62 0.61 0.59 0.60 0.67 0.75 0.80 0.95 1.19 1.54 1.90 2.14 2.32 2.54 2.74 2.78 2.76 2.66
1.84 1.84 1.88 1.83 1.78 1.66 1.55 1.55 1.65 1.71 1.69 1.62 1.50 1.37 1.30 1.22 1.06 1.07 1.02 0.83 0.75 0.65 0.62 0.65 0.69 0.73 0.74 0.73 0.72 0.83 0.89 0.95 1.08 1.29 1.64 2.02 2.29 2.46 2.62 2.92 3.09 3.05 3.00
1.73 1.76 1.85 1.80 1.79 1.71 1.64 1.61 1.61 1.58 1.59 1.57 1.49 1.40 1.28 1.18 1.11 1.19 1.23 1.08 0.94 0.80 0.78 0.78 0.79 0.79 0.79 0.81 0.83 0.94 0.92 0.96 1.02 1.19 1.51 1.85 2.00 2.08 2.21 2.42 2.70 2.84 2.90
1.56 1.59 1.72 1.77 1.77 1.76 1.71 1.66 1.61 1.53 1.50 1.49 1.43 1.35 1.25 1.13 1.10 1.16 1.26 1.36 1.31 1.07 0.91 0.86 0.85 0.87 0.89 0.89 0.92 1.01 0.90 1.03 1.05 1.14 1.31 1.47 1.49 1.46 1.56 1.72 1.93 2.15 2.33
1.39 1.38 1.43 1.52 1.58 1.60 1.61 1.62 1.60 1.50 1.43 1.40 1.34 1.28 1.21 1.09 1.03 1.05 1.15 1.32 1.55 1.48 1.16 0.94 0.91 0.90 0.93 0.93 0.99 0.92 0.81 0.99 1.05 1.06 1.09 1.13 1.11 1.10 1.20 1.33 1.50 1.72 1.88
1.14 1.15 1.20 1.25 1.31 1.35 1.39 1.47 1.48 1.44 1.42 1.34 1.30 1.26 1.20 1.12 1.08 1.08 1.13 1.21 1.35 1.48 1.33 0.98 0.85 0.80 0.84 0.86 0.95 0.84 0.79 0.96 0.97 0.97 0.97 0.96 0.97 1.01 1.07 1.18 1.29 1.43 1.65
0.94 0.96 1.02 1.09 1.14 1.16 1.17 1.23 1.31 1.34 1.32 1.28 1.24 1.22 1.19 1.13 1.11 1.09 1.10 1.14 1.19 1.27 1.27 0.99 0.82 0.79 0.81 0.82 0.86 0.83 0.79 0.76 0.74 0.84 0.84 0.84 0.85 0.91 1.01 1.08 1.14 1.23 1.41
0.76 0.75 0.75 0.83 0.89 0.92 0.95 0.98 1.04 1.10 1.14 1.13 1.14 1.17 1.18 1.18 1.21 1.21 1.21 1.18 1.15 1.14 1.16 1.05 0.86 0.76 0.71 0.68 0.68 0.72 0.74 0.73 0.67 0.78 0.80 0.79 0.82 0.88 0.96 0.99 1.01 1.08 1.18
0.75 0.75 0.69 0.67 0.71 0.75 0.82 0.84 0.85 0.89 0.95 0.98 1.01 1.06 1.11 1.16 1.23 1.24 1.22 1.18 1.13 1.08 1.08 1.07 0.93 0.78 0.71 0.66 0.67 0.68 0.69 0.70 0.66 0.72 0.76 0.76 0.79 0.82 0.87 0.96 0.99 0.99 1.01
0.69 0.69 0.71 0.69 0.67 0.69 0.75 0.81 0.85 0.87 0.92 0.96 0.97 0.99 1.02 1.04 1.05 1.05 1.04 1.03 1.03 1.04 1.04 1.06 1.00 0.86 0.76 0.70 0.74 0.80 0.78 0.69 0.65 0.60 0.66 0.66 0.68 0.70 0.72 0.78 0.86 0.89 0.90
0.64 0.65 0.67 0.70 0.69 0.69 0.75 0.83 0.89 0.91 0.94 0.99 1.02 1.01 0.96 0.95 0.90 0.89 0.89 0.88 0.89 0.96 1.04 1.08 1.02 0.90 0.78 0.74 0.74 0.72 0.77 0.74 0.68 0.62 0.60 0.58 0.57 0.56 0.57 0.64 0.74 0.87 0.96
0.65 0.69 0.73 0.77 0.80 0.84 0.99 1.02 0.99 0.97 0.97 0.94 0.92 0.88 0.86 0.86 0.84 0.87 0.87 0.86 0.91 1.01 1.12 1.11 0.99 0.82 0.65 0.60 0.65 0.76 0.87 0.92 0.83 0.60 0.60 0.62 0.62 0.63 0.59 0.62 0.77 0.89 1.01
0.75 0.81 0.85 0.93 0.95 0.98 1.04 0.96 0.94 0.89 0.92 0.89 0.83 0.77 0.73 0.69 0.71 0.67 0.74 0.81 0.83 0.89 0.94 0.93 0.86 0.71 0.64 0.62 0.79 0.97 0.96 0.92 0.75 0.56 0.61 0.68 0.65 0.68 0.66 0.71 0.85 0.88 1.01
0.86 0.92 0.91 0.93 0.95 0.95 0.95 0.87 0.85 0.75 0.72 0.72 0.69 0.65 0.60 0.59 0.60 0.64 0.71 0.78 0.68 0.64 0.64 0.62 0.63 0.66 0.67 0.67 0.78 0.94 0.95 0.92 0.77 0.66 0.65 0.75 0.66 0.68 0.66 0.71 0.84 0.83 0.89
0.87 0.89 0.88 0.84 0.78 0.76 0.76 0.69 0.67 0.61 0.59 0.57 0.57 0.59 0.61 0.57 0.64 0.79 0.81 0.79 0.66 0.54 0.56 0.63 0.67 0.67 0.69 0.69 0.72 0.93 1.10 1.17 1.00 0.73 0.64 0.67 0.60 0.62 0.68 0.72 0.81 0.89 0.89
0.72 0.70 0.67 0.63 0.59 0.56 0.58 0.55 0.54 0.48 0.49 0.50 0.52 0.56 0.63 0.62 0.71 0.83 0.76 0.73 0.66 0.56 0.54 0.53 0.52 0.52 0.50 0.54 0.66 0.79 1.17 1.49 1.21 0.88 0.59 0.71 0.73 0.79 1.00 0.75 0.74 0.81 0.86

GEFSMA_prec_meanprecacc_222.txt.gz
Total_Precipitation_Accumulation
0.75 0.68 0.62 0.56 0.48 0.48 0.47 0.48 0.44 0.40 0.38 0.36 0.32 0.27 0.25 0.23 0.22 0.22 0.23 0.24 0.22 0.25 0.35 0.44 0.49 0.50 0.53 0.59 0.61 0.59 0.57 0.55 0.50 0.45 0.42 0.41 0.39 0.40 0.42 0.44 0.46 0.47 0.49
0.87 0.80 0.68 0.60 0.52 0.49 0.50 0.53 0.54 0.50 0.44 0.40 0.35 0.33 0.31 0.28 0.24 0.22 0.23 0.25 0.23 0.25 0.31 0.44 0.54 0.64 0.71 0.76 0.77 0.72 0.66 0.61 0.57 0.55 0.53 0.52 0.48 0.47 0.48 0.46 0.45 0.45 0.47
0.95 0.94 0.86 0.69 0.58 0.59 0.59 0.61 0.63 0.65 0.59 0.49 0.42 0.39 0.37 0.35 0.30 0.26 0.26 0.24 0.22 0.20 0.26 0.39 0.53 0.60 0.69 0.79 0.89 0.89 0.77 0.68 0.62 0.59 0.62 0.64 0.59 0.55 0.53 0.53 0.53 0.52 0.53
1.00 1.03 0.99 0.92 0.80 0.76 0.74 0.71 0.67 0.64 0.59 0.51 0.46 0.42 0.41 0.41 0.37 0.35 0.35 0.29 0.24 0.19 0.21 0.30 0.39 0.47 0.55 0.68 0.83 0.99 0.92 0.82 0.73 0.66 0.67 0.72 0.69 0.64 0.62 0.63 0.62 0.61 0.62
1.20 1.19 1.10 1.08 1.08 0.99 0.88 0.83 0.78 0.71 0.65 0.60 0.56 0.54 0.51 0.47 0.43 0.41 0.38 0.31 0.29 0.27 0.25 0.25 0.27 0.33 0.40 0.53 0.67 0.86 0.97 0.97 0.89 0.81 0.74 0.74 0.74 0.74 0.76 0.77 0.76 0.76 0.78
1.45 1.36 1.30 1.25 1.26 1.19 1.06 0.96 0.87 0.81 0.74 0.73 0.71 0.64 0.58 0.51 0.49 0.45 0.41 0.37 0.35 0.35 0.37 0.37 0.35 0.34 0.38 0.46 0.62 0.75 0.89 1.04 1.03 0.91 0.83 0.79 0.81 0.84 0.90 0.95 0.96 0.95 0.97
1.71 1.56 1.44 1.42 1.41 1.33 1.20 1.13 1.07 0.95 0.90 0.92 0.88 0.73 0.61 0.53 0.48 0.43 0.44 0.45 0.41 0.38 0.39 0.44 0.48 0.46 0.38 0.36 0.45 0.58 0.69 0.86 1.02 1.05 0.97 0.91 0.90 0.96 1.07 1.18 1.20 1.18 1.19
1.94 1.75 1.59 1.53 1.50 1.47 1.34 1.25 1.28 1.23 1.11 1.09 1.08 1.03 0.85 0.68 0.53 0.47 0.46 0.45 0.45 0.47 0.43 0.42 0.42 0.44 0.45 0.39 0.37 0.41 0.47 0.63 0.88 1.10 1.19 1.17 1.14 1.16 1.26 1.41 1.48 1.53 1.54
2.15 2.00 1.83 1.76 1.69 1.67 1.59 1.49 1.42 1.38 1.35 1.29 1.29 1.40 1.20 0.90 0.65 0.53 0.52 0.50 0.49 0.53 0.54 0.51 0.48 0.45 0.44 0.41 0.42 0.43 0.44 0.53 0.78 1.08 1.35 1.43 1.43 1.47 1.64 1.79 1.87 1.94 1.93
2.18 2.17 2.07 1.93 1.84 1.79 1.74 1.80 1.82 1.69 1.59 1.45 1.35 1.27 1.24 1.09 1.02 0.80 0.61 0.58 0.56 0.52 0.57 0.58 0.55 0.51 0.47 0.46 0.48 0.53 0.58 0.62 0.78 1.09 1.42 1.67 1.77 1.91 2.13 2.28 2.36 2.41 2.30
2.02 2.11 2.11 2.00 1.82 1.70 1.63 1.69 1.77 1.81 1.69 1.56 1.46 1.36 1.30 1.16 1.07 1.05 0.86 0.69 0.65 0.59 0.56 0.60 0.65 0.66 0.65 0.62 0.63 0.70 0.78 0.82 0.96 1.21 1.56 1.92 2.17 2.35 2.57 2.76 2.81 2.80 2.70
1.87 1.88 1.92 1.88 1.84 1.73 1.61 1.62 1.74 1.80 1.78 1.71 1.58 1.45 1.37 1.28 1.10 1.11 1.06 0.88 0.82 0.75 0.71 0.72 0.75 0.78 0.78 0.77 0.75 0.85 0.91 0.97 1.09 1.30 1.65 2.03 2.31 2.48 2.64 2.94 3.13 3.10 3.06
1.77 1.78 1.88 1.85 1.84 1.78 1.73 1.68 1.69 1.66 1.68 1.67 1.60 1.49 1.36 1.25 1.19 1.26 1.29 1.13 1.00 0.88 0.86 0.85 0.83 0.82 0.81 0.83 0.86 0.97 0.94 0.98 1.03 1.20 1.52 1.87 2.01 2.10 2.22 2.44 2.74 2.93 2.99
1.62 1.62 1.74 1.79 1.81 1.80 1.77 1.73 1.68 1.61 1.58 1.56 1.50 1.44 1.34 1.21 1.17 1.22 1.33 1.42 1.37 1.14 0.98 0.92 0.89 0.89 0.90 0.90 0.94 1.03 0.92 1.06 1.07 1.16 1.33 1.48 1.50 1.47 1.57 1.74 1.96 2.23 2.43
1.44 1.44 1.47 1.55 1.61 1.63 1.65 1.67 1.64 1.55 1.48 1.46 1.40 1.34 1.26 1.16 1.10 1.13 1.22 1.38 1.60 1.54 1.22 0.98 0.94 0.92 0.94 0.94 1.01 0.93 0.83 1.01 1.08 1.09 1.11 1.15 1.12 1.11 1.21 1.35 1.52 1.76 1.97
1.18 1.19 1.25 1.30 1.35 1.38 1.42 1.51 1.51 1.49 1.47 1.40 1.35 1.31 1.25 1.17 1.14 1.15 1.20 1.28 1.40 1.52 1.37 1.02 0.88 0.82 0.85 0.87 0.96 0.86 0.81 0.99 1.00 1.00 0.99 0.98 0.99 1.03 1.10 1.22 1.31 1.46 1.71
0.99 1.00 1.06 1.14 1.18 1.21 1.21 1.27 1.35 1.38 1.37 1.32 1.29 1.27 1.23 1.17 1.16 1.13 1.15 1.20 1.25 1.32 1.31 1.02 0.85 0.81 0.83 0.84 0.87 0.84 0.80 0.77 0.76 0.86 0.86 0.86 0.86 0.92 1.02 1.11 1.18 1.27 1.44
0.82 0.81 0.80 0.88 0.94 0.97 1.00 1.03 1.08 1.14 1.19 1.18 1.19 1.21 1.22 1.23 1.26 1.26 1.25 1.23 1.20 1.19 1.20 1.09 0.89 0.79 0.74 0.70 0.70 0.73 0.75 0.74 0.69 0.81 0.82 0.80 0.83 0.89 0.97 1.01 1.04 1.11 1.21
0.82 0.83 0.76 0.74 0.77 0.80 0.86 0.88 0.88 0.93 0.99 1.02 1.05 1.11 1.15 1.20 1.27 1.28 1.27 1.23 1.17 1.13 1.12 1.11 0.97 0.81 0.75 0.70 0.70 0.71 0.71 0.71 0.67 0.74 0.78 0.77 0.80 0.84 0.89 0.97 1.01 1.01 1.03
0.76 0.76 0.77 0.76 0.74 0.74 0.79 0.85 0.88 0.89 0.95 0.99 1.00 1.03 1.05 1.07 1.07 1.07 1.07 1.06 1.07 1.09 1.09 1.10 1.04 0.91 0.80 0.74 0.77 0.82 0.80 0.70 0.67 0.62 0.67 0.67 0.70 0.71 0.74 0.80 0.87 0.90 0.92
0.70 0.71 0.74 0.76 0.76 0.75 0.79 0.87 0.92 0.93 0.96 1.01 1.04 1.03 0.98 0.97 0.93 0.92 0.91 0.91 0.92 0.99 1.08 1.12 1.06 0.94 0.82 0.77 0.76 0.73 0.78 0.76 0.70 0.63 0.61 0.59 0.59 0.57 0.58 0.65 0.76 0.88 0.98
0.70 0.74 0.79 0.83 0.85 0.89 1.03 1.06 1.02 1.00 0.99 0.96 0.93 0.89 0.87 0.88 0.86 0.89 0.89 0.89 0.94 1.05 1.15 1.14 1.02 0.85 0.68 0.62 0.67 0.78 0.89 0.94 0.85 0.62 0.61 0.64 0.64 0.65 0.60 0.63 0.79 0.90 1.03
0.80 0.86 0.90 0.98 0.99 1.01 1.07 0.99 0.96 0.92 0.94 0.91 0.84 0.78 0.74 0.70 0.71 0.67 0.75 0.82 0.85 0.92 0.97 0.96 0.90 0.73 0.66 0.65 0.82 0.99 0.98 0.93 0.76 0.58 0.63 0.70 0.67 0.70 0.67 0.73 0.87 0.90 1.03
0.89 0.96 0.95 0.97 0.99 0.99 0.98 0.89 0.87 0.77 0.74 0.73 0.70 0.66 0.61 0.60 0.61 0.64 0.72 0.78 0.70 0.65 0.66 0.64 0.66 0.70 0.71 0.71 0.81 0.97 0.98 0.95 0.80 0.68 0.67 0.77 0.68 0.69 0.68 0.73 0.86 0.85 0.91
0.90 0.92 0.91 0.87 0.80 0.79 0.79 0.72 0.70 0.63 0.62 0.60 0.60 0.62 0.64 0.59 0.66 0.80 0.82 0.80 0.67 0.55 0.58 0.65 0.70 0.70 0.74 0.74 0.76 0.97 1.13 1.20 1.02 0.75 0.65 0.68 0.61 0.63 0.69 0.74 0.82 0.90 0.90
0.75 0.73 0.69 0.65 0.61 0.57 0.60 0.57 0.55 0.49 0.51 0.52 0.55 0.59 0.67 0.65 0.74 0.85 0.77 0.74 0.67 0.57 0.56 0.55 0.54 0.54 0.53 0.58 0.69 0.82 1.19 1.52 1.24 0.90 0.60 0.72 0.74 0.81 1.01 0.76 0.76 0.83 0.87

GEFSMA_prec_meanprecacc_228.txt.gz
Total_Precipitation_Accumulation
0.78 0.73 0.67 0.60 0.51 0.49 0.48 0.50 0.47 0.43 0.41 0.38 0.33 0.28 0.25 0.23 0.22 0.23 0.24 0.24 0.22 0.25 0.36 0.47 0.52 0.53 0.57 0.62 0.64 0.63 0.62 0.57 0.52 0.46 0.43 0.42 0.40 0.41 0.43 0.45 0.47 0.49 0.52
0.88 0.84 0.74 0.65 0.57 0.52 0.51 0.55 0.56 0.53 0.48 0.44 0.37 0.33 0.31 0.28 0.24 0.22 0.23 0.25 0.23 0.25 0.32 0.46 0.58 0.69 0.76 0.80 0.81 0.77 0.70 0.65 0.60 0.57 0.54 0.53 0.49 0.48 0.50 0.47 0.46 0.47 0.50
0.96 0.96 0.89 0.73 0.63 0.64 0.61 0.62 0.65 0.67 0.63 0.54 0.46 0.41 0.38 0.35 0.30 0.26 0.26 0.25 0.22 0.21 0.26 0.41 0.56 0.65 0.74 0.84 0.94 0.95 0.82 0.72 0.65 0.61 0.63 0.66 0.62 0.58 0.55 0.54 0.54 0.53 0.54
1.01 1.04 1.00 0.94 0.83 0.79 0.76 0.73 0.69 0.65 0.61 0.54 0.49 0.46 0.43 0.42 0.38 0.36 0.35 0.30 0.25 0.20 0.22 0.31 0.41 0.50 0.60 0.73 0.89 1.06 0.97 0.87 0.77 0.68 0.68 0.75 0.78 0.70 0.67 0.66 0.64 0.63 0.63
1.20 1.19 1.11 1.09 1.10 1.02 0.92 0.86 0.80 0.72 0.67 0.63 0.58 0.57 0.55 0.50 0.45 0.42 0.38 0.32 0.30 0.28 0.26 0.25 0.29 0.35 0.44 0.59 0.73 0.93 1.05 1.04 0.93 0.83 0.76 0.75 0.77 0.78 0.80 0.81 0.78 0.78 0.78
1.47 1.38 1.31 1.27 1.29 1.22 1.09 1.01 0.91 0.83 0.76 0.75 0.74 0.67 0.61 0.55 0.51 0.46 0.42 0.38 0.36 0.36 0.38 0.38 0.37 0.37 0.41 0.51 0.67 0.82 0.97 1.10 1.06 0.93 0.84 0.80 0.82 0.85 0.92 0.98 0.98 0.97 0.98
1.76 1.59 1.46 1.43 1.43 1.36 1.24 1.17 1.13 1.01 0.93 0.94 0.91 0.76 0.64 0.57 0.51 0.46 0.47 0.47 0.43 0.39 0.41 0.46 0.50 0.48 0.41 0.40 0.49 0.61 0.73 0.89 1.04 1.06 0.98 0.91 0.91 0.97 1.08 1.20 1.23 1.21 1.21
1.99 1.81 1.63 1.56 1.53 1.50 1.37 1.29 1.31 1.27 1.15 1.13 1.11 1.06 0.89 0.73 0.57 0.50 0.49 0.47 0.47 0.49 0.45 0.44 0.44 0.46 0.49 0.43 0.41 0.43 0.49 0.66 0.90 1.11 1.20 1.17 1.15 1.17 1.27 1.42 1.50 1.54 1.56
2.20 2.05 1.87 1.81 1.73 1.70 1.62 1.52 1.47 1.43 1.39 1.33 1.33 1.43 1.23 0.93 0.69 0.58 0.57 0.54 0.51 0.55 0.56 0.53 0.49 0.47 0.47 0.45 0.45 0.45 0.46 0.54 0.80 1.10 1.36 1.44 1.43 1.48 1.65 1.81 1.89 1.96 1.95
2.21 2.21 2.10 1.97 1.89 1.83 1.77 1.83 1.86 1.75 1.65 1.49 1.39 1.31 1.28 1.12 1.05 0.84 0.66 0.64 0.61 0.57 0.61 0.61 0.57 0.53 0.49 0.49 0.51 0.56 0.59 0.63 0.79 1.12 1.46 1.69 1.79 1.93 2.16 2.31 2.38 2.43 2.33
2.04 2.13 2.14 2.03 1.85 1.73 1.67 1.73 1.82 1.87 1.76 1.62 1.50 1.41 1.34 1.19 1.10 1.09 0.89 0.72 0.69 0.63 0.61 0.65 0.67 0.69 0.68 0.67 0.67 0.72 0.80 0.84 1.01 1.27 1.62 1.97 2.21 2.38 2.59 2.78 2.82 2.81 2.72
1.88 1.89 1.94 1.91 1.87 1.76 1.64 1.66 1.78 1.86 1.86 1.80 1.65 1.49 1.41 1.32 1.14 1.14 1.09 0.91 0.86 0.78 0.74 0.75 0.78 0.81 0.82 0.82 0.80 0.89 0.94 1.02 1.15 1.34 1.69 2.06 2.33 2.50 2.66 2.96 3.15 3.12 3.09
1.78 1.79 1.88 1.86 1.87 1.81 1.77 1.72 1.72 1.70 1.74 1.76 1.68 1.56 1.41 1.28 1.22 1.29 1.32 1.17 1.04 0.91 0.90 0.89 0.87 0.86 0.85 0.87 0.90 1.01 0.97 1.02 1.07 1.22 1.54 1.89 2.02 2.11 2.24 2.46 2.77 2.96 3.02
1.64 1.63 1.74 1.80 1.82 1.83 1.81 1.78 1.73 1.66 1.64 1.66 1.60 1.52 1.41 1.27 1.21 1.27 1.38 1.48 1.44 1.19 1.02 0.96 0.94 0.95 0.94 0.94 0.98 1.06 0.94 1.08 1.09 1.18 1.35 1.50 1.51 1.48 1.58 1.75 1.97 2.24 2.46
1.46 1.45 1.48 1.56 1.62 1.65 1.68 1.71 1.70 1.62 1.54 1.53 1.48 1.40 1.31 1.20 1.15 1.17 1.27 1.44 1.68 1.62 1.29 1.04 0.99 0.98 0.99 0.97 1.05 0.97 0.86 1.04 1.10 1.11 1.14 1.17 1.14 1.13 1.22 1.36 1.52 1.77 1.99
1.21 1.21 1.26 1.32 1.37 1.40 1.44 1.53 1.54 1.52 1.50 1.43 1.39 1.35 1.29 1.21 1.19 1.20 1.26 1.34 1.48 1.60 1.45 1.08 0.93 0.89 0.91 0.91 1.00 0.89 0.84 1.03 1.04 1.04 1.02 1.01 1.02 1.05 1.12 1.24 1.33 1.48 1.73
1.01 1.03 1.07 1.15 1.21 1.24 1.24 1.30 1.38 1.40 1.39 1.34 1.31 1.30 1.26 1.20 1.20 1.18 1.21 1.26 1.31 1.39 1.38 1.08 0.90 0.87 0.91 0.90 0.94 0.90 0.85 0.82 0.81 0.91 0.90 0.89 0.89 0.94 1.04 1.13 1.20 1.28 1.46
0.83 0.82 0.82 0.89 0.95 1.00 1.03 1.05 1.10 1.16 1.21 1.20 1.22 1.25 1.25 1.26 1.30 1.31 1.31 1.30 1.27 1.25 1.25 1.14 0.93 0.84 0.80 0.76 0.76 0.80 0.82 0.81 0.75 0.86 0.86 0.83 0.86 0.90 0.98 1.01 1.05 1.12 1.22
0.83 0.84 0.77 0.75 0.79 0.81 0.88 0.91 0.91 0.96 1.01 1.05 1.09 1.16 1.19 1.24 1.32 1.33 1.32 1.27 1.22 1.17 1.15 1.15 1.00 0.87 0.83 0.78 0.76 0.76 0.77 0.77 0.72 0.79 0.83 0.81 0.83 0.85 0.89 0.97 1.02 1.01 1.04
0.77 0.79 0.79 0.77 0.76 0.77 0.82 0.88 0.92 0.93 0.98 1.02 1.04 1.07 1.09 1.11 1.12 1.11 1.11 1.09 1.10 1.11 1.12 1.13 1.07 0.95 0.89 0.84 0.85 0.89 0.85 0.75 0.72 0.67 0.71 0.71 0.73 0.74 0.75 0.81 0.88 0.91 0.92
0.72 0.74 0.77 0.79 0.79 0.79 0.84 0.92 0.97 0.98 1.00 1.05 1.09 1.06 1.01 1.00 0.95 0.94 0.93 0.93 0.94 1.02 1.11 1.16 1.10 0.99 0.87 0.84 0.83 0.80 0.84 0.81 0.76 0.67 0.64 0.61 0.61 0.59 0.61 0.68 0.78 0.89 0.98
0.73 0.77 0.83 0.88 0.90 0.95 1.09 1.11 1.07 1.05 1.03 1.00 0.97 0.93 0.90 0.90 0.87 0.90 0.91 0.90 0.96 1.07 1.18 1.17 1.05 0.88 0.71 0.66 0.72 0.82 0.94 0.99 0.90 0.66 0.64 0.67 0.66 0.66 0.61 0.64 0.80 0.92 1.04
0.84 0.90 0.94 1.02 1.05 1.08 1.14 1.05 1.02 0.97 0.99 0.95 0.88 0.81 0.76 0.71 0.73 0.69 0.76 0.84 0.86 0.93 0.99 0.98 0.91 0.75 0.68 0.67 0.84 1.02 1.01 0.98 0.80 0.60 0.66 0.73 0.69 0.72 0.68 0.73 0.88 0.91 1.04
0.94 1.01 1.00 1.02 1.04 1.04 1.04 0.96 0.93 0.83 0.79 0.78 0.74 0.69 0.63 0.62 0.62 0.66 0.73 0.79 0.70 0.66 0.67 0.65 0.67 0.71 0.72 0.72 0.83 1.00 1.02 0.99 0.84 0.71 0.70 0.79 0.69 0.70 0.68 0.73 0.87 0.86 0.91
0.94 0.97 0.96 0.91 0.85 0.83 0.84 0.77 0.75 0.68 0.67 0.65 0.63 0.64 0.66 0.60 0.67 0.81 0.83 0.81 0.68 0.56 0.59 0.66 0.71 0.72 0.76 0.76 0.78 0.99 1.16 1.23 1.06 0.78 0.67 0.70 0.63 0.64 0.70 0.75 0.83 0.91 0.91
0.78 0.76 0.73 0.69 0.64 0.60 0.63 0.61 0.59 0.53 0.54 0.55 0.57 0.61 0.69 0.67 0.75 0.86 0.78 0.75 0.68 0.58 0.56 0.56 0.55 0.55 0.55 0.59 0.71 0.84 1.22 1.55 1.28 0.93 0.62 0.74 0.76 0.82 1.02 0.77 0.76 0.83 0.88

GEFSMA_prec_meanprecacc_234.txt.gz
Total_Precipitation_Accumulation
0.79 0.74 0.70 0.65 0.57 0.55 0.54 0.57 0.57 0.53 0.47 0.41 0.35 0.29 0.26 0.24 0.23 0.24 0.24 0.25 0.23 0.26 0.37 0.48 0.53 0.55 0.59 0.65 0.67 0.65 0.64 0.58 0.53 0.47 0.44 0.43 0.41 0.42 0.45 0.47 0.49 0.50 0.53
0.90 0.86 0.75 0.68 0.62 0.57 0.57 0.62 0.63 0.61 0.56 0.49 0.42 0.36 0.33 0.30 0.25 0.24 0.25 0.25 0.24 0.26 0.33 0.47 0.60 0.71 0.78 0.82 0.83 0.80 0.74 0.67 0.62 0.59 0.57 0.55 0.51 0.49 0.51 0.49 0.48 0.49 0.51
0.98 0.97 0.90 0.76 0.66 0.68 0.67 0.68 0.72 0.74 0.69 0.59 0.52 0.46 0.40 0.36 0.30 0.27 0.27 0.26 0.23 0.21 0.26 0.41 0.57 0.67 0.76 0.86 0.97 0.98 0.85 0.75 0.68 0.64 0.65 0.67 0.64 0.60 0.57 0.56 0.57 0.55 0.55
1.03 1.06 1.01 0.96 0.86 0.82 0.80 0.77 0.74 0.69 0.65 0.59 0.54 0.51 0.48 0.44 0.39 0.36 0.36 0.30 0.25 0.20 0.22 0.31 0.42 0.52 0.62 0.75 0.91 1.09 1.00 0.90 0.79 0.71 0.71 0.76 0.80 0.73 0.69 0.69 0.67 0.66 0.64
1.22 1.21 1.12 1.10 1.12 1.04 0.94 0.88 0.83 0.75 0.70 0.66 0.62 0.61 0.60 0.54 0.48 0.44 0.40 0.33 0.31 0.28 0.26 0.26 0.29 0.36 0.45 0.62 0.76 0.96 1.08 1.07 0.96 0.87 0.78 0.77 0.78 0.79 0.82 0.83 0.82 0.81 0.80
1.49 1.39 1.33 1.28 1.30 1.23 1.11 1.03 0.93 0.86 0.79 0.79 0.77 0.70 0.65 0.59 0.56 0.50 0.44 0.40 0.38 0.37 0.39 0.39 0.39 0.38 0.42 0.53 0.71 0.86 1.00 1.13 1.09 0.95 0.85 0.81 0.83 0.86 0.93 0.99 1.01 1.00 0.99
1.78 1.61 1.48 1.45 1.45 1.37 1.24 1.18 1.14 1.03 0.96 0.97 0.94 0.78 0.66 0.59 0.55 0.50 0.50 0.50 0.45 0.41 0.42 0.48 0.51 0.50 0.42 0.42 0.52 0.64 0.76 0.93 1.07 1.08 1.00 0.93 0.94 0.99 1.09 1.20 1.24 1.22 1.22
2.02 1.83 1.65 1.58 1.55 1.52 1.38 1.29 1.32 1.28 1.17 1.16 1.14 1.09 0.91 0.74 0.58 0.51 0.51 0.50 0.49 0.51 0.47 0.45 0.45 0.48 0.50 0.45 0.42 0.46 0.52 0.69 0.94 1.14 1.22 1.19 1.17 1.19 1.29 1.43 1.51 1.56 1.57
2.22 2.07 1.90 1.83 1.75 1.72 1.64 1.53 1.48 1.44 1.41 1.35 1.36 1.47 1.25 0.95 0.70 0.59 0.58 0.55 0.53 0.56 0.58 0.54 0.51 0.48 0.49 0.46 0.46 0.47 0.48 0.57 0.83 1.13 1.39 1.46 1.45 1.49 1.67 1.82 1.90 1.97 1.96
2.22 2.23 2.13 1.99 1.91 1.86 1.79 1.85 1.88 1.77 1.66 1.52 1.42 1.34 1.31 1.14 1.06 0.85 0.67 0.65 0.63 0.59 0.63 0.63 0.59 0.55 0.52 0.52 0.53 0.57 0.62 0.65 0.82 1.15 1.49 1.72 1.81 1.95 2.17 2.32 2.40 2.45 2.34
2.06 2.15 2.17 2.06 1.88 1.75 1.69 1.75 1.83 1.89 1.78 1.64 1.53 1.44 1.37 1.22 1.13 1.11 0.90 0.74 0.72 0.66 0.65 0.68 0.70 0.71 0.70 0.69 0.69 0.75 0.83 0.88 1.04 1.32 1.67 2.02 2.25 2.43 2.64 2.82 2.85 2.82 2.73
1.90 1.91 1.96 1.93 1.89 1.78 1.66 1.68 1.80 1.87 1.88 1.83 1.70 1.56 1.47 1.37 1.19 1.19 1.12 0.93 0.88 0.80 0.76 0.79 0.82 0.85 0.85 0.84 0.82 0.92 0.98 1.08 1.21 1.41 1.75 2.11 2.39 2.56 2.71 2.99 3.17 3.14 3.10
1.80 1.80 1.90 1.87 1.88 1.82 1.78 1.73 1.73 1.72 1.76 1.80 1.73 1.62 1.47 1.35 1.28 1.35 1.37 1.20 1.06 0.93 0.92 0.90 0.89 0.88 0.88 0.90 0.93 1.04 1.01 1.06 1.11 1.26 1.57 1.91 2.05 2.13 2.26 2.48 2.78 2.97 3.04
1.65 1.65 1.76 1.82 1.83 1.84 1.82 1.79 1.75 1.68 1.66 1.68 1.63 1.56 1.45 1.32 1.26 1.32 1.44 1.54 1.48 1.22 1.04 0.98 0.95 0.96 0.96 0.95 1.00 1.10 0.98 1.12 1.13 1.21 1.38 1.53 1.53 1.50 1.60 1.76 1.98 2.26 2.47
1.48 1.47 1.50 1.57 1.63 1.66 1.69 1.72 1.71 1.63 1.56 1.54 1.50 1.43 1.36 1.25 1.18 1.21 1.30 1.48 1.73 1.67 1.33 1.05 1.01 0.99 1.00 0.98 1.07 0.99 0.89 1.08 1.14 1.14 1.16 1.19 1.16 1.14 1.24 1.38 1.54 1.79 2.00
1.23 1.23 1.28 1.34 1.39 1.42 1.46 1.55 1.55 1.53 1.51 1.44 1.41 1.38 1.32 1.25 1.22 1.24 1.29 1.36 1.50 1.64 1.50 1.12 0.95 0.91 0.93 0.93 1.04 0.93 0.87 1.06 1.07 1.07 1.05 1.03 1.04 1.07 1.13 1.25 1.34 1.49 1.73
1.05 1.07 1.10 1.17 1.23 1.26 1.26 1.32 1.40 1.42 1.41 1.36 1.33 1.31 1.27 1.22 1.22 1.21 1.24 1.29 1.34 1.42 1.42 1.11 0.93 0.90 0.95 0.94 0.98 0.93 0.87 0.84 0.83 0.94 0.93 0.92 0.92 0.97 1.06 1.15 1.21 1.29 1.47
0.88 0.87 0.86 0.93 0.99 1.02 1.05 1.08 1.13 1.19 1.23 1.22 1.23 1.27 1.26 1.27 1.32 1.33 1.34 1.33 1.30 1.27 1.28 1.17 0.97 0.87 0.84 0.79 0.78 0.81 0.83 0.82 0.77 0.89 0.89 0.87 0.90 0.94 1.02 1.05 1.08 1.14 1.23
0.86 0.88 0.82 0.80 0.83 0.85 0.92 0.94 0.94 0.98 1.04 1.07 1.11 1.17 1.21 1.26 1.34 1.36 1.34 1.30 1.24 1.19 1.18 1.17 1.03 0.90 0.86 0.81 0.79 0.78 0.78 0.78 0.75 0.83 0.87 0.86 0.87 0.89 0.93 1.01 1.05 1.04 1.06
0.79 0.81 0.83 0.81 0.80 0.81 0.86 0.91 0.94 0.96 1.01 1.04 1.07 1.10 1.12 1.13 1.14 1.14 1.14 1.12 1.12 1.13 1.13 1.15 1.09 0.97 0.90 0.86 0.88 0.91 0.87 0.78 0.74 0.69 0.75 0.76 0.78 0.79 0.80 0.85 0.91 0.93 0.94
0.74 0.76 0.80 0.82 0.81 0.82 0.87 0.94 0.99 1.00 1.02 1.08 1.13 1.11 1.05 1.03 0.98 0.96 0.96 0.95 0.96 1.04 1.13 1.17 1.12 1.00 0.89 0.87 0.86 0.82 0.86 0.84 0.79 0.70 0.68 0.65 0.64 0.63 0.65 0.72 0.81 0.92 1.00
0.74 0.79 0.85 0.90 0.93 0.97 1.12 1.14 1.09 1.07 1.05 1.02 1.01 0.96 0.93 0.93 0.90 0.93 0.93 0.92 0.97 1.09 1.20 1.19 1.06 0.90 0.73 0.69 0.76 0.86 0.96 1.01 0.93 0.69 0.67 0.71 0.69 0.69 0.64 0.67 0.83 0.95 1.07
0.86 0.92 0.96 1.06 1.08 1.11 1.17 1.08 1.04 0.99 1.01 0.98 0.90 0.83 0.79 0.74 0.76 0.71 0.79 0.86 0.88 0.95 1.01 0.99 0.92 0.76 0.69 0.69 0.88 1.06 1.04 1.00 0.82 0.63 0.69 0.78 0.73 0.75 0.70 0.76 0.91 0.95 1.06
0.96 1.03 1.02 1.04 1.06 1.07 1.07 0.99 0.96 0.85 0.82 0.82 0.78 0.72 0.66 0.64 0.64 0.68 0.75 0.82 0.73 0.68 0.70 0.67 0.68 0.72 0.73 0.74 0.86 1.03 1.05 1.02 0.87 0.74 0.73 0.83 0.73 0.74 0.71 0.76 0.90 0.89 0.94
0.96 0.99 0.98 0.93 0.86 0.85 0.86 0.79 0.77 0.71 0.70 0.68 0.67 0.68 0.69 0.63 0.70 0.83 0.85 0.83 0.70 0.58 0.61 0.69 0.74 0.74 0.78 0.77 0.81 1.03 1.19 1.26 1.09 0.81 0.70 0.73 0.66 0.67 0.73 0.78 0.85 0.93 0.93
0.80 0.78 0.75 0.71 0.66 0.62 0.65 0.62 0.61 0.54 0.56 0.57 0.60 0.63 0.71 0.69 0.77 0.88 0.80 0.77 0.70 0.60 0.58 0.57 0.56 0.56 0.55 0.60 0.72 0.86 1.24 1.58 1.30 0.96 0.64 0.76 0.79 0.85 1.06 0.80 0.78 0.85 0.89

GEFSMA_prec_meanprecacc_240.txt.gz
Total_Precipitation_Accumulation
0.80 0.75 0.71 0.68 0.59 0.57 0.56 0.64 0.65 0.57 0.50 0.42 0.36 0.30 0.27 0.25 0.24 0.24 0.25 0.26 0.23 0.27 0.38 0.49 0.55 0.56 0.60 0.66 0.68 0.67 0.66 0.60 0.54 0.48 0.46 0.45 0.43 0.43 0.46 0.49 0.51 0.52 0.55
0.90 0.86 0.76 0.70 0.64 0.59 0.59 0.68 0.74 0.67 0.61 0.52 0.43 0.37 0.34 0.31 0.26 0.24 0.25 0.26 0.24 0.26 0.34 0.48 0.62 0.73 0.80 0.84 0.84 0.81 0.75 0.69 0.63 0.61 0.58 0.57 0.52 0.50 0.52 0.50 0.50 0.50 0.52
0.98 0.98 0.91 0.77 0.67 0.70 0.70 0.72 0.79 0.83 0.76 0.63 0.55 0.48 0.42 0.37 0.31 0.27 0.28 0.26 0.24 0.22 0.27 0.43 0.60 0.70 0.80 0.89 0.98 0.99 0.87 0.76 0.70 0.66 0.67 0.69 0.65 0.61 0.57 0.57 0.58 0.57 0.57
1.04 1.07 1.02 0.97 0.87 0.85 0.84 0.81 0.78 0.73 0.69 0.62 0.57 0.53 0.50 0.46 0.40 0.37 0.37 0.31 0.25 0.21 0.23 0.31 0.43 0.53 0.65 0.78 0.93 1.10 1.02 0.92 0.81 0.73 0.73 0.79 0.81 0.74 0.70 0.69 0.68 0.67 0.66
1.23 1.22 1.14 1.11 1.14 1.07 0.98 0.93 0.87 0.79 0.73 0.68 0.63 0.63 0.62 0.56 0.50 0.46 0.41 0.35 0.32 0.29 0.27 0.27 0.30 0.37 0.46 0.64 0.78 0.98 1.11 1.10 0.99 0.89 0.80 0.78 0.79 0.80 0.83 0.84 0.84 0.83 0.83
1.50 1.41 1.35 1.29 1.31 1.25 1.14 1.06 0.97 0.91 0.82 0.81 0.80 0.72 0.67 0.61 0.57 0.51 0.46 0.42 0.39 0.39 0.40 0.40 0.40 0.39 0.43 0.54 0.73 0.89 1.04 1.17 1.11 0.97 0.87 0.82 0.84 0.87 0.93 1.00 1.03 1.04 1.04
1.80 1.63 1.50 1.47 1.46 1.39 1.27 1.21 1.17 1.06 0.99 1.01 0.97 0.80 0.68 0.60 0.56 0.51 0.51 0.51 0.47 0.44 0.45 0.50 0.53 0.52 0.43 0.43 0.54 0.65 0.78 0.95 1.09 1.10 1.01 0.95 0.95 1.01 1.11 1.22 1.26 1.25 1.25
2.04 1.85 1.67 1.60 1.57 1.54 1.40 1.32 1.35 1.30 1.19 1.18 1.17 1.10 0.92 0.75 0.58 0.52 0.52 0.51 0.50 0.52 0.48 0.47 0.47 0.49 0.51 0.45 0.42 0.47 0.53 0.70 0.95 1.17 1.25 1.21 1.19 1.21 1.31 1.46 1.53 1.58 1.59
2.24 2.09 1.91 1.85 1.77 1.74 1.66 1.55 1.50 1.46 1.43 1.37 1.38 1.48 1.27 0.96 0.71 0.60 0.59 0.56 0.54 0.57 0.59 0.55 0.52 0.50 0.50 0.47 0.47 0.47 0.49 0.58 0.83 1.14 1.41 1.49 1.48 1.52 1.70 1.85 1.93 2.00 1.99
2.25 2.25 2.14 2.01 1.93 1.88 1.81 1.87 1.90 1.79 1.69 1.53 1.43 1.35 1.32 1.15 1.07 0.86 0.68 0.66 0.64 0.60 0.64 0.64 0.60 0.56 0.53 0.52 0.54 0.58 0.62 0.66 0.83 1.16 1.51 1.75 1.84 1.99 2.22 2.37 2.44 2.49 2.37
2.08 2.17 2.18 2.07 1.89 1.77 1.70 1.76 1.85 1.91 1.80 1.65 1.54 1.45 1.38 1.23 1.14 1.13 0.92 0.75 0.73 0.67 0.66 0.70 0.72 0.72 0.71 0.70 0.70 0.76 0.84 0.89 1.06 1.34 1.70 2.05 2.30 2.49 2.71 2.90 2.92 2.89 2.78
1.92 1.92 1.97 1.95 1.91 1.79 1.67 1.69 1.81 1.89 1.90 1.85 1.71 1.56 1.47 1.38 1.20 1.21 1.15 0.96 0.91 0.83 0.79 0.81 0.84 0.87 0.86 0.86 0.83 0.93 1.00 1.10 1.23 1.43 1.78 2.15 2.43 2.61 2.77 3.07 3.25 3.23 3.17
1.81 1.82 1.91 1.89 1.90 1.84 1.80 1.75 1.75 1.73 1.78 1.82 1.74 1.63 1.48 1.35 1.29 1.36 1.39 1.23 1.09 0.97 0.95 0.93 0.92 0.91 0.90 0.92 0.95 1.06 1.02 1.07 1.13 1.27 1.59 1.94 2.09 2.17 2.30 2.53 2.84 3.03 3.09
1.66 1.66 1.78 1.83 1.85 1.86 1.84 1.82 1.78 1.70 1.68 1.69 1.65 1.57 1.46 1.32 1.27 1.33 1.45 1.56 1.50 1.25 1.06 1.00 0.97 0.97 0.97 0.97 1.02 1.11 0.98 1.12 1.14 1.23 1.40 1.55 1.56 1.53 1.62 1.79 2.01 2.29 2.51
1.49 1.48 1.52 1.59 1.65 1.68 1.71 1.74 1.74 1.66 1.58 1.56 1.51 1.45 1.37 1.26 1.19 1.22 1.31 1.49 1.75 1.69 1.36 1.08 1.02 1.00 1.01 1.00 1.08 1.00 0.89 1.09 1.15 1.15 1.18 1.21 1.19 1.18 1.27 1.40 1.56 1.81 2.04
1.25 1.25 1.30 1.35 1.41 1.43 1.47 1.56 1.57 1.55 1.53 1.46 1.42 1.38 1.33 1.25 1.22 1.25 1.30 1.38 1.52 1.67 1.53 1.14 0.98 0.93 0.95 0.95 1.06 0.94 0.89 1.09 1.09 1.08 1.06 1.05 1.06 1.09 1.17 1.29 1.37 1.52 1.77
1.06 1.09 1.13 1.20 1.26 1.28 1.27 1.34 1.42 1.43 1.43 1.38 1.34 1.33 1.29 1.23 1.23 1.22 1.26 1.31 1.36 1.44 1.44 1.13 0.94 0.92 0.96 0.96 0.99 0.94 0.89 0.86 0.84 0.95 0.94 0.93 0.93 0.98 1.09 1.19 1.26 1.34 1.51
0.89 0.89 0.88 0.95 1.01 1.05 1.08 1.10 1.15 1.21 1.25 1.25 1.26 1.29 1.29 1.30 1.35 1.35 1.36 1.36 1.33 1.31 1.32 1.20 0.98 0.88 0.85 0.81 0.80 0.83 0.85 0.84 0.78 0.91 0.91 0.88 0.91 0.96 1.04 1.08 1.11 1.18 1.28
0.87 0.89 0.84 0.83 0.85 0.88 0.94 0.97 0.97 1.02 1.07 1.11 1.15 1.21 1.25 1.29 1.38 1.39 1.38 1.35 1.28 1.23 1.21 1.20 1.05 0.91 0.87 0.82 0.80 0.79 0.79 0.79 0.75 0.84 0.88 0.87 0.89 0.91 0.96 1.04 1.08 1.08 1.10
0.80 0.82 0.84 0.83 0.83 0.83 0.88 0.94 0.96 0.98 1.04 1.08 1.12 1.15 1.17 1.17 1.17 1.17 1.17 1.15 1.15 1.17 1.17 1.18 1.11 0.99 0.91 0.87 0.89 0.92 0.88 0.78 0.75 0.70 0.76 0.77 0.80 0.82 0.82 0.87 0.94 0.96 0.97
0.75 0.78 0.81 0.84 0.83 0.83 0.88 0.95 1.00 1.01 1.04 1.10 1.15 1.13 1.08 1.06 1.00 0.98 0.97 0.96 0.98 1.07 1.17 1.21 1.14 1.03 0.91 0.88 0.88 0.84 0.88 0.85 0.80 0.72 0.69 0.66 0.66 0.65 0.67 0.74 0.84 0.94 1.03
0.75 0.80 0.87 0.92 0.94 0.98 1.13 1.15 1.11 1.08 1.07 1.04 1.03 0.98 0.95 0.94 0.92 0.95 0.95 0.94 1.00 1.12 1.23 1.22 1.09 0.93 0.76 0.72 0.78 0.88 0.99 1.05 0.96 0.71 0.69 0.72 0.70 0.71 0.67 0.69 0.86 0.97 1.09
0.87 0.94 0.98 1.07 1.10 1.13 1.19 1.10 1.06 1.00 1.02 0.99 0.92 0.84 0.80 0.75 0.77 0.73 0.81 0.88 0.90 0.97 1.03 1.01 0.94 0.78 0.71 0.70 0.90 1.10 1.08 1.04 0.86 0.66 0.71 0.80 0.75 0.77 0.73 0.78 0.93 0.97 1.08
0.98 1.05 1.04 1.06 1.08 1.09 1.10 1.01 0.98 0.86 0.83 0.83 0.79 0.73 0.67 0.65 0.66 0.69 0.76 0.83 0.74 0.70 0.71 0.68 0.69 0.73 0.75 0.75 0.90 1.11 1.11 1.07 0.91 0.76 0.75 0.86 0.76 0.76 0.73 0.78 0.92 0.91 0.96
0.97 1.00 1.00 0.95 0.89 0.87 0.88 0.81 0.79 0.72 0.71 0.70 0.68 0.69 0.70 0.64 0.71 0.84 0.86 0.84 0.70 0.59 0.62 0.70 0.75 0.76 0.80 0.80 0.85 1.13 1.27 1.31 1.13 0.84 0.72 0.75 0.68 0.69 0.75 0.80 0.88 0.95 0.95
0.82 0.80 0.77 0.72 0.68 0.63 0.66 0.64 0.62 0.55 0.57 0.58 0.61 0.64 0.73 0.70 0.78 0.89 0.81 0.78 0.71 0.60 0.58 0.57 0.57 0.57 0.56 0.61 0.75 0.94 1.34 1.62 1.33 0.98 0.66 0.78 0.81 0.87 1.09 0.83 0.81 0.88 0.91

GEFSMA_prec_meanprecacc_246.txt.gz
Total_Precipitation_Accumulation
0.82 0.76 0.73 0.71 0.62 0.59 0.58 0.65 0.65 0.57 0.50 0.43 0.36 0.31 0.28 0.26 0.25 0.25 0.26 0.27 0.25 0.29 0.41 0.53 0.57 0.59 0.62 0.69 0.71 0.70 0.68 0.61 0.54 0.49 0.47 0.46 0.43 0.43 0.47 0.51 0.53 0.54 0.56
0.93 0.88 0.77 0.72 0.67 0.63 0.62 0.71 0.76 0.68 0.62 0.52 0.44 0.37 0.34 0.31 0.27 0.26 0.26 0.27 0.25 0.27 0.36 0.52 0.66 0.77 0.83 0.88 0.87 0.84 0.77 0.70 0.64 0.61 0.60 0.58 0.53 0.51 0.53 0.51 0.51 0.51 0.53
1.02 1.00 0.93 0.78 0.71 0.74 0.74 0.77 0.84 0.86 0.79 0.66 0.56 0.49 0.42 0.38 0.32 0.29 0.30 0.27 0.24 0.22 0.29 0.46 0.63 0.74 0.83 0.92 1.01 1.02 0.90 0.79 0.72 0.67 0.68 0.70 0.66 0.61 0.58 0.58 0.59 0.58 0.58
1.07 1.09 1.04 0.98 0.89 0.88 0.89 0.87 0.82 0.77 0.73 0.66 0.59 0.55 0.51 0.47 0.41 0.39 0.39 0.33 0.27 0.21 0.23 0.33 0.45 0.56 0.67 0.80 0.95 1.13 1.04 0.94 0.83 0.74 0.74 0.80 0.82 0.75 0.71 0.71 0.69 0.68 0.68
1.25 1.25 1.16 1.13 1.15 1.08 1.00 0.96 0.91 0.82 0.75 0.69 0.65 0.65 0.63 0.57 0.51 0.47 0.43 0.36 0.34 0.30 0.29 0.29 0.31 0.38 0.48 0.65 0.80 1.01 1.13 1.11 1.01 0.90 0.81 0.79 0.80 0.81 0.84 0.86 0.85 0.85 0.85
1.53 1.43 1.37 1.32 1.33 1.27 1.16 1.08 1.01 0.94 0.84 0.83 0.81 0.73 0.68 0.63 0.59 0.53 0.48 0.44 0.41 0.40 0.42 0.41 0.41 0.41 0.44 0.55 0.75 0.90 1.06 1.19 1.12 0.98 0.88 0.84 0.86 0.89 0.96 1.03 1.06 1.07 1.07
1.82 1.66 1.52 1.49 1.48 1.41 1.29 1.23 1.19 1.08 1.02 1.04 1.00 0.82 0.70 0.63 0.59 0.54 0.54 0.54 0.48 0.45 0.46 0.50 0.54 0.53 0.45 0.45 0.55 0.67 0.80 0.97 1.11 1.12 1.03 0.96 0.97 1.03 1.14 1.25 1.30 1.28 1.28
2.09 1.89 1.70 1.63 1.59 1.57 1.43 1.34 1.36 1.32 1.22 1.23 1.25 1.17 0.97 0.79 0.62 0.56 0.56 0.55 0.53 0.53 0.49 0.48 0.47 0.50 0.52 0.46 0.44 0.48 0.55 0.71 0.97 1.18 1.26 1.23 1.20 1.23 1.34 1.48 1.56 1.61 1.63
2.31 2.14 1.96 1.89 1.80 1.77 1.68 1.57 1.51 1.48 1.45 1.40 1.43 1.56 1.34 1.02 0.75 0.63 0.62 0.60 0.57 0.59 0.60 0.56 0.52 0.50 0.51 0.48 0.48 0.49 0.50 0.59 0.85 1.16 1.43 1.51 1.50 1.54 1.72 1.87 1.96 2.04 2.02
2.32 2.31 2.20 2.04 1.95 1.90 1.83 1.88 1.91 1.80 1.70 1.56 1.45 1.39 1.36 1.19 1.11 0.89 0.71 0.69 0.66 0.62 0.66 0.65 0.61 0.57 0.54 0.54 0.55 0.59 0.63 0.67 0.84 1.18 1.53 1.78 1.87 2.01 2.24 2.39 2.47 2.53 2.40
2.12 2.23 2.25 2.13 1.92 1.79 1.72 1.78 1.87 1.92 1.81 1.67 1.56 1.47 1.41 1.26 1.17 1.15 0.94 0.78 0.75 0.69 0.67 0.71 0.73 0.73 0.72 0.71 0.71 0.77 0.86 0.90 1.07 1.36 1.72 2.08 2.33 2.51 2.74 2.92 2.96 2.93 2.83
1.94 1.95 2.01 1.99 1.95 1.82 1.69 1.71 1.83 1.90 1.92 1.86 1.73 1.58 1.49 1.40 1.22 1.23 1.16 0.97 0.93 0.84 0.80 0.82 0.85 0.89 0.89 0.89 0.86 0.96 1.01 1.11 1.25 1.45 1.79 2.16 2.45 2.63 2.80 3.09 3.27 3.25 3.21
1.82 1.83 1.93 1.91 1.92 1.86 1.81 1.76 1.77 1.75 1.79 1.83 1.76 1.64 1.49 1.37 1.30 1.38 1.40 1.24 1.11 0.98 0.96 0.94 0.93 0.92 0.93 0.96 0.99 1.09 1.04 1.08 1.14 1.28 1.60 1.96 2.10 2.19 2.33 2.56 2.87 3.06 3.11
1.68 1.68 1.79 1.85 1.86 1.87 1.86 1.83 1.79 1.72 1.69 1.71 1.67 1.59 1.48 1.34 1.28 1.35 1.46 1.57 1.52 1.26 1.07 1.00 0.98 0.98 0.99 0.99 1.05 1.14 1.01 1.15 1.16 1.24 1.41 1.57 1.57 1.54 1.64 1.81 2.03 2.32 2.53
1.51 1.51 1.55 1.62 1.68 1.70 1.73 1.76 1.76 1.67 1.60 1.58 1.54 1.47 1.39 1.28 1.21 1.23 1.32 1.51 1.76 1.71 1.37 1.09 1.04 1.01 1.03 1.02 1.11 1.03 0.93 1.13 1.18 1.17 1.20 1.22 1.19 1.18 1.28 1.42 1.58 1.84 2.06
1.28 1.28 1.33 1.40 1.45 1.47 1.51 1.59 1.60 1.57 1.56 1.48 1.44 1.41 1.34 1.27 1.24 1.26 1.31 1.39 1.53 1.68 1.54 1.15 0.99 0.95 0.98 0.98 1.08 0.97 0.92 1.13 1.13 1.11 1.08 1.06 1.07 1.10 1.17 1.30 1.39 1.54 1.79
1.09 1.10 1.14 1.22 1.29 1.33 1.33 1.38 1.44 1.46 1.45 1.40 1.36 1.35 1.31 1.25 1.25 1.23 1.27 1.32 1.37 1.45 1.45 1.14 0.95 0.93 0.99 0.99 1.03 0.97 0.91 0.88 0.87 0.97 0.96 0.94 0.94 0.99 1.09 1.19 1.27 1.36 1.53
0.92 0.90 0.90 0.97 1.04 1.08 1.12 1.15 1.19 1.24 1.28 1.27 1.28 1.32 1.32 1.32 1.37 1.37 1.38 1.37 1.35 1.33 1.33 1.21 1.00 0.90 0.87 0.83 0.83 0.86 0.87 0.85 0.79 0.92 0.91 0.89 0.92 0.96 1.04 1.08 1.12 1.20 1.30
0.88 0.91 0.85 0.84 0.88 0.91 0.98 1.01 1.01 1.05 1.11 1.14 1.18 1.24 1.27 1.31 1.39 1.41 1.39 1.36 1.30 1.25 1.23 1.22 1.07 0.93 0.89 0.84 0.82 0.81 0.81 0.80 0.76 0.84 0.88 0.87 0.90 0.92 0.97 1.05 1.09 1.09 1.12
0.81 0.83 0.85 0.84 0.84 0.85 0.90 0.97 1.01 1.03 1.08 1.12 1.14 1.17 1.19 1.19 1.19 1.19 1.19 1.17 1.18 1.19 1.19 1.20 1.14 1.01 0.93 0.89 0.90 0.94 0.90 0.80 0.76 0.70 0.77 0.78 0.82 0.83 0.84 0.89 0.96 0.98 0.99
0.76 0.78 0.82 0.84 0.84 0.84 0.89 0.97 1.03 1.05 1.09 1.14 1.19 1.16 1.10 1.09 1.03 1.01 1.00 0.99 1.00 1.10 1.19 1.24 1.17 1.05 0.93 0.90 0.89 0.85 0.89 0.87 0.82 0.74 0.71 0.68 0.68 0.67 0.68 0.76 0.85 0.96 1.04
0.77 0.82 0.88 0.93 0.95 0.99 1.15 1.17 1.13 1.11 1.09 1.07 1.06 1.01 0.97 0.97 0.95 0.98 0.98 0.97 1.02 1.14 1.26 1.25 1.13 0.95 0.78 0.74 0.80 0.90 1.00 1.06 0.98 0.73 0.72 0.75 0.73 0.73 0.68 0.70 0.87 0.99 1.10
0.88 0.95 1.00 1.09 1.11 1.14 1.21 1.11 1.08 1.02 1.04 1.01 0.93 0.86 0.82 0.77 0.79 0.74 0.83 0.90 0.92 0.99 1.05 1.03 0.96 0.80 0.73 0.72 0.91 1.11 1.09 1.05 0.87 0.67 0.72 0.81 0.76 0.78 0.74 0.80 0.95 0.97 1.09
0.99 1.06 1.06 1.08 1.10 1.11 1.12 1.03 0.99 0.87 0.84 0.84 0.80 0.74 0.69 0.67 0.67 0.70 0.78 0.84 0.75 0.71 0.72 0.69 0.70 0.74 0.76 0.76 0.90 1.12 1.12 1.08 0.92 0.77 0.76 0.87 0.77 0.76 0.74 0.79 0.93 0.91 0.96
0.98 1.02 1.01 0.97 0.91 0.89 0.91 0.84 0.81 0.74 0.73 0.71 0.69 0.70 0.71 0.65 0.72 0.85 0.86 0.85 0.71 0.59 0.62 0.70 0.75 0.76 0.81 0.80 0.85 1.14 1.28 1.31 1.14 0.85 0.73 0.76 0.69 0.70 0.76 0.81 0.89 0.96 0.96
0.82 0.81 0.78 0.74 0.70 0.66 0.70 0.67 0.65 0.58 0.60 0.60 0.62 0.66 0.74 0.71 0.79 0.90 0.81 0.78 0.71 0.60 0.58 0.58 0.57 0.58 0.57 0.62 0.75 0.94 1.34 1.63 1.34 1.00 0.68 0.80 0.82 0.89 1.11 0.85 0.83 0.89 0.93

GEFSMA_prec_meanprecacc_252.txt.gz
Total_Precipitation_Accumulation
0.86 0.82 0.78 0.74 0.64 0.60 0.59 0.66 0.66 0.58 0.52 0.45 0.38 0.32 0.30 0.28 0.26 0.27 0.28 0.29 0.28 0.33 0.45 0.57 0.61 0.61 0.64 0.71 0.72 0.72 0.70 0.62 0.55 0.50 0.47 0.47 0.44 0.44 0.48 0.51 0.53 0.54 0.57
0.97 0.93 0.82 0.76 0.70 0.65 0.63 0.71 0.76 0.69 0.63 0.53 0.44 0.38 0.35 0.33 0.28 0.28 0.28 0.28 0.27 0.30 0.39 0.57 0.72 0.82 0.86 0.91 0.90 0.86 0.79 0.72 0.65 0.62 0.61 0.59 0.54 0.51 0.53 0.52 0.51 0.52 0.54
1.05 1.05 0.98 0.83 0.74 0.77 0.76 0.78 0.85 0.87 0.80 0.67 0.57 0.50 0.43 0.39 0.33 0.31 0.31 0.29 0.26 0.24 0.30 0.49 0.69 0.80 0.87 0.96 1.05 1.05 0.92 0.80 0.73 0.68 0.69 0.71 0.66 0.62 0.58 0.59 0.60 0.59 0.59
1.10 1.13 1.08 1.03 0.95 0.96 0.95 0.90 0.84 0.79 0.75 0.68 0.61 0.56 0.51 0.48 0.42 0.40 0.40 0.34 0.28 0.23 0.25 0.35 0.48 0.62 0.73 0.85 1.00 1.16 1.06 0.95 0.83 0.75 0.75 0.80 0.82 0.76 0.72 0.72 0.71 0.70 0.70
1.28 1.28 1.21 1.18 1.20 1.15 1.11 1.04 0.95 0.85 0.77 0.72 0.68 0.67 0.64 0.58 0.52 0.49 0.44 0.38 0.35 0.32 0.31 0.31 0.33 0.41 0.50 0.68 0.84 1.04 1.16 1.13 1.02 0.91 0.82 0.80 0.81 0.82 0.85 0.88 0.88 0.87 0.87
1.58 1.47 1.42 1.37 1.39 1.33 1.24 1.17 1.07 0.98 0.88 0.85 0.83 0.76 0.70 0.64 0.60 0.54 0.49 0.45 0.42 0.42 0.44 0.43 0.43 0.43 0.46 0.57 0.77 0.93 1.10 1.22 1.15 0.99 0.89 0.85 0.87 0.90 0.97 1.04 1.07 1.09 1.09
1.87 1.70 1.57 1.54 1.54 1.47 1.34 1.30 1.26 1.13 1.05 1.06 1.02 0.84 0.72 0.65 0.61 0.55 0.55 0.55 0.50 0.47 0.48 0.52 0.55 0.54 0.46 0.46 0.56 0.69 0.82 1.00 1.14 1.14 1.05 0.98 0.98 1.05 1.15 1.26 1.31 1.29 1.29
2.11 1.91 1.73 1.66 1.64 1.62 1.47 1.39 1.43 1.37 1.24 1.25 1.27 1.20 1.00 0.82 0.65 0.59 0.58 0.57 0.54 0.55 0.50 0.49 0.48 0.50 0.52 0.46 0.45 0.49 0.56 0.74 1.00 1.21 1.29 1.25 1.23 1.26 1.36 1.49 1.57 1.63 1.64
2.32 2.15 1.97 1.91 1.84 1.80 1.72 1.61 1.56 1.53 1.49 1.42 1.45 1.60 1.39 1.07 0.79 0.66 0.65 0.63 0.60 0.62 0.62 0.57 0.53 0.51 0.51 0.48 0.48 0.49 0.51 0.60 0.87 1.19 1.47 1.54 1.52 1.57 1.74 1.89 1.97 2.06 2.04
2.34 2.33 2.21 2.06 1.98 1.92 1.85 1.91 1.94 1.84 1.75 1.59 1.48 1.41 1.40 1.24 1.15 0.93 0.74 0.73 0.70 0.66 0.68 0.67 0.62 0.58 0.54 0.54 0.55 0.59 0.64 0.68 0.86 1.21 1.56 1.80 1.90 2.05 2.28 2.42 2.49 2.54 2.42
2.14 2.25 2.26 2.15 1.95 1.81 1.73 1.79 1.88 1.93 1.84 1.70 1.58 1.50 1.43 1.28 1.19 1.19 0.99 0.83 0.80 0.72 0.70 0.73 0.75 0.75 0.73 0.72 0.72 0.78 0.86 0.91 1.09 1.38 1.74 2.10 2.37 2.58 2.79 2.95 2.99 2.96 2.85
1.95 1.97 2.03 2.01 1.98 1.86 1.71 1.72 1.84 1.91 1.93 1.88 1.75 1.60 1.52 1.43 1.25 1.25 1.19 1.01 0.99 0.90 0.83 0.85 0.88 0.91 0.91 0.90 0.87 0.97 1.02 1.12 1.26 1.47 1.82 2.18 2.48 2.67 2.83 3.12 3.30 3.28 3.25
1.84 1.85 1.94 1.92 1.93 1.88 1.84 1.79 1.79 1.76 1.80 1.84 1.77 1.66 1.51 1.39 1.33 1.40 1.43 1.27 1.14 1.03 1.01 0.98 0.96 0.95 0.94 0.97 1.00 1.11 1.06 1.11 1.18 1.34 1.65 1.99 2.13 2.21 2.35 2.58 2.89 3.08 3.15
1.69 1.69 1.81 1.86 1.87 1.88 1.87 1.85 1.81 1.73 1.71 1.72 1.67 1.60 1.49 1.35 1.30 1.36 1.48 1.60 1.55 1.29 1.10 1.04 1.00 1.01 1.01 1.00 1.06 1.16 1.03 1.18 1.19 1.28 1.45 1.60 1.59 1.55 1.65 1.82 2.05 2.34 2.56
1.53 1.52 1.56 1.64 1.69 1.71 1.74 1.77 1.77 1.68 1.61 1.59 1.54 1.48 1.40 1.29 1.22 1.25 1.34 1.52 1.79 1.73 1.38 1.10 1.05 1.03 1.04 1.03 1.12 1.04 0.94 1.15 1.20 1.20 1.22 1.24 1.21 1.19 1.29 1.43 1.58 1.85 2.07
1.29 1.30 1.35 1.41 1.47 1.49 1.52 1.61 1.61 1.58 1.57 1.49 1.45 1.42 1.36 1.29 1.26 1.28 1.32 1.40 1.55 1.69 1.55 1.16 1.00 0.96 0.99 0.99 1.10 0.98 0.94 1.15 1.15 1.13 1.10 1.07 1.08 1.11 1.18 1.30 1.39 1.54 1.80
1.09 1.11 1.16 1.24 1.31 1.34 1.34 1.39 1.45 1.47 1.47 1.42 1.38 1.36 1.32 1.26 1.26 1.25 1.29 1.34 1.39 1.47 1.46 1.15 0.96 0.94 1.00 1.01 1.04 0.98 0.92 0.89 0.89 0.99 0.97 0.95 0.95 1.00 1.10 1.20 1.28 1.37 1.54
0.93 0.92 0.91 0.98 1.05 1.10 1.14 1.17 1.21 1.25 1.29 1.29 1.30 1.34 1.33 1.33 1.39 1.39 1.40 1.39 1.37 1.35 1.35 1.23 1.01 0.91 0.88 0.85 0.84 0.87 0.87 0.85 0.80 0.93 0.92 0.89 0.92 0.97 1.05 1.09 1.13 1.20 1.31
0.91 0.92 0.87 0.86 0.89 0.92 0.99 1.02 1.03 1.07 1.12 1.15 1.19 1.25 1.29 1.33 1.41 1.43 1.42 1.39 1.33 1.27 1.25 1.24 1.09 0.94 0.90 0.85 0.83 0.82 0.81 0.81 0.76 0.85 0.89 0.88 0.91 0.93 0.97 1.06 1.09 1.10 1.12
0.83 0.84 0.86 0.85 0.85 0.86 0.92 0.98 1.02 1.05 1.10 1.14 1.17 1.19 1.20 1.21 1.21 1.21 1.21 1.20 1.20 1.21 1.21 1.22 1.16 1.02 0.94 0.90 0.91 0.94 0.91 0.81 0.76 0.71 0.78 0.79 0.82 0.84 0.85 0.90 0.96 0.99 1.00
0.78 0.80 0.82 0.85 0.84 0.85 0.90 0.99 1.04 1.07 1.11 1.17 1.22 1.19 1.13 1.11 1.06 1.03 1.02 1.01 1.02 1.11 1.21 1.25 1.19 1.07 0.95 0.91 0.90 0.86 0.90 0.88 0.83 0.74 0.71 0.69 0.68 0.67 0.69 0.76 0.86 0.96 1.05
0.80 0.84 0.89 0.94 0.95 0.99 1.16 1.19 1.14 1.13 1.12 1.09 1.08 1.03 1.00 1.00 0.97 1.00 1.00 0.99 1.04 1.16 1.27 1.26 1.14 0.97 0.80 0.76 0.82 0.91 1.01 1.07 0.99 0.74 0.72 0.76 0.73 0.73 0.68 0.70 0.87 0.99 1.11
0.91 0.97 1.01 1.10 1.12 1.14 1.21 1.12 1.09 1.03 1.06 1.03 0.96 0.88 0.84 0.80 0.81 0.76 0.84 0.92 0.94 1.01 1.06 1.04 0.97 0.82 0.75 0.74 0.94 1.13 1.11 1.06 0.88 0.68 0.73 0.82 0.76 0.78 0.74 0.80 0.95 0.98 1.09
1.01 1.08 1.07 1.09 1.11 1.12 1.13 1.03 1.00 0.88 0.85 0.85 0.82 0.76 0.70 0.68 0.69 0.72 0.79 0.86 0.77 0.73 0.74 0.70 0.72 0.76 0.78 0.79 0.93 1.15 1.15 1.10 0.93 0.78 0.76 0.87 0.77 0.77 0.74 0.79 0.93 0.91 0.97
0.99 1.02 1.02 0.99 0.92 0.90 0.92 0.85 0.82 0.74 0.74 0.72 0.70 0.71 0.72 0.66 0.73 0.86 0.87 0.86 0.73 0.61 0.64 0.72 0.77 0.78 0.83 0.83 0.88 1.16 1.30 1.34 1.16 0.87 0.73 0.76 0.69 0.70 0.76 0.81 0.89 0.96 0.96
0.83 0.81 0.79 0.75 0.71 0.67 0.71 0.68 0.66 0.58 0.61 0.61 0.63 0.67 0.75 0.72 0.80 0.90 0.82 0.79 0.72 0.61 0.59 0.59 0.59 0.59 0.58 0.63 0.77 0.96 1.36 1.65 1.37 1.03 0.69 0.80 0.83 0.89 1.11 0.85 0.83 0.89 0.93

GEFSMA_prec_meanprecacc_258.txt.gz
Total_Precipitation_Accumulation
0.92 0.87 0.82 0.77 0.67 0.63 0.62 0.69 0.70 0.63 0.56 0.49 0.41 0.36 0.34 0.32 0.30 0.30 0.31 0.31 0.32 0.36 0.48 0.60 0.63 0.63 0.66 0.73 0.74 0.72 0.70 0.63 0.56 0.50 0.48 0.48 0.45 0.44 0.48 0.52 0.54 0.55 0.57
1.05 0.99 0.87 0.79 0.73 0.67 0.65 0.73 0.79 0.72 0.68 0.58 0.49 0.42 0.39 0.37 0.33 0.33 0.33 0.32 0.32 0.34 0.43 0.60 0.74 0.84 0.88 0.94 0.92 0.88 0.80 0.72 0.66 0.63 0.61 0.60 0.54 0.52 0.54 0.52 0.52 0.53 0.55
1.11 1.11 1.04 0.87 0.77 0.79 0.78 0.79 0.86 0.89 0.82 0.69 0.60 0.53 0.46 0.41 0.36 0.35 0.35 0.32 0.29 0.27 0.34 0.52 0.72 0.83 0.91 0.98 1.08 1.07 0.94 0.81 0.74 0.69 0.69 0.71 0.67 0.62 0.59 0.59 0.60 0.60 0.61
1.14 1.21 1.16 1.08 0.99 0.98 0.97 0.92 0.86 0.80 0.76 0.69 0.63 0.59 0.55 0.50 0.45 0.44 0.44 0.37 0.32 0.25 0.27 0.36 0.50 0.65 0.78 0.90 1.03 1.19 1.08 0.96 0.85 0.76 0.75 0.81 0.83 0.76 0.73 0.72 0.72 0.71 0.72
1.32 1.33 1.30 1.26 1.26 1.20 1.14 1.06 0.97 0.86 0.78 0.73 0.70 0.70 0.68 0.61 0.55 0.51 0.47 0.40 0.38 0.36 0.34 0.32 0.34 0.42 0.52 0.72 0.88 1.09 1.20 1.16 1.03 0.92 0.83 0.81 0.81 0.83 0.86 0.89 0.88 0.87 0.88
1.63 1.51 1.48 1.46 1.46 1.39 1.29 1.21 1.09 1.00 0.89 0.86 0.85 0.78 0.73 0.67 0.63 0.57 0.52 0.46 0.44 0.44 0.46 0.45 0.44 0.44 0.47 0.58 0.79 0.96 1.13 1.25 1.17 1.02 0.91 0.87 0.88 0.92 0.98 1.05 1.08 1.10 1.09
1.92 1.75 1.62 1.63 1.64 1.53 1.38 1.33 1.29 1.15 1.06 1.08 1.04 0.86 0.75 0.68 0.64 0.58 0.59 0.57 0.51 0.48 0.49 0.54 0.57 0.55 0.47 0.46 0.57 0.70 0.84 1.03 1.17 1.17 1.07 1.00 1.00 1.07 1.17 1.28 1.33 1.32 1.30
2.17 1.96 1.79 1.74 1.74 1.72 1.55 1.43 1.45 1.39 1.27 1.27 1.29 1.23 1.04 0.86 0.68 0.61 0.61 0.59 0.56 0.56 0.51 0.50 0.50 0.52 0.53 0.47 0.45 0.50 0.57 0.76 1.03 1.24 1.32 1.28 1.25 1.29 1.39 1.53 1.61 1.67 1.67
2.40 2.21 2.02 1.97 1.92 1.91 1.84 1.71 1.61 1.55 1.51 1.45 1.48 1.64 1.43 1.11 0.82 0.69 0.67 0.66 0.62 0.63 0.63 0.58 0.54 0.52 0.52 0.49 0.48 0.49 0.51 0.61 0.88 1.21 1.50 1.58 1.56 1.61 1.78 1.94 2.03 2.12 2.09
2.40 2.39 2.25 2.10 2.03 2.00 1.95 2.02 2.05 1.90 1.78 1.62 1.50 1.44 1.43 1.28 1.19 0.97 0.76 0.75 0.72 0.67 0.70 0.68 0.63 0.59 0.56 0.55 0.56 0.59 0.64 0.69 0.87 1.22 1.58 1.83 1.93 2.09 2.32 2.45 2.52 2.58 2.46
2.16 2.29 2.30 2.18 1.98 1.86 1.80 1.87 1.97 2.03 1.91 1.74 1.61 1.52 1.46 1.31 1.22 1.22 1.02 0.85 0.81 0.73 0.71 0.74 0.76 0.77 0.75 0.74 0.73 0.78 0.87 0.92 1.09 1.39 1.76 2.13 2.40 2.62 2.83 2.98 3.02 2.99 2.89
1.97 1.99 2.05 2.03 2.00 1.88 1.75 1.78 1.89 1.97 2.00 1.94 1.79 1.62 1.54 1.46 1.28 1.28 1.22 1.04 1.01 0.91 0.84 0.85 0.88 0.92 0.92 0.92 0.89 0.99 1.04 1.13 1.28 1.49 1.86 2.23 2.51 2.70 2.86 3.15 3.33 3.31 3.27
1.86 1.86 1.96 1.94 1.94 1.89 1.85 1.82 1.83 1.80 1.83 1.88 1.82 1.70 1.54 1.42 1.36 1.44 1.46 1.31 1.18 1.06 1.03 0.99 0.96 0.96 0.96 0.98 1.02 1.13 1.07 1.13 1.19 1.37 1.70 2.04 2.16 2.24 2.37 2.60 2.91 3.10 3.17
1.70 1.70 1.82 1.87 1.88 1.89 1.88 1.86 1.83 1.77 1.74 1.74 1.70 1.63 1.53 1.39 1.33 1.39 1.51 1.63 1.59 1.33 1.13 1.06 1.02 1.02 1.02 1.02 1.08 1.18 1.04 1.19 1.21 1.30 1.48 1.63 1.61 1.57 1.66 1.84 2.06 2.35 2.57
1.53 1.53 1.57 1.65 1.70 1.72 1.75 1.78 1.79 1.70 1.64 1.62 1.56 1.49 1.42 1.31 1.24 1.26 1.36 1.55 1.82 1.77 1.42 1.12 1.08 1.05 1.07 1.06 1.15 1.06 0.95 1.17 1.22 1.21 1.24 1.26 1.22 1.20 1.30 1.44 1.60 1.86 2.08
1.30 1.31 1.36 1.43 1.48 1.50 1.53 1.62 1.63 1.60 1.59 1.52 1.48 1.44 1.37 1.30 1.27 1.29 1.34 1.42 1.57 1.73 1.58 1.18 1.02 0.99 1.02 1.02 1.13 1.00 0.95 1.18 1.16 1.14 1.11 1.08 1.09 1.12 1.19 1.31 1.40 1.55 1.81
1.12 1.13 1.18 1.26 1.33 1.35 1.35 1.40 1.47 1.49 1.49 1.44 1.40 1.38 1.34 1.28 1.28 1.27 1.31 1.36 1.42 1.50 1.49 1.17 0.98 0.96 1.03 1.04 1.07 1.00 0.94 0.91 0.90 1.00 0.98 0.96 0.95 1.00 1.10 1.20 1.28 1.37 1.54
0.98 0.95 0.93 1.01 1.07 1.11 1.15 1.18 1.22 1.26 1.31 1.30 1.32 1.35 1.34 1.35 1.40 1.41 1.42 1.41 1.40 1.37 1.38 1.25 1.02 0.93 0.90 0.86 0.86 0.89 0.89 0.87 0.81 0.94 0.93 0.90 0.93 0.97 1.05 1.09 1.13 1.20 1.31
0.93 0.95 0.89 0.88 0.92 0.95 1.01 1.03 1.03 1.07 1.13 1.16 1.20 1.26 1.30 1.34 1.43 1.45 1.43 1.41 1.35 1.30 1.29 1.27 1.11 0.96 0.92 0.86 0.85 0.83 0.83 0.82 0.77 0.85 0.90 0.88 0.91 0.93 0.98 1.06 1.10 1.10 1.12
0.85 0.86 0.88 0.87 0.87 0.88 0.94 1.00 1.03 1.05 1.11 1.15 1.18 1.20 1.22 1.22 1.22 1.23 1.23 1.22 1.22 1.24 1.25 1.25 1.18 1.05 0.96 0.91 0.93 0.96 0.92 0.82 0.77 0.71 0.78 0.79 0.83 0.84 0.85 0.90 0.97 0.99 1.00
0.81 0.82 0.84 0.86 0.85 0.86 0.92 1.00 1.06 1.08 1.12 1.18 1.23 1.21 1.14 1.13 1.07 1.04 1.03 1.02 1.04 1.14 1.24 1.28 1.21 1.09 0.97 0.93 0.92 0.87 0.91 0.89 0.83 0.75 0.72 0.69 0.68 0.67 0.69 0.77 0.86 0.97 1.05
0.82 0.86 0.92 0.95 0.96 1.00 1.17 1.20 1.16 1.14 1.13 1.10 1.10 1.05 1.02 1.02 0.99 1.01 1.02 1.01 1.06 1.19 1.30 1.29 1.16 0.99 0.82 0.77 0.83 0.92 1.02 1.08 0.99 0.74 0.73 0.76 0.74 0.74 0.68 0.70 0.87 0.99 1.11
0.93 1.00 1.04 1.12 1.13 1.16 1.22 1.13 1.10 1.04 1.07 1.04 0.97 0.89 0.85 0.81 0.83 0.77 0.86 0.94 0.96 1.04 1.09 1.06 0.99 0.83 0.76 0.75 0.95 1.14 1.12 1.07 0.89 0.68 0.73 0.82 0.77 0.78 0.74 0.80 0.95 0.98 1.09
1.03 1.10 1.10 1.12 1.13 1.14 1.14 1.05 1.01 0.89 0.86 0.86 0.82 0.77 0.71 0.70 0.70 0.74 0.81 0.88 0.80 0.76 0.77 0.73 0.74 0.77 0.79 0.80 0.95 1.17 1.16 1.11 0.94 0.79 0.77 0.89 0.77 0.77 0.74 0.79 0.93 0.92 0.97
1.01 1.04 1.04 1.01 0.94 0.93 0.95 0.86 0.83 0.75 0.75 0.73 0.71 0.72 0.73 0.67 0.75 0.88 0.88 0.87 0.74 0.63 0.67 0.75 0.80 0.81 0.85 0.86 0.91 1.20 1.34 1.37 1.19 0.89 0.75 0.78 0.71 0.71 0.77 0.82 0.89 0.97 0.96
0.85 0.83 0.80 0.77 0.73 0.69 0.73 0.71 0.68 0.60 0.62 0.62 0.64 0.67 0.76 0.73 0.81 0.91 0.82 0.79 0.73 0.62 0.60 0.60 0.61 0.61 0.60 0.66 0.79 0.98 1.39 1.68 1.40 1.06 0.72 0.83 0.85 0.91 1.13 0.87 0.84 0.90 0.93

GEFSMA_prec_meanprecacc_264.txt.gz
Total_Precipitation_Accumulation
0.93 0.89 0.86 0.82 0.70 0.66 0.63 0.70 0.71 0.64 0.58 0.52 0.43 0.37 0.35 0.33 0.31 0.31 0.32 0.33 0.34 0.39 0.50 0.63 0.66 0.65 0.68 0.74 0.75 0.74 0.71 0.64 0.58 0.52 0.49 0.49 0.46 0.45 0.49 0.53 0.55 0.56 0.59
1.06 1.01 0.89 0.84 0.79 0.73 0.70 0.75 0.79 0.74 0.71 0.62 0.53 0.45 0.41 0.39 0.33 0.33 0.33 0.33 0.33 0.37 0.46 0.63 0.77 0.87 0.90 0.95 0.94 0.89 0.82 0.74 0.68 0.65 0.63 0.61 0.55 0.52 0.54 0.53 0.53 0.54 0.56
1.13 1.13 1.06 0.90 0.81 0.85 0.85 0.85 0.89 0.90 0.84 0.71 0.62 0.57 0.49 0.43 0.37 0.35 0.36 0.33 0.31 0.29 0.36 0.54 0.74 0.85 0.93 1.00 1.09 1.08 0.95 0.82 0.75 0.71 0.71 0.72 0.67 0.63 0.59 0.60 0.61 0.60 0.62
1.18 1.23 1.18 1.11 1.02 1.02 1.02 0.97 0.89 0.83 0.78 0.71 0.64 0.60 0.56 0.51 0.45 0.44 0.44 0.38 0.32 0.27 0.29 0.38 0.52 0.67 0.82 0.93 1.05 1.21 1.09 0.97 0.86 0.77 0.77 0.82 0.84 0.77 0.73 0.73 0.72 0.72 0.72
1.38 1.37 1.32 1.27 1.27 1.23 1.18 1.10 1.00 0.88 0.80 0.74 0.71 0.71 0.68 0.62 0.56 0.52 0.48 0.41 0.39 0.37 0.35 0.34 0.36 0.43 0.55 0.75 0.92 1.12 1.23 1.17 1.04 0.93 0.84 0.82 0.83 0.85 0.88 0.90 0.89 0.88 0.90
1.70 1.57 1.53 1.48 1.47 1.40 1.32 1.25 1.13 1.03 0.91 0.87 0.86 0.79 0.73 0.68 0.64 0.59 0.54 0.48 0.45 0.45 0.47 0.46 0.45 0.45 0.48 0.60 0.82 1.01 1.19 1.30 1.20 1.03 0.93 0.89 0.90 0.94 1.00 1.07 1.10 1.13 1.14
1.99 1.83 1.68 1.68 1.66 1.54 1.41 1.38 1.34 1.20 1.11 1.11 1.06 0.87 0.75 0.69 0.65 0.60 0.61 0.61 0.54 0.50 0.50 0.55 0.58 0.56 0.48 0.48 0.59 0.72 0.88 1.09 1.23 1.21 1.09 1.01 1.02 1.08 1.19 1.30 1.36 1.36 1.35
2.24 2.04 1.87 1.80 1.78 1.74 1.57 1.46 1.49 1.44 1.31 1.31 1.33 1.25 1.06 0.88 0.69 0.62 0.62 0.62 0.60 0.59 0.54 0.51 0.51 0.53 0.54 0.48 0.46 0.52 0.60 0.80 1.08 1.32 1.39 1.32 1.28 1.32 1.42 1.56 1.65 1.69 1.70
2.46 2.28 2.10 2.05 1.98 1.95 1.86 1.73 1.65 1.60 1.55 1.48 1.51 1.66 1.45 1.13 0.85 0.70 0.69 0.68 0.66 0.68 0.66 0.60 0.55 0.52 0.53 0.49 0.49 0.50 0.52 0.63 0.92 1.26 1.57 1.65 1.60 1.64 1.81 1.98 2.06 2.14 2.11
2.45 2.45 2.33 2.18 2.11 2.05 1.99 2.06 2.07 1.94 1.83 1.65 1.53 1.46 1.45 1.30 1.22 0.99 0.78 0.77 0.74 0.71 0.74 0.71 0.65 0.60 0.56 0.55 0.57 0.60 0.65 0.70 0.89 1.25 1.62 1.90 2.01 2.13 2.35 2.48 2.54 2.60 2.48
2.22 2.34 2.36 2.25 2.06 1.94 1.86 1.92 2.01 2.06 1.95 1.78 1.64 1.55 1.48 1.33 1.24 1.26 1.06 0.89 0.85 0.76 0.74 0.77 0.78 0.78 0.76 0.74 0.74 0.79 0.88 0.93 1.10 1.41 1.79 2.16 2.46 2.70 2.89 3.01 3.04 3.01 2.90
2.04 2.04 2.10 2.07 2.05 1.95 1.82 1.84 1.95 2.03 2.05 2.00 1.83 1.65 1.57 1.48 1.29 1.30 1.26 1.10 1.06 0.96 0.87 0.87 0.89 0.92 0.93 0.93 0.90 1.00 1.04 1.14 1.28 1.50 1.88 2.25 2.53 2.74 2.92 3.19 3.36 3.32 3.28
1.94 1.92 2.01 1.98 1.97 1.92 1.90 1.87 1.88 1.87 1.90 1.94 1.89 1.75 1.57 1.44 1.38 1.45 1.49 1.36 1.24 1.11 1.07 1.01 0.97 0.96 0.96 0.99 1.02 1.14 1.08 1.14 1.20 1.38 1.71 2.06 2.19 2.27 2.41 2.64 2.94 3.12 3.19
1.77 1.77 1.88 1.92 1.91 1.92 1.91 1.89 1.86 1.81 1.79 1.80 1.76 1.69 1.58 1.42 1.35 1.41 1.54 1.67 1.64 1.38 1.17 1.09 1.04 1.03 1.03 1.03 1.09 1.19 1.05 1.20 1.22 1.31 1.49 1.66 1.63 1.58 1.68 1.87 2.10 2.39 2.60
1.61 1.60 1.63 1.69 1.74 1.75 1.78 1.80 1.80 1.72 1.66 1.66 1.61 1.54 1.48 1.37 1.28 1.29 1.39 1.58 1.87 1.82 1.46 1.16 1.10 1.07 1.08 1.07 1.16 1.08 0.97 1.18 1.23 1.23 1.25 1.27 1.23 1.21 1.31 1.45 1.62 1.89 2.11
1.38 1.37 1.41 1.46 1.51 1.53 1.56 1.65 1.65 1.62 1.61 1.55 1.51 1.48 1.42 1.35 1.33 1.33 1.37 1.46 1.61 1.77 1.62 1.22 1.05 1.01 1.03 1.03 1.15 1.03 0.99 1.21 1.19 1.16 1.12 1.09 1.09 1.12 1.19 1.32 1.41 1.57 1.83
1.20 1.20 1.23 1.30 1.36 1.38 1.37 1.43 1.50 1.52 1.51 1.46 1.43 1.41 1.37 1.32 1.32 1.31 1.34 1.39 1.45 1.54 1.54 1.22 1.02 0.99 1.06 1.06 1.08 1.02 0.98 0.94 0.92 1.02 0.99 0.97 0.96 1.01 1.11 1.21 1.29 1.38 1.55
1.06 1.04 1.01 1.06 1.11 1.14 1.17 1.20 1.23 1.29 1.33 1.33 1.35 1.38 1.37 1.38 1.43 1.44 1.45 1.44 1.42 1.40 1.41 1.29 1.06 0.96 0.93 0.90 0.88 0.91 0.91 0.89 0.83 0.96 0.95 0.91 0.94 0.98 1.06 1.10 1.14 1.21 1.32
1.03 1.04 0.98 0.97 0.97 0.98 1.04 1.06 1.06 1.09 1.15 1.18 1.22 1.29 1.33 1.37 1.46 1.48 1.46 1.43 1.37 1.32 1.31 1.29 1.14 0.99 0.95 0.89 0.88 0.87 0.85 0.84 0.79 0.87 0.92 0.90 0.93 0.95 0.99 1.07 1.11 1.11 1.14
0.95 0.95 0.96 0.95 0.95 0.94 0.98 1.04 1.07 1.09 1.14 1.18 1.20 1.23 1.24 1.25 1.25 1.26 1.26 1.24 1.25 1.26 1.27 1.28 1.21 1.07 0.98 0.93 0.95 0.98 0.95 0.84 0.80 0.74 0.81 0.81 0.84 0.86 0.87 0.92 0.99 1.01 1.02
0.90 0.92 0.94 0.95 0.93 0.93 0.98 1.05 1.10 1.12 1.16 1.21 1.26 1.23 1.17 1.16 1.10 1.07 1.06 1.05 1.07 1.16 1.26 1.30 1.24 1.11 0.99 0.95 0.93 0.89 0.93 0.91 0.86 0.77 0.74 0.71 0.70 0.69 0.71 0.79 0.88 0.99 1.07
0.89 0.94 1.00 1.04 1.05 1.07 1.23 1.27 1.23 1.20 1.17 1.14 1.12 1.08 1.05 1.05 1.02 1.05 1.05 1.04 1.09 1.21 1.33 1.31 1.19 1.01 0.84 0.79 0.85 0.94 1.04 1.10 1.02 0.76 0.74 0.78 0.76 0.75 0.70 0.72 0.89 1.01 1.13
0.99 1.06 1.10 1.19 1.21 1.22 1.27 1.17 1.15 1.10 1.13 1.09 1.00 0.92 0.88 0.83 0.86 0.80 0.89 0.96 0.98 1.06 1.11 1.08 1.02 0.85 0.78 0.77 0.97 1.16 1.14 1.09 0.91 0.70 0.75 0.84 0.78 0.79 0.75 0.81 0.97 1.00 1.11
1.09 1.17 1.16 1.17 1.19 1.20 1.20 1.09 1.05 0.93 0.89 0.90 0.86 0.79 0.73 0.71 0.72 0.76 0.83 0.90 0.82 0.78 0.79 0.74 0.75 0.79 0.81 0.82 0.97 1.19 1.19 1.14 0.96 0.81 0.79 0.90 0.79 0.78 0.75 0.81 0.96 0.94 0.99
1.05 1.09 1.10 1.06 0.98 0.98 1.00 0.92 0.88 0.80 0.79 0.77 0.74 0.74 0.75 0.69 0.77 0.90 0.90 0.89 0.76 0.65 0.69 0.77 0.82 0.82 0.87 0.88 0.93 1.22 1.36 1.39 1.21 0.90 0.76 0.79 0.72 0.72 0.79 0.84 0.91 0.99 0.98
0.89 0.86 0.84 0.81 0.76 0.73 0.77 0.75 0.73 0.64 0.66 0.66 0.68 0.71 0.80 0.76 0.84 0.95 0.85 0.81 0.74 0.63 0.61 0.61 0.62 0.62 0.61 0.66 0.80 0.99 1.40 1.70 1.42 1.08 0.73 0.84 0.86 0.93 1.16 0.89 0.87 0.92 0.95

GEFSMA_prec_meanprecacc_270.txt.gz
Total_Precipitation_Accumulation
0.95 0.91 0.88 0.85 0.72 0.67 0.66 0.74 0.74 0.67 0.61 0.56 0.47 0.39 0.36 0.34 0.32 0.32 0.32 0.34 0.36 0.42 0.53 0.65 0.67 0.67 0.70 0.76 0.77 0.75 0.72 0.66 0.59 0.53 0.51 0.50 0.47 0.46 0.50 0.54 0.56 0.58 0.61
1.09 1.02 0.91 0.86 0.82 0.75 0.71 0.77 0.82 0.76 0.72 0.64 0.57 0.49 0.43 0.40 0.34 0.34 0.34 0.34 0.35 0.40 0.49 0.66 0.79 0.89 0.93 0.98 0.96 0.91 0.83 0.75 0.69 0.66 0.64 0.62 0.56 0.53 0.55 0.54 0.54 0.55 0.58
1.19 1.17 1.08 0.92 0.84 0.87 0.87 0.87 0.91 0.93 0.86 0.73 0.65 0.60 0.53 0.46 0.38 0.36 0.36 0.34 0.32 0.31 0.38 0.56 0.76 0.87 0.95 1.04 1.12 1.10 0.96 0.84 0.76 0.72 0.72 0.73 0.69 0.64 0.60 0.61 0.62 0.62 0.64
1.24 1.29 1.21 1.13 1.05 1.06 1.06 1.01 0.94 0.87 0.81 0.73 0.66 0.62 0.59 0.55 0.47 0.46 0.45 0.39 0.34 0.28 0.30 0.40 0.54 0.69 0.84 0.95 1.08 1.24 1.11 0.99 0.87 0.78 0.78 0.83 0.86 0.79 0.75 0.74 0.73 0.72 0.74
1.44 1.44 1.38 1.31 1.31 1.27 1.24 1.15 1.05 0.94 0.84 0.77 0.72 0.72 0.70 0.64 0.59 0.55 0.49 0.42 0.40 0.38 0.36 0.35 0.37 0.45 0.57 0.77 0.95 1.16 1.26 1.20 1.05 0.94 0.85 0.83 0.85 0.87 0.89 0.91 0.90 0.89 0.92
1.79 1.64 1.62 1.55 1.52 1.44 1.37 1.31 1.17 1.07 0.95 0.91 0.89 0.81 0.76 0.69 0.66 0.62 0.57 0.50 0.47 0.46 0.48 0.48 0.46 0.46 0.49 0.62 0.84 1.03 1.23 1.35 1.24 1.06 0.94 0.90 0.92 0.96 1.02 1.08 1.12 1.16 1.18
2.09 1.91 1.76 1.77 1.73 1.59 1.45 1.44 1.38 1.23 1.14 1.16 1.12 0.91 0.78 0.71 0.67 0.62 0.64 0.64 0.56 0.51 0.51 0.56 0.59 0.57 0.49 0.49 0.61 0.75 0.91 1.13 1.31 1.30 1.16 1.05 1.04 1.10 1.21 1.31 1.38 1.39 1.38
2.34 2.12 1.94 1.87 1.86 1.82 1.63 1.52 1.55 1.48 1.35 1.35 1.39 1.32 1.12 0.93 0.73 0.64 0.64 0.65 0.63 0.61 0.55 0.53 0.52 0.54 0.55 0.49 0.48 0.54 0.62 0.82 1.12 1.39 1.50 1.42 1.33 1.34 1.44 1.57 1.66 1.71 1.71
2.58 2.38 2.15 2.11 2.07 2.04 1.94 1.80 1.71 1.64 1.59 1.51 1.55 1.72 1.51 1.19 0.88 0.73 0.71 0.69 0.68 0.70 0.69 0.63 0.57 0.54 0.54 0.51 0.51 0.52 0.54 0.65 0.94 1.28 1.61 1.74 1.72 1.72 1.86 2.00 2.07 2.15 2.11
2.56 2.58 2.40 2.23 2.18 2.16 2.10 2.17 2.16 2.00 1.87 1.68 1.56 1.49 1.49 1.34 1.25 1.02 0.80 0.78 0.76 0.72 0.76 0.74 0.68 0.63 0.58 0.57 0.58 0.62 0.66 0.71 0.91 1.28 1.65 1.94 2.08 2.25 2.47 2.57 2.58 2.61 2.49
2.35 2.47 2.47 2.32 2.11 2.01 1.96 2.04 2.13 2.16 2.02 1.82 1.68 1.57 1.50 1.36 1.28 1.29 1.08 0.90 0.86 0.77 0.75 0.79 0.81 0.81 0.80 0.77 0.75 0.80 0.89 0.94 1.12 1.44 1.82 2.20 2.49 2.75 2.99 3.13 3.11 3.04 2.91
2.18 2.19 2.20 2.15 2.11 2.00 1.89 1.93 2.06 2.14 2.15 2.08 1.89 1.69 1.60 1.51 1.32 1.33 1.28 1.11 1.08 0.97 0.88 0.88 0.92 0.96 0.96 0.97 0.93 1.02 1.06 1.16 1.30 1.53 1.91 2.28 2.56 2.77 2.97 3.28 3.44 3.38 3.32
2.08 2.07 2.12 2.05 2.03 1.97 1.96 1.94 1.97 1.97 2.00 2.04 1.97 1.81 1.62 1.49 1.41 1.48 1.51 1.39 1.26 1.14 1.09 1.02 0.99 0.98 0.99 1.01 1.05 1.16 1.10 1.16 1.22 1.39 1.74 2.09 2.21 2.29 2.44 2.68 3.00 3.19 3.25
1.90 1.89 1.98 2.00 1.98 1.97 1.96 1.95 1.93 1.89 1.88 1.88 1.84 1.76 1.63 1.47 1.39 1.44 1.57 1.70 1.67 1.41 1.20 1.11 1.05 1.04 1.04 1.04 1.10 1.21 1.06 1.22 1.23 1.32 1.51 1.69 1.67 1.60 1.70 1.88 2.12 2.42 2.65
1.76 1.72 1.73 1.79 1.82 1.83 1.85 1.87 1.87 1.79 1.74 1.73 1.68 1.61 1.53 1.41 1.32 1.32 1.41 1.61 1.89 1.85 1.49 1.18 1.12 1.09 1.09 1.08 1.18 1.09 0.98 1.20 1.24 1.24 1.26 1.28 1.25 1.24 1.32 1.46 1.63 1.90 2.12
1.58 1.53 1.54 1.58 1.63 1.64 1.66 1.73 1.71 1.67 1.66 1.60 1.56 1.54 1.48 1.40 1.37 1.37 1.40 1.48 1.63 1.79 1.65 1.24 1.07 1.03 1.05 1.05 1.16 1.04 1.00 1.22 1.20 1.17 1.14 1.10 1.10 1.14 1.21 1.33 1.42 1.57 1.83
1.39 1.38 1.38 1.44 1.48 1.49 1.48 1.53 1.58 1.58 1.55 1.50 1.46 1.45 1.42 1.37 1.38 1.36 1.38 1.43 1.48 1.56 1.56 1.24 1.04 1.01 1.08 1.08 1.11 1.03 0.98 0.95 0.93 1.04 1.01 0.99 0.97 1.02 1.12 1.22 1.30 1.39 1.56
1.22 1.20 1.17 1.21 1.26 1.28 1.28 1.30 1.35 1.38 1.40 1.37 1.37 1.40 1.39 1.41 1.48 1.49 1.50 1.48 1.46 1.44 1.44 1.32 1.09 0.99 0.96 0.93 0.92 0.93 0.93 0.91 0.85 0.99 0.97 0.94 0.96 1.00 1.08 1.11 1.15 1.22 1.33
1.16 1.17 1.12 1.12 1.12 1.12 1.16 1.17 1.16 1.19 1.23 1.25 1.27 1.32 1.34 1.39 1.48 1.51 1.50 1.48 1.42 1.37 1.35 1.33 1.18 1.03 0.99 0.93 0.91 0.91 0.89 0.87 0.82 0.91 0.94 0.93 0.95 0.97 1.02 1.09 1.12 1.12 1.15
1.07 1.06 1.07 1.07 1.09 1.08 1.10 1.14 1.16 1.17 1.20 1.22 1.23 1.25 1.26 1.26 1.27 1.28 1.29 1.29 1.29 1.31 1.32 1.33 1.25 1.12 1.04 1.00 1.00 1.03 1.00 0.89 0.84 0.78 0.84 0.84 0.87 0.89 0.90 0.95 1.01 1.02 1.03
1.01 1.02 1.02 1.03 1.02 1.05 1.12 1.17 1.19 1.21 1.23 1.27 1.29 1.26 1.19 1.17 1.12 1.10 1.08 1.08 1.11 1.22 1.31 1.36 1.29 1.16 1.04 1.01 0.99 0.94 0.97 0.95 0.90 0.81 0.78 0.74 0.73 0.71 0.73 0.81 0.90 1.00 1.08
0.99 1.03 1.09 1.12 1.12 1.15 1.33 1.38 1.33 1.28 1.24 1.20 1.17 1.11 1.07 1.08 1.05 1.08 1.09 1.08 1.13 1.26 1.38 1.36 1.24 1.07 0.89 0.83 0.89 0.98 1.08 1.14 1.06 0.79 0.77 0.81 0.78 0.78 0.72 0.74 0.92 1.03 1.14
1.08 1.15 1.19 1.29 1.31 1.31 1.37 1.26 1.25 1.19 1.20 1.16 1.06 0.98 0.92 0.87 0.89 0.83 0.93 1.01 1.03 1.11 1.16 1.14 1.07 0.91 0.84 0.82 1.01 1.20 1.18 1.12 0.94 0.73 0.78 0.87 0.80 0.81 0.77 0.83 0.99 1.01 1.13
1.16 1.24 1.23 1.25 1.28 1.31 1.32 1.19 1.15 1.01 0.96 0.97 0.93 0.88 0.82 0.79 0.79 0.81 0.87 0.95 0.87 0.83 0.84 0.80 0.81 0.85 0.86 0.88 1.03 1.24 1.23 1.18 0.99 0.83 0.81 0.93 0.80 0.80 0.76 0.82 0.96 0.94 0.99
1.11 1.14 1.15 1.12 1.05 1.05 1.10 1.02 0.99 0.90 0.88 0.84 0.81 0.81 0.83 0.78 0.87 0.99 0.97 0.95 0.82 0.72 0.77 0.84 0.89 0.89 0.94 0.94 0.99 1.27 1.41 1.43 1.24 0.93 0.79 0.82 0.74 0.74 0.80 0.85 0.92 1.00 0.99
0.93 0.90 0.87 0.85 0.81 0.78 0.84 0.83 0.82 0.74 0.76 0.75 0.76 0.79 0.88 0.83 0.92 1.03 0.92 0.89 0.81 0.70 0.68 0.69 0.69 0.69 0.67 0.71 0.85 1.03 1.44 1.73 1.45 1.10 0.75 0.86 0.88 0.95 1.17 0.90 0.87 0.93 0.96

GEFSMA_prec_meanprecacc_276.txt.gz
Total_Precipitation_Accumulation
1.01 0.95 0.91 0.87 0.75 0.70 0.69 0.76 0.76 0.68 0.63 0.57 0.47 0.39 0.37 0.35 0.33 0.33 0.34 0.35 0.38 0.45 0.58 0.70 0.72 0.70 0.72 0.78 0.78 0.76 0.73 0.66 0.60 0.54 0.51 0.51 0.48 0.47 0.51 0.55 0.57 0.59 0.62
1.17 1.09 0.96 0.89 0.84 0.77 0.74 0.80 0.85 0.78 0.74 0.65 0.58 0.50 0.44 0.41 0.35 0.35 0.35 0.36 0.36 0.42 0.52 0.69 0.82 0.92 0.95 1.00 0.97 0.92 0.84 0.77 0.70 0.67 0.65 0.63 0.57 0.54 0.56 0.54 0.55 0.56 0.59
1.27 1.25 1.14 0.96 0.87 0.89 0.90 0.91 0.95 0.97 0.88 0.75 0.67 0.61 0.54 0.47 0.39 0.37 0.37 0.36 0.34 0.32 0.40 0.58 0.78 0.90 0.98 1.06 1.14 1.12 0.98 0.86 0.78 0.74 0.73 0.75 0.70 0.65 0.62 0.62 0.63 0.63 0.65
1.33 1.39 1.29 1.19 1.09 1.09 1.09 1.05 0.98 0.91 0.85 0.75 0.67 0.63 0.60 0.56 0.48 0.47 0.47 0.40 0.36 0.30 0.32 0.41 0.56 0.72 0.88 0.99 1.12 1.27 1.14 1.01 0.89 0.80 0.79 0.84 0.87 0.80 0.76 0.76 0.75 0.74 0.75
1.53 1.54 1.47 1.39 1.36 1.31 1.29 1.21 1.10 0.97 0.87 0.79 0.74 0.73 0.72 0.65 0.60 0.56 0.51 0.43 0.41 0.39 0.38 0.37 0.38 0.48 0.61 0.83 0.99 1.20 1.30 1.23 1.07 0.96 0.86 0.84 0.86 0.88 0.90 0.93 0.91 0.91 0.94
1.89 1.76 1.72 1.64 1.58 1.49 1.43 1.39 1.26 1.13 0.99 0.93 0.91 0.83 0.77 0.71 0.68 0.64 0.58 0.52 0.48 0.48 0.50 0.50 0.48 0.48 0.52 0.67 0.90 1.09 1.26 1.38 1.26 1.08 0.96 0.91 0.93 0.96 1.03 1.10 1.13 1.17 1.19
2.15 2.03 1.88 1.87 1.80 1.65 1.50 1.50 1.47 1.33 1.21 1.19 1.15 0.94 0.80 0.73 0.68 0.63 0.65 0.65 0.58 0.52 0.53 0.60 0.64 0.60 0.51 0.51 0.64 0.80 0.95 1.16 1.32 1.32 1.18 1.07 1.06 1.12 1.22 1.33 1.39 1.40 1.39
2.38 2.21 2.05 1.98 1.94 1.88 1.69 1.58 1.61 1.57 1.44 1.40 1.41 1.35 1.15 0.95 0.74 0.66 0.65 0.66 0.65 0.63 0.57 0.55 0.57 0.59 0.58 0.51 0.50 0.56 0.65 0.85 1.14 1.41 1.52 1.44 1.37 1.37 1.46 1.59 1.67 1.72 1.72
2.65 2.46 2.26 2.22 2.15 2.11 2.00 1.86 1.78 1.74 1.69 1.58 1.58 1.75 1.55 1.22 0.90 0.75 0.72 0.71 0.70 0.73 0.72 0.65 0.60 0.59 0.60 0.55 0.54 0.54 0.56 0.67 0.96 1.30 1.63 1.76 1.74 1.75 1.89 2.03 2.09 2.17 2.13
2.65 2.67 2.52 2.34 2.27 2.22 2.16 2.22 2.22 2.09 1.98 1.77 1.62 1.53 1.52 1.37 1.29 1.05 0.83 0.81 0.78 0.75 0.80 0.78 0.71 0.67 0.63 0.62 0.62 0.65 0.69 0.73 0.93 1.30 1.67 1.96 2.10 2.27 2.50 2.61 2.61 2.63 2.51
2.43 2.57 2.59 2.46 2.22 2.08 2.02 2.08 2.18 2.22 2.11 1.92 1.74 1.63 1.55 1.39 1.31 1.32 1.12 0.94 0.90 0.80 0.78 0.82 0.85 0.85 0.83 0.81 0.80 0.84 0.91 0.96 1.14 1.46 1.85 2.22 2.51 2.78 3.02 3.17 3.14 3.07 2.94
2.25 2.26 2.31 2.28 2.22 2.09 1.95 1.97 2.10 2.18 2.21 2.15 1.96 1.75 1.65 1.55 1.36 1.36 1.31 1.15 1.12 1.00 0.90 0.90 0.94 0.99 0.99 1.00 0.97 1.06 1.09 1.18 1.32 1.54 1.93 2.30 2.57 2.79 3.01 3.33 3.48 3.41 3.35
2.15 2.13 2.20 2.16 2.14 2.06 2.02 1.98 2.00 2.01 2.04 2.10 2.04 1.87 1.67 1.53 1.45 1.52 1.55 1.42 1.30 1.17 1.12 1.05 1.00 1.00 1.01 1.04 1.09 1.21 1.14 1.17 1.23 1.41 1.75 2.11 2.23 2.31 2.47 2.73 3.04 3.22 3.27
1.99 1.97 2.06 2.09 2.08 2.06 2.02 2.00 1.96 1.91 1.91 1.92 1.89 1.82 1.69 1.51 1.43 1.48 1.60 1.74 1.71 1.45 1.24 1.14 1.07 1.05 1.05 1.06 1.12 1.24 1.10 1.25 1.25 1.33 1.52 1.70 1.68 1.63 1.72 1.93 2.17 2.44 2.67
1.89 1.81 1.83 1.88 1.92 1.92 1.92 1.93 1.91 1.82 1.77 1.76 1.71 1.65 1.58 1.46 1.37 1.36 1.45 1.65 1.94 1.89 1.53 1.21 1.15 1.10 1.10 1.08 1.19 1.10 1.00 1.23 1.27 1.26 1.28 1.30 1.27 1.26 1.36 1.49 1.67 1.92 2.13
1.79 1.69 1.67 1.69 1.74 1.75 1.75 1.81 1.78 1.72 1.70 1.64 1.59 1.56 1.50 1.43 1.40 1.40 1.45 1.52 1.67 1.83 1.68 1.27 1.09 1.05 1.06 1.05 1.17 1.04 1.01 1.24 1.22 1.20 1.16 1.12 1.12 1.17 1.26 1.38 1.46 1.59 1.84
1.60 1.64 1.58 1.59 1.62 1.64 1.62 1.66 1.69 1.66 1.61 1.55 1.50 1.48 1.44 1.39 1.40 1.38 1.41 1.47 1.52 1.60 1.60 1.26 1.06 1.03 1.10 1.09 1.11 1.04 0.99 0.97 0.95 1.06 1.03 1.01 0.99 1.04 1.16 1.27 1.36 1.43 1.58
1.35 1.38 1.39 1.40 1.38 1.39 1.42 1.44 1.49 1.51 1.50 1.45 1.43 1.44 1.42 1.43 1.50 1.51 1.52 1.51 1.50 1.47 1.48 1.35 1.12 1.02 0.99 0.94 0.92 0.94 0.93 0.92 0.86 1.00 0.98 0.95 0.98 1.03 1.10 1.15 1.19 1.27 1.36
1.27 1.30 1.28 1.30 1.30 1.26 1.29 1.29 1.29 1.33 1.37 1.37 1.37 1.39 1.39 1.42 1.51 1.53 1.53 1.51 1.44 1.40 1.39 1.37 1.21 1.07 1.03 0.97 0.94 0.92 0.90 0.89 0.83 0.92 0.96 0.94 0.97 1.00 1.05 1.12 1.15 1.15 1.17
1.15 1.16 1.19 1.20 1.24 1.25 1.25 1.27 1.28 1.28 1.31 1.33 1.34 1.33 1.32 1.31 1.31 1.31 1.31 1.31 1.32 1.34 1.36 1.38 1.29 1.16 1.08 1.04 1.04 1.06 1.02 0.92 0.86 0.79 0.86 0.85 0.89 0.92 0.93 0.98 1.04 1.05 1.06
1.07 1.10 1.12 1.13 1.13 1.18 1.26 1.30 1.32 1.34 1.34 1.36 1.38 1.34 1.26 1.22 1.15 1.13 1.11 1.11 1.14 1.25 1.35 1.40 1.33 1.20 1.08 1.06 1.05 0.98 1.01 0.99 0.94 0.84 0.80 0.76 0.74 0.73 0.75 0.84 0.93 1.04 1.11
1.06 1.10 1.17 1.20 1.20 1.24 1.43 1.50 1.44 1.39 1.36 1.31 1.27 1.19 1.13 1.13 1.09 1.11 1.12 1.10 1.16 1.29 1.41 1.40 1.27 1.11 0.93 0.87 0.94 1.03 1.12 1.17 1.10 0.84 0.81 0.84 0.80 0.79 0.74 0.76 0.95 1.06 1.17
1.17 1.23 1.27 1.37 1.38 1.38 1.45 1.34 1.32 1.27 1.28 1.24 1.15 1.06 1.00 0.93 0.94 0.87 0.96 1.04 1.05 1.13 1.19 1.17 1.10 0.94 0.87 0.86 1.06 1.25 1.22 1.15 0.97 0.77 0.82 0.90 0.83 0.84 0.79 0.85 1.03 1.05 1.15
1.22 1.31 1.31 1.32 1.34 1.37 1.38 1.25 1.22 1.08 1.03 1.03 1.00 0.94 0.88 0.86 0.85 0.86 0.92 0.99 0.91 0.86 0.86 0.82 0.84 0.88 0.90 0.91 1.07 1.29 1.28 1.22 1.03 0.87 0.85 0.97 0.84 0.83 0.79 0.84 0.99 0.97 1.01
1.15 1.19 1.21 1.18 1.11 1.12 1.16 1.08 1.06 0.97 0.95 0.90 0.86 0.87 0.89 0.83 0.92 1.05 1.04 1.01 0.87 0.77 0.81 0.88 0.93 0.93 0.98 0.99 1.04 1.33 1.47 1.50 1.31 0.98 0.82 0.85 0.77 0.77 0.83 0.88 0.95 1.02 1.01
0.97 0.95 0.94 0.90 0.86 0.85 0.92 0.90 0.89 0.81 0.83 0.82 0.82 0.84 0.94 0.89 0.98 1.09 0.99 0.96 0.88 0.76 0.74 0.75 0.74 0.74 0.72 0.77 0.91 1.09 1.49 1.79 1.50 1.15 0.80 0.89 0.91 0.97 1.20 0.94 0.90 0.95 0.99

GEFSMA_prec_meanprecacc_282.txt.gz
Total_Precipitation_Accumulation
1.07 1.00 0.95 0.92 0.81 0.75 0.73 0.80 0.79 0.71 0.66 0.61 0.51 0.42 0.39 0.37 0.35 0.36 0.35 0.35 0.39 0.48 0.62 0.73 0.75 0.74 0.75 0.80 0.80 0.77 0.74 0.67 0.61 0.55 0.52 0.52 0.49 0.48 0.53 0.56 0.59 0.61 0.64
1.23 1.15 1.00 0.94 0.89 0.82 0.78 0.84 0.88 0.81 0.78 0.70 0.62 0.53 0.47 0.44 0.38 0.36 0.36 0.37 0.37 0.43 0.55 0.72 0.86 0.96 0.99 1.04 1.00 0.94 0.85 0.77 0.71 0.68 0.66 0.64 0.58 0.55 0.57 0.56 0.57 0.58 0.60
1.33 1.30 1.18 1.01 0.91 0.94 0.93 0.94 0.99 1.00 0.91 0.78 0.70 0.64 0.57 0.50 0.43 0.39 0.39 0.37 0.35 0.33 0.42 0.60 0.81 0.94 1.02 1.10 1.18 1.16 1.00 0.87 0.79 0.74 0.74 0.76 0.71 0.66 0.63 0.64 0.65 0.66 0.67
1.42 1.46 1.34 1.23 1.13 1.14 1.14 1.09 1.01 0.94 0.87 0.77 0.70 0.67 0.64 0.59 0.51 0.50 0.49 0.42 0.37 0.31 0.33 0.43 0.58 0.76 0.91 1.02 1.15 1.31 1.17 1.03 0.90 0.81 0.80 0.86 0.88 0.81 0.77 0.77 0.77 0.76 0.77
1.64 1.63 1.53 1.42 1.40 1.36 1.34 1.26 1.14 1.01 0.90 0.81 0.76 0.77 0.76 0.69 0.63 0.59 0.54 0.45 0.42 0.40 0.39 0.38 0.40 0.50 0.63 0.85 1.02 1.23 1.33 1.25 1.09 0.97 0.88 0.86 0.87 0.89 0.92 0.94 0.93 0.92 0.95
1.98 1.86 1.79 1.69 1.62 1.53 1.47 1.44 1.31 1.17 1.03 0.97 0.94 0.86 0.81 0.74 0.71 0.67 0.61 0.54 0.49 0.48 0.51 0.52 0.50 0.49 0.53 0.68 0.93 1.12 1.30 1.41 1.29 1.09 0.98 0.93 0.94 0.98 1.04 1.11 1.15 1.19 1.20
2.23 2.12 1.96 1.94 1.86 1.69 1.53 1.53 1.51 1.37 1.25 1.24 1.20 0.99 0.83 0.75 0.71 0.67 0.69 0.68 0.60 0.53 0.54 0.61 0.66 0.62 0.52 0.52 0.65 0.83 1.02 1.23 1.39 1.37 1.22 1.09 1.08 1.14 1.24 1.34 1.41 1.42 1.41
2.45 2.27 2.13 2.05 2.01 1.93 1.73 1.61 1.65 1.61 1.48 1.44 1.46 1.41 1.20 0.99 0.77 0.69 0.69 0.69 0.66 0.64 0.58 0.57 0.58 0.62 0.62 0.53 0.51 0.58 0.68 0.90 1.21 1.50 1.60 1.51 1.41 1.41 1.48 1.61 1.69 1.73 1.73
2.71 2.52 2.32 2.28 2.22 2.16 2.04 1.89 1.81 1.77 1.72 1.62 1.62 1.80 1.60 1.26 0.93 0.78 0.75 0.74 0.72 0.74 0.73 0.67 0.62 0.61 0.63 0.60 0.57 0.57 0.59 0.70 1.00 1.35 1.69 1.82 1.78 1.78 1.92 2.05 2.12 2.19 2.14
2.71 2.73 2.58 2.40 2.33 2.29 2.21 2.26 2.25 2.12 2.01 1.81 1.67 1.59 1.57 1.41 1.32 1.08 0.86 0.84 0.80 0.77 0.81 0.79 0.74 0.70 0.66 0.66 0.67 0.69 0.72 0.76 0.97 1.35 1.71 1.98 2.12 2.30 2.53 2.63 2.63 2.66 2.53
2.51 2.64 2.65 2.52 2.29 2.17 2.10 2.14 2.23 2.26 2.14 1.95 1.78 1.68 1.60 1.43 1.34 1.35 1.15 0.96 0.92 0.81 0.79 0.84 0.87 0.87 0.86 0.84 0.83 0.87 0.94 0.98 1.16 1.50 1.88 2.24 2.53 2.79 3.04 3.18 3.17 3.09 2.95
2.33 2.34 2.37 2.34 2.28 2.16 2.05 2.06 2.18 2.25 2.26 2.19 2.00 1.79 1.70 1.59 1.39 1.40 1.35 1.18 1.14 1.02 0.91 0.91 0.96 1.00 1.02 1.03 1.01 1.10 1.12 1.20 1.34 1.57 1.95 2.32 2.59 2.80 3.02 3.33 3.49 3.43 3.36
2.24 2.22 2.27 2.22 2.20 2.12 2.09 2.05 2.07 2.06 2.09 2.14 2.08 1.91 1.71 1.57 1.48 1.55 1.59 1.46 1.33 1.20 1.13 1.07 1.01 1.01 1.02 1.06 1.12 1.25 1.18 1.21 1.26 1.43 1.78 2.13 2.24 2.32 2.48 2.73 3.05 3.24 3.29
2.12 2.10 2.17 2.15 2.12 2.11 2.08 2.05 2.01 1.96 1.95 1.95 1.91 1.84 1.72 1.56 1.47 1.52 1.65 1.78 1.75 1.48 1.26 1.16 1.09 1.07 1.06 1.07 1.14 1.27 1.14 1.29 1.28 1.36 1.55 1.72 1.70 1.64 1.73 1.93 2.18 2.47 2.69
2.02 1.95 1.97 1.97 1.97 1.97 1.98 1.99 1.98 1.87 1.81 1.80 1.74 1.67 1.61 1.49 1.41 1.41 1.49 1.69 1.97 1.92 1.55 1.23 1.16 1.12 1.12 1.10 1.20 1.12 1.03 1.28 1.32 1.30 1.31 1.33 1.29 1.28 1.37 1.50 1.68 1.94 2.17
1.92 1.81 1.78 1.79 1.81 1.81 1.82 1.89 1.85 1.78 1.76 1.69 1.63 1.59 1.53 1.46 1.44 1.45 1.50 1.57 1.71 1.86 1.71 1.29 1.11 1.06 1.09 1.09 1.20 1.07 1.03 1.27 1.26 1.24 1.21 1.16 1.15 1.19 1.27 1.40 1.47 1.62 1.87
1.75 1.78 1.69 1.71 1.73 1.73 1.70 1.74 1.77 1.74 1.68 1.60 1.55 1.52 1.48 1.42 1.43 1.42 1.45 1.52 1.57 1.63 1.62 1.28 1.07 1.05 1.13 1.13 1.14 1.07 1.02 0.99 0.98 1.08 1.06 1.04 1.03 1.07 1.18 1.29 1.38 1.45 1.60
1.49 1.52 1.54 1.56 1.56 1.53 1.51 1.52 1.57 1.60 1.59 1.52 1.48 1.49 1.46 1.46 1.53 1.55 1.56 1.55 1.54 1.51 1.51 1.36 1.13 1.04 1.01 0.97 0.96 0.97 0.96 0.94 0.88 1.03 1.00 0.97 1.00 1.05 1.12 1.17 1.21 1.31 1.40
1.41 1.42 1.40 1.45 1.47 1.42 1.42 1.40 1.38 1.42 1.47 1.46 1.44 1.46 1.45 1.48 1.55 1.57 1.56 1.54 1.48 1.43 1.43 1.39 1.23 1.09 1.06 1.00 0.97 0.96 0.93 0.91 0.85 0.94 0.98 0.96 0.99 1.02 1.06 1.13 1.17 1.18 1.22
1.25 1.25 1.27 1.28 1.33 1.36 1.38 1.40 1.40 1.37 1.40 1.43 1.43 1.41 1.39 1.39 1.38 1.37 1.36 1.36 1.37 1.38 1.40 1.41 1.32 1.18 1.11 1.08 1.08 1.11 1.07 0.95 0.89 0.81 0.88 0.88 0.91 0.93 0.95 0.99 1.05 1.07 1.08
1.14 1.16 1.17 1.18 1.19 1.24 1.34 1.40 1.43 1.44 1.45 1.46 1.48 1.43 1.34 1.30 1.23 1.19 1.18 1.17 1.20 1.31 1.40 1.44 1.37 1.24 1.11 1.10 1.10 1.03 1.06 1.03 0.98 0.86 0.82 0.78 0.76 0.75 0.77 0.86 0.96 1.06 1.14
1.12 1.16 1.21 1.24 1.24 1.28 1.50 1.57 1.52 1.49 1.47 1.42 1.38 1.29 1.23 1.23 1.17 1.19 1.18 1.16 1.21 1.35 1.47 1.45 1.32 1.15 0.96 0.91 0.98 1.08 1.17 1.23 1.16 0.88 0.83 0.86 0.82 0.81 0.75 0.77 0.97 1.09 1.20
1.22 1.29 1.32 1.41 1.41 1.42 1.49 1.39 1.39 1.36 1.38 1.34 1.24 1.15 1.09 1.02 1.01 0.93 1.02 1.09 1.10 1.17 1.23 1.20 1.13 0.96 0.89 0.89 1.10 1.31 1.29 1.21 1.02 0.81 0.86 0.95 0.87 0.86 0.81 0.87 1.05 1.07 1.19
1.25 1.35 1.36 1.39 1.41 1.42 1.43 1.31 1.27 1.14 1.12 1.13 1.09 1.02 0.96 0.93 0.92 0.92 0.96 1.04 0.95 0.90 0.90 0.85 0.86 0.90 0.92 0.94 1.11 1.34 1.34 1.30 1.10 0.93 0.91 1.02 0.89 0.87 0.82 0.87 1.03 1.00 1.05
1.17 1.21 1.24 1.23 1.18 1.19 1.23 1.16 1.14 1.05 1.02 0.99 0.96 0.96 0.97 0.89 0.99 1.12 1.09 1.05 0.91 0.80 0.84 0.92 0.96 0.95 1.01 1.02 1.08 1.38 1.53 1.56 1.38 1.05 0.89 0.91 0.83 0.82 0.88 0.92 0.99 1.07 1.05
0.99 0.97 0.96 0.93 0.90 0.89 0.99 0.97 0.97 0.88 0.91 0.89 0.89 0.93 1.04 0.98 1.05 1.15 1.03 1.00 0.92 0.79 0.77 0.77 0.77 0.77 0.75 0.80 0.95 1.13 1.54 1.83 1.55 1.21 0.85 0.95 0.97 1.02 1.25 0.98 0.94 0.99 1.02

GEFSMA_prec_meanprecacc_288.txt.gz
Total_Precipitation_Accumulation
1.11 1.05 1.01 0.98 0.85 0.79 0.75 0.81 0.81 0.74 0.69 0.64 0.54 0.44 0.40 0.39 0.37 0.38 0.37 0.37 0.41 0.51 0.66 0.77 0.78 0.77 0.78 0.84 0.83 0.79 0.76 0.68 0.61 0.55 0.53 0.53 0.50 0.49 0.54 0.57 0.60 0.62 0.65
1.28 1.21 1.07 1.01 0.96 0.87 0.82 0.86 0.90 0.83 0.79 0.72 0.64 0.55 0.48 0.46 0.39 0.37 0.38 0.38 0.38 0.46 0.61 0.77 0.89 0.99 1.02 1.08 1.05 0.98 0.88 0.79 0.72 0.69 0.67 0.66 0.59 0.56 0.59 0.57 0.58 0.60 0.62
1.37 1.36 1.26 1.09 0.99 1.01 0.98 0.97 1.01 1.02 0.92 0.79 0.72 0.66 0.59 0.52 0.46 0.42 0.41 0.39 0.37 0.35 0.46 0.64 0.84 0.96 1.04 1.14 1.22 1.20 1.04 0.90 0.81 0.76 0.75 0.77 0.72 0.68 0.65 0.66 0.67 0.68 0.69
1.46 1.51 1.42 1.32 1.22 1.22 1.21 1.14 1.05 0.97 0.89 0.78 0.72 0.70 0.66 0.61 0.54 0.53 0.52 0.45 0.39 0.33 0.36 0.46 0.60 0.78 0.93 1.04 1.17 1.34 1.20 1.06 0.93 0.83 0.82 0.87 0.89 0.82 0.79 0.80 0.79 0.78 0.78
1.67 1.68 1.62 1.52 1.49 1.45 1.42 1.33 1.19 1.05 0.93 0.83 0.77 0.78 0.77 0.72 0.67 0.63 0.57 0.49 0.45 0.42 0.41 0.40 0.42 0.52 0.65 0.87 1.04 1.25 1.36 1.28 1.12 0.99 0.91 0.88 0.88 0.90 0.93 0.96 0.95 0.94 0.96
1.99 1.89 1.85 1.77 1.72 1.62 1.54 1.51 1.38 1.23 1.07 1.00 0.96 0.88 0.82 0.76 0.74 0.70 0.65 0.58 0.52 0.50 0.53 0.53 0.51 0.50 0.55 0.69 0.94 1.14 1.32 1.44 1.32 1.11 1.00 0.95 0.95 0.99 1.06 1.12 1.16 1.20 1.21
2.25 2.14 2.00 2.00 1.94 1.78 1.61 1.59 1.58 1.45 1.31 1.29 1.23 1.01 0.86 0.78 0.74 0.69 0.72 0.72 0.63 0.56 0.56 0.62 0.67 0.63 0.54 0.54 0.66 0.84 1.04 1.26 1.41 1.39 1.24 1.11 1.09 1.15 1.25 1.36 1.43 1.44 1.42
2.47 2.30 2.15 2.09 2.07 2.01 1.80 1.67 1.71 1.67 1.55 1.51 1.51 1.44 1.23 1.03 0.81 0.71 0.72 0.72 0.69 0.67 0.60 0.58 0.59 0.63 0.63 0.55 0.52 0.58 0.69 0.92 1.24 1.53 1.64 1.54 1.44 1.43 1.51 1.63 1.71 1.75 1.75
2.75 2.55 2.35 2.31 2.26 2.23 2.12 1.95 1.86 1.83 1.78 1.70 1.69 1.85 1.63 1.30 0.97 0.81 0.78 0.77 0.74 0.76 0.74 0.68 0.63 0.62 0.65 0.61 0.59 0.58 0.60 0.72 1.03 1.40 1.74 1.89 1.87 1.87 1.99 2.11 2.15 2.21 2.17
2.76 2.76 2.62 2.44 2.37 2.33 2.27 2.32 2.32 2.18 2.07 1.88 1.75 1.65 1.60 1.43 1.35 1.12 0.89 0.86 0.83 0.78 0.82 0.80 0.74 0.70 0.66 0.68 0.69 0.71 0.73 0.78 1.00 1.39 1.76 2.03 2.17 2.37 2.61 2.69 2.68 2.69 2.56
2.56 2.68 2.69 2.56 2.32 2.20 2.15 2.19 2.28 2.33 2.21 2.00 1.85 1.73 1.64 1.46 1.36 1.38 1.18 0.99 0.94 0.83 0.80 0.84 0.87 0.88 0.87 0.85 0.85 0.90 0.96 0.99 1.18 1.53 1.92 2.29 2.57 2.84 3.08 3.22 3.19 3.12 2.98
2.38 2.39 2.42 2.39 2.32 2.19 2.08 2.11 2.22 2.31 2.33 2.25 2.05 1.84 1.74 1.63 1.42 1.42 1.38 1.22 1.18 1.04 0.92 0.92 0.96 1.01 1.02 1.04 1.01 1.12 1.15 1.23 1.36 1.59 1.98 2.36 2.64 2.85 3.07 3.38 3.53 3.45 3.38
2.28 2.26 2.33 2.27 2.24 2.16 2.13 2.09 2.11 2.12 2.16 2.21 2.14 1.96 1.76 1.61 1.51 1.57 1.61 1.49 1.38 1.24 1.17 1.08 1.02 1.01 1.02 1.06 1.12 1.26 1.19 1.24 1.28 1.45 1.80 2.15 2.29 2.37 2.52 2.77 3.09 3.26 3.30
2.18 2.15 2.24 2.22 2.18 2.17 2.14 2.10 2.05 2.00 2.00 2.02 1.98 1.90 1.76 1.59 1.50 1.54 1.67 1.81 1.79 1.53 1.30 1.19 1.10 1.07 1.07 1.07 1.15 1.28 1.15 1.31 1.31 1.38 1.56 1.74 1.73 1.67 1.76 1.96 2.20 2.50 2.71
2.10 2.02 2.05 2.07 2.04 2.03 2.05 2.05 2.01 1.90 1.85 1.86 1.81 1.74 1.66 1.53 1.44 1.44 1.52 1.72 2.01 1.97 1.59 1.26 1.18 1.13 1.12 1.11 1.21 1.13 1.03 1.29 1.34 1.32 1.34 1.35 1.32 1.31 1.42 1.55 1.70 1.96 2.19
2.01 1.89 1.85 1.89 1.91 1.88 1.88 1.96 1.91 1.82 1.79 1.73 1.69 1.66 1.60 1.51 1.48 1.48 1.53 1.60 1.74 1.90 1.75 1.32 1.13 1.08 1.10 1.09 1.21 1.08 1.04 1.28 1.27 1.25 1.22 1.19 1.18 1.22 1.32 1.46 1.52 1.65 1.89
1.84 1.86 1.76 1.78 1.84 1.83 1.79 1.82 1.86 1.81 1.74 1.66 1.60 1.58 1.54 1.48 1.49 1.46 1.49 1.56 1.61 1.68 1.66 1.31 1.10 1.07 1.14 1.14 1.15 1.08 1.03 1.00 0.99 1.09 1.07 1.06 1.05 1.09 1.21 1.34 1.45 1.52 1.65
1.58 1.62 1.63 1.65 1.67 1.66 1.62 1.61 1.65 1.69 1.68 1.60 1.56 1.56 1.53 1.53 1.60 1.61 1.61 1.60 1.59 1.56 1.55 1.40 1.17 1.07 1.04 0.99 0.97 0.98 0.97 0.95 0.89 1.04 1.02 0.99 1.02 1.07 1.15 1.20 1.26 1.37 1.46
1.49 1.51 1.49 1.55 1.58 1.54 1.54 1.50 1.47 1.52 1.57 1.56 1.53 1.55 1.53 1.55 1.62 1.63 1.62 1.59 1.52 1.48 1.47 1.43 1.27 1.13 1.10 1.02 1.00 0.98 0.95 0.93 0.86 0.95 0.99 0.98 1.01 1.04 1.08 1.16 1.20 1.21 1.26
1.33 1.35 1.37 1.37 1.42 1.46 1.49 1.51 1.52 1.48 1.49 1.52 1.52 1.50 1.47 1.47 1.45 1.43 1.42 1.40 1.41 1.43 1.44 1.46 1.36 1.22 1.16 1.12 1.12 1.14 1.09 0.97 0.91 0.82 0.89 0.89 0.93 0.96 0.97 1.02 1.08 1.09 1.11
1.23 1.27 1.30 1.31 1.28 1.33 1.42 1.49 1.54 1.56 1.54 1.54 1.55 1.50 1.40 1.36 1.29 1.25 1.23 1.22 1.24 1.36 1.45 1.50 1.43 1.29 1.16 1.15 1.15 1.07 1.09 1.05 0.99 0.88 0.84 0.80 0.78 0.77 0.79 0.88 0.98 1.08 1.16
1.21 1.25 1.33 1.37 1.36 1.38 1.60 1.66 1.60 1.57 1.55 1.50 1.45 1.35 1.29 1.28 1.22 1.24 1.23 1.20 1.25 1.39 1.52 1.50 1.37 1.20 1.00 0.95 1.02 1.13 1.21 1.26 1.19 0.90 0.85 0.88 0.84 0.83 0.77 0.79 0.99 1.11 1.22
1.31 1.39 1.43 1.53 1.52 1.51 1.59 1.48 1.47 1.42 1.44 1.40 1.30 1.21 1.15 1.07 1.06 0.97 1.07 1.14 1.14 1.22 1.28 1.25 1.19 1.02 0.94 0.92 1.14 1.35 1.33 1.25 1.04 0.83 0.88 0.97 0.89 0.88 0.83 0.89 1.07 1.09 1.21
1.32 1.42 1.45 1.49 1.49 1.49 1.50 1.38 1.35 1.20 1.18 1.19 1.14 1.07 1.02 0.99 0.97 0.97 1.01 1.08 0.98 0.93 0.93 0.88 0.90 0.93 0.95 0.98 1.15 1.39 1.39 1.36 1.15 0.97 0.95 1.06 0.92 0.90 0.85 0.89 1.05 1.02 1.07
1.22 1.27 1.30 1.30 1.25 1.25 1.28 1.21 1.20 1.10 1.07 1.04 1.01 1.01 1.02 0.95 1.05 1.17 1.14 1.09 0.95 0.83 0.87 0.95 1.00 1.00 1.06 1.07 1.15 1.46 1.61 1.63 1.45 1.11 0.94 0.95 0.86 0.85 0.91 0.95 1.03 1.10 1.08
1.04 1.02 1.01 0.99 0.95 0.94 1.03 1.01 1.01 0.92 0.94 0.93 0.93 0.97 1.09 1.04 1.12 1.21 1.07 1.04 0.96 0.83 0.80 0.81 0.81 0.81 0.80 0.86 1.02 1.20 1.61 1.91 1.62 1.27 0.91 0.99 1.00 1.06 1.30 1.03 0.98 1.03 1.07

GEFSMA_prec_meanprecacc_294.txt.gz
Total_Precipitation_Accumulation
1.13 1.06 1.01 0.98 0.86 0.79 0.76 0.82 0.82 0.75 0.71 0.65 0.54 0.45 0.42 0.42 0.38 0.38 0.37 0.38 0.43 0.55 0.72 0.82 0.83 0.81 0.82 0.88 0.87 0.83 0.78 0.70 0.63 0.56 0.54 0.54 0.51 0.51 0.55 0.58 0.61 0.63 0.66
1.30 1.23 1.08 1.02 0.96 0.88 0.83 0.89 0.91 0.84 0.81 0.73 0.65 0.56 0.49 0.48 0.41 0.38 0.38 0.40 0.40 0.48 0.66 0.83 0.95 1.04 1.06 1.12 1.10 1.02 0.91 0.82 0.75 0.71 0.68 0.67 0.60 0.58 0.60 0.58 0.59 0.61 0.63
1.40 1.38 1.28 1.10 0.99 1.01 1.00 1.00 1.05 1.04 0.94 0.82 0.74 0.67 0.60 0.53 0.47 0.43 0.42 0.41 0.38 0.37 0.50 0.71 0.89 1.01 1.09 1.19 1.27 1.23 1.08 0.93 0.84 0.78 0.77 0.79 0.74 0.69 0.66 0.67 0.69 0.69 0.70
1.50 1.53 1.43 1.33 1.23 1.22 1.22 1.16 1.09 1.01 0.93 0.81 0.74 0.71 0.67 0.62 0.56 0.55 0.54 0.47 0.41 0.34 0.39 0.52 0.65 0.81 0.97 1.08 1.22 1.38 1.24 1.09 0.96 0.86 0.84 0.89 0.91 0.84 0.81 0.82 0.81 0.79 0.80
1.72 1.72 1.63 1.54 1.51 1.46 1.43 1.35 1.23 1.09 0.97 0.87 0.80 0.80 0.79 0.73 0.68 0.64 0.59 0.51 0.48 0.44 0.43 0.43 0.46 0.55 0.68 0.89 1.07 1.29 1.40 1.32 1.15 1.02 0.93 0.90 0.91 0.93 0.96 0.98 0.98 0.97 0.99
2.06 1.94 1.88 1.79 1.73 1.64 1.56 1.54 1.42 1.27 1.11 1.04 1.00 0.91 0.85 0.78 0.76 0.72 0.67 0.60 0.55 0.54 0.56 0.56 0.55 0.53 0.57 0.71 0.96 1.17 1.36 1.47 1.35 1.15 1.03 0.97 0.98 1.01 1.08 1.15 1.19 1.23 1.24
2.32 2.19 2.03 2.02 1.96 1.80 1.63 1.61 1.62 1.50 1.35 1.32 1.28 1.06 0.90 0.81 0.76 0.71 0.74 0.74 0.66 0.60 0.61 0.67 0.71 0.66 0.55 0.55 0.68 0.86 1.06 1.29 1.45 1.42 1.26 1.14 1.11 1.17 1.28 1.39 1.46 1.46 1.44
2.56 2.36 2.19 2.11 2.09 2.03 1.83 1.70 1.74 1.72 1.59 1.55 1.56 1.50 1.29 1.08 0.85 0.74 0.74 0.74 0.72 0.70 0.65 0.62 0.63 0.66 0.65 0.56 0.53 0.60 0.71 0.95 1.27 1.56 1.66 1.56 1.46 1.45 1.54 1.66 1.75 1.79 1.78
2.82 2.64 2.42 2.35 2.28 2.25 2.15 1.99 1.90 1.87 1.83 1.73 1.73 1.90 1.69 1.35 1.01 0.84 0.81 0.79 0.77 0.79 0.78 0.72 0.67 0.66 0.67 0.62 0.59 0.59 0.61 0.74 1.06 1.42 1.76 1.90 1.88 1.89 2.02 2.15 2.19 2.26 2.20
2.85 2.85 2.70 2.50 2.41 2.36 2.30 2.36 2.36 2.22 2.11 1.92 1.78 1.68 1.64 1.48 1.40 1.16 0.93 0.90 0.86 0.82 0.86 0.84 0.78 0.75 0.70 0.69 0.70 0.71 0.74 0.79 1.02 1.42 1.78 2.05 2.20 2.40 2.65 2.77 2.76 2.76 2.62
2.65 2.77 2.77 2.62 2.38 2.25 2.19 2.24 2.33 2.38 2.25 2.04 1.88 1.77 1.68 1.50 1.40 1.43 1.23 1.03 0.99 0.88 0.84 0.88 0.91 0.92 0.92 0.89 0.87 0.91 0.97 1.00 1.20 1.56 1.96 2.32 2.61 2.87 3.12 3.28 3.27 3.21 3.07
2.48 2.49 2.51 2.45 2.37 2.24 2.13 2.15 2.27 2.36 2.38 2.29 2.08 1.87 1.78 1.67 1.46 1.46 1.42 1.26 1.23 1.10 0.97 0.96 1.00 1.04 1.06 1.08 1.05 1.15 1.17 1.25 1.38 1.61 2.01 2.39 2.68 2.89 3.10 3.40 3.56 3.51 3.45
2.37 2.36 2.43 2.36 2.30 2.21 2.17 2.13 2.15 2.16 2.20 2.25 2.18 2.00 1.79 1.64 1.54 1.61 1.65 1.53 1.42 1.29 1.23 1.15 1.06 1.04 1.05 1.09 1.16 1.30 1.23 1.26 1.31 1.47 1.82 2.18 2.31 2.41 2.56 2.80 3.12 3.30 3.35
2.26 2.24 2.33 2.32 2.26 2.22 2.19 2.14 2.08 2.04 2.04 2.06 2.01 1.93 1.79 1.62 1.53 1.58 1.72 1.86 1.84 1.57 1.36 1.27 1.17 1.11 1.10 1.10 1.18 1.32 1.19 1.34 1.33 1.41 1.59 1.76 1.74 1.69 1.82 2.03 2.25 2.54 2.76
2.20 2.11 2.14 2.17 2.14 2.11 2.11 2.11 2.07 1.94 1.88 1.88 1.83 1.76 1.68 1.56 1.48 1.47 1.56 1.76 2.07 2.02 1.64 1.30 1.24 1.19 1.17 1.14 1.24 1.16 1.07 1.32 1.37 1.35 1.37 1.37 1.33 1.33 1.43 1.58 1.77 2.02 2.24
2.15 2.00 1.95 1.98 2.00 1.98 1.97 2.03 1.97 1.87 1.83 1.76 1.71 1.68 1.61 1.53 1.51 1.52 1.57 1.64 1.79 1.95 1.80 1.35 1.17 1.13 1.16 1.15 1.25 1.11 1.07 1.32 1.30 1.28 1.25 1.21 1.20 1.24 1.34 1.47 1.55 1.69 1.95
2.00 2.00 1.89 1.90 1.95 1.94 1.90 1.92 1.94 1.88 1.79 1.70 1.64 1.60 1.56 1.51 1.52 1.50 1.54 1.61 1.65 1.72 1.71 1.35 1.13 1.11 1.20 1.21 1.22 1.12 1.06 1.03 1.02 1.12 1.09 1.08 1.06 1.11 1.23 1.36 1.46 1.54 1.69
1.73 1.77 1.76 1.77 1.80 1.80 1.77 1.74 1.76 1.78 1.75 1.66 1.61 1.61 1.57 1.57 1.65 1.66 1.66 1.65 1.63 1.60 1.59 1.44 1.21 1.11 1.09 1.05 1.03 1.04 1.02 0.98 0.92 1.07 1.04 1.00 1.03 1.08 1.17 1.22 1.28 1.39 1.49
1.60 1.63 1.61 1.66 1.70 1.66 1.69 1.66 1.62 1.64 1.67 1.65 1.61 1.61 1.59 1.61 1.67 1.69 1.68 1.65 1.57 1.52 1.51 1.47 1.31 1.17 1.15 1.08 1.06 1.04 1.01 0.97 0.89 0.98 1.02 1.00 1.03 1.06 1.10 1.18 1.21 1.23 1.28
1.41 1.43 1.45 1.45 1.51 1.54 1.59 1.65 1.68 1.63 1.62 1.63 1.61 1.57 1.53 1.52 1.51 1.49 1.49 1.47 1.47 1.48 1.49 1.51 1.41 1.28 1.22 1.19 1.18 1.21 1.16 1.03 0.95 0.85 0.92 0.91 0.94 0.97 0.98 1.03 1.09 1.11 1.13
1.29 1.34 1.37 1.37 1.35 1.39 1.49 1.58 1.67 1.72 1.70 1.67 1.65 1.59 1.48 1.43 1.36 1.32 1.30 1.29 1.31 1.43 1.51 1.55 1.48 1.35 1.23 1.22 1.21 1.13 1.14 1.10 1.04 0.92 0.86 0.81 0.79 0.77 0.79 0.89 0.99 1.10 1.18
1.28 1.31 1.39 1.42 1.42 1.44 1.65 1.73 1.69 1.69 1.71 1.67 1.58 1.45 1.37 1.35 1.30 1.32 1.32 1.30 1.35 1.48 1.60 1.57 1.44 1.26 1.07 1.01 1.08 1.18 1.27 1.32 1.24 0.94 0.88 0.89 0.85 0.84 0.77 0.79 1.00 1.12 1.24
1.39 1.48 1.50 1.58 1.57 1.57 1.64 1.54 1.55 1.50 1.55 1.56 1.48 1.35 1.26 1.16 1.15 1.05 1.15 1.24 1.26 1.33 1.38 1.34 1.27 1.09 1.00 0.99 1.20 1.42 1.39 1.31 1.09 0.87 0.92 1.00 0.91 0.90 0.84 0.90 1.09 1.10 1.22
1.40 1.53 1.56 1.59 1.58 1.57 1.56 1.43 1.41 1.27 1.26 1.29 1.29 1.24 1.16 1.12 1.08 1.07 1.11 1.18 1.09 1.04 1.05 0.98 0.98 1.01 1.01 1.03 1.21 1.46 1.46 1.42 1.20 1.01 0.99 1.11 0.95 0.92 0.86 0.90 1.06 1.03 1.08
1.29 1.36 1.41 1.42 1.36 1.35 1.37 1.28 1.26 1.16 1.15 1.12 1.11 1.13 1.16 1.08 1.16 1.28 1.24 1.20 1.05 0.93 0.96 1.03 1.08 1.08 1.13 1.13 1.20 1.51 1.67 1.71 1.52 1.17 0.98 1.00 0.89 0.88 0.93 0.96 1.04 1.12 1.10
1.09 1.08 1.09 1.08 1.05 1.03 1.11 1.08 1.08 0.99 1.02 1.00 1.01 1.05 1.18 1.12 1.20 1.28 1.15 1.12 1.05 0.92 0.89 0.89 0.89 0.88 0.86 0.91 1.07 1.24 1.65 1.97 1.69 1.33 0.95 1.03 1.03 1.09 1.33 1.05 1.00 1.04 1.08